[[{"header":{"parameterUnit":"m.s-1","parameterCategory":1,"la1":30.6,"la2":29.2853,"lo1":-89.7004,"lo2":-87.6739,"dy":0.0162,"dx":0.0183,"nx":112,"ny":82,"refTime":"2024-07-10T18:00:00:Z","depth":0,"parameterNumber":2,"parameterNumberName":"U-component_of_WINDS"},"data":[0.0,0.0,0.0,0.0,0.0,0.0,0.0,0.0,0.0,0.0,0.0,0.0,0.0,0.0,0.0,0.0,0.0,0.0,0.0,0.0,0.0,0.0,0.0,0.0,0.0,0.0,0.0,0.0,0.0,0.0,0.0,0.0,0.0,0.0,0.0,0.0,0.0,0.0,0.0,0.0,0.0,0.0,0.0,0.0,0.0,0.0,0.0,0.0,0.0,0.0,0.0,0.0,0.0,0.0,0.0,0.0,0.0,0.0,0.0,0.0,0.0,0.0,0.0,0.0,0.0,0.0,0.0,0.0,0.0,0.0,0.0,0.0,0.0,0.0,0.0,0.0,0.0,0.0,0.0,0.0,0.0,0.0,0.0,0.0,0.0,0.0,0.0,0.0,0.0,0.0,0.5756,0.6233,0.7449,0.8268,0.8374,0.8069,0.7503,0.6666,0.0,0.0,0.0,0.0,0.0,0.0,0.0,0.0,0.0,0.0,0.0,0.0,0.0,0.0,0.0,0.0,0.0,0.0,0.0,0.0,0.0,0.0,0.0,0.0,0.0,0.0,0.0,0.0,0.0,0.0,0.0,0.0,0.0,0.0,0.0,0.0,0.0,0.0,0.0,0.0,0.0,0.0,0.0,0.0,0.0,0.0,0.0,0.0,0.0,0.0,0.0,0.0,0.0,0.0,0.0,0.0,0.0,0.0,0.0,0.0,0.0,0.0,0.0,0.0,0.0,0.0,0.0,0.0,0.0,0.0,0.0,0.0,0.0,0.0,0.0,0.0,0.0,0.0,0.0,0.0,0.0,0.0,0.0,0.0,0.0,0.0,0.0,0.0,0.0,0.0,0.0,0.0,0.0,0.0,0.0,0.0,0.0,0.0,0.0,0.0,0.0,0.0,0.0,0.0,0.6034,0.7362,0.7908,0.8268,0.8374,0.821,0.7806,0.7231,0.0,0.0,0.0,0.0,0.0,0.0,0.0,0.0,0.0,0.0,0.0,0.0,0.0,0.0,0.0,0.0,0.0,0.0,0.0,0.0,0.0,0.0,0.0,0.0,0.0,0.0,0.0,0.0,0.0,0.0,0.0,0.0,0.0,0.0,0.0,0.0,0.0,0.0,0.0,0.0,0.0,0.0,0.0,0.0,0.0,0.0,0.0,0.0,0.0,0.0,0.0,0.0,0.0,0.0,0.0,0.0,0.0,0.0,0.0,0.0,0.0,0.0,0.0,0.0,0.0,0.0,0.0,0.0,0.0,0.0,0.0,0.0,0.0,0.0,0.0,0.0,0.0,0.0,0.0,0.0,0.0,0.0,0.0,0.0,0.0,0.0,0.0,0.0,0.0,0.0,0.0,0.0,0.0,0.0,0.0,0.0,0.0,0.0,0.0,0.0,0.0,0.0,0.0,0.5763,0.641,0.7872,0.8246,0.8421,0.8527,0.8313,0.7874,0.7166,0.6422,0.0,0.0,0.0,0.0,0.0,0.0,0.0,0.0,0.0,0.0,0.0,0.0,0.0,0.0,0.0,0.0,0.0,0.0,0.0,0.0,0.0,0.0,0.0,0.0,0.0,0.0,0.0,0.0,0.0,0.0,0.0,0.0,0.0,0.0,0.0,0.0,0.0,0.0,0.0,0.0,0.0,0.0,0.0,0.0,0.0,0.0,0.0,0.0,0.0,0.0,0.0,0.0,0.0,0.0,0.0,0.0,0.0,0.0,0.0,0.0,0.0,0.0,0.0,0.0,0.0,0.0,0.0,0.0,0.0,0.0,0.0,0.0,0.0,0.0,0.0,0.0,0.0,0.0,0.0,0.0,0.0,0.0,0.0,0.0,0.0,0.0,0.0,0.0,0.0,0.0,0.0,0.0,0.0,0.0,0.0,0.0,0.0,0.0,0.0,0.0,0.0,0.0,0.6389,0.6867,0.8097,0.8421,0.8573,0.8573,0.8239,0.7749,0.7058,0.6385,0.0,0.0,0.0,0.0,0.0,0.0,0.0,0.0,0.0,0.0,0.0,0.0,0.0,0.0,0.0,0.0,0.0,0.0,0.0,0.0,0.0,0.0,0.0,0.0,0.0,0.0,0.0,0.0,0.0,0.0,0.0,0.0,0.0,0.0,0.0,0.0,0.0,0.0,0.0,0.0,0.0,0.0,0.0,0.0,0.0,0.0,0.0,0.0,0.0,0.0,0.0,0.0,0.0,0.0,0.0,0.0,0.0,0.0,0.0,0.0,0.0,0.0,0.0,0.0,0.0,0.0,0.0,0.0,0.0,0.0,0.0,0.0,0.0,0.0,0.0,0.0,0.0,0.0,0.0,0.0,0.0,0.0,0.0,0.0,0.0,0.0,0.0,0.0,0.0,0.0,0.0,0.0,0.0,0.0,0.0,0.0,0.0,0.0,0.0,0.0,0.0,0.0,0.6644,0.7395,0.81,0.8321,0.8474,0.8573,0.7961,0.7398,0.713,0.6123,0.0,0.0,0.0,0.0,0.0,0.0,0.0,0.0,0.0,0.0,0.0,0.0,0.0,0.0,0.0,0.0,0.0,0.0,0.0,0.0,0.0,0.0,0.0,0.0,0.0,0.0,0.0,0.0,0.0,0.0,0.0,0.0,0.0,0.0,0.0,0.0,0.0,0.0,0.0,0.0,0.0,0.0,0.0,0.0,0.0,0.0,0.0,0.0,0.0,0.0,0.0,0.0,0.0,0.0,0.0,0.0,0.0,0.0,0.0,0.0,0.0,0.0,0.0,0.0,0.0,0.0,0.0,0.0,0.0,0.0,0.0,0.0,0.0,0.0,0.0,0.0,0.0,0.0,0.0,0.0,0.0,0.0,0.0,0.0,0.0,0.0,0.0,0.0,0.0,0.0,0.0,0.0,0.0,0.0,0.0,0.0,0.0,0.0,0.0,0.0,0.0,0.0,0.662,0.7416,0.0,0.8533,0.8699,0.8745,0.8323,0.7759,0.7011,0.0,0.0,0.0,0.0,0.0,0.0,0.0,0.0,0.0,0.0,0.0,0.0,0.0,0.0,0.0,0.0,0.0,0.0,0.0,0.0,0.0,0.0,0.0,0.0,0.0,0.0,0.0,0.0,0.0,0.0,0.0,0.0,0.0,0.0,0.0,0.0,0.0,0.0,0.0,0.0,0.0,0.0,0.0,0.0,0.0,0.0,0.0,0.0,0.0,0.0,0.0,0.0,0.0,0.0,0.0,0.0,0.0,0.0,0.0,0.0,0.0,0.0,0.0,0.0,0.0,0.0,0.0,0.0,0.0,0.0,0.0,0.0,0.0,0.0,0.0,0.0,0.0,0.0,0.0,0.0,0.0,0.0,0.0,0.0,0.0,0.0,0.0,0.0,0.0,0.0,0.0,0.0,0.0,0.0,0.0,0.0,0.0,0.0,0.0,0.0,0.0,0.0,0.5976,0.6711,0.7471,0.0,0.8586,0.8745,0.8745,0.8277,0.7605,0.6831,0.0,0.0,0.0,0.0,0.0,0.0,0.0,0.0,0.0,0.0,0.0,0.0,0.0,0.0,0.0,0.0,0.0,0.0,0.0,0.0,0.0,0.0,0.0,0.0,0.0,0.0,0.0,0.0,0.0,0.0,0.0,0.0,0.0,0.0,0.0,0.0,0.0,0.0,0.0,0.0,0.0,0.0,0.0,0.0,0.0,0.0,0.0,0.0,0.0,0.0,0.0,0.0,0.0,0.0,0.0,0.0,0.0,0.0,0.0,0.0,0.0,0.0,0.0,0.0,0.0,0.0,0.0,0.0,0.0,0.0,0.0,0.0,0.0,0.0,0.0,0.0,0.0,0.0,0.0,0.0,0.0,0.0,0.0,0.0,0.0,0.0,0.0,0.0,0.0,0.0,0.0,0.0,0.0,0.0,0.0,0.0,0.0,0.0,0.0,0.0,0.0,0.0,0.6152,0.6972,0.7751,0.8311,0.8527,0.8626,0.8626,0.7616,0.6861,0.0,0.0,0.0,0.0,0.0,0.0,0.0,0.0,0.0,0.0,0.0,0.0,0.0,0.0,0.0,0.0,0.0,0.0,0.0,0.0,0.0,0.0,0.0,0.0,0.0,0.0,0.0,0.0,0.0,0.0,0.0,0.0,0.0,0.0,0.0,0.0,0.0,0.0,0.0,0.0,0.0,0.0,0.0,0.0,0.0,0.0,0.0,0.0,0.0,0.0,0.0,0.0,0.0,0.0,0.0,0.0,0.0,0.0,0.0,0.0,0.0,0.0,0.0,0.0,0.0,0.0,0.0,0.0,0.0,0.0,0.0,0.0,0.0,0.0,0.0,0.0,0.0,0.0,0.0,0.0,0.0,0.0,0.0,0.0,0.0,0.0,0.0,0.0,0.0,0.0,0.0,0.0,0.0,0.0,0.0,0.0,0.0,0.0,0.0,0.0,0.0,0.0,0.0,0.6211,0.7145,0.7954,0.8462,0.8633,0.8745,0.8745,0.8054,0.7321,0.656,0.0,0.0,0.0,0.0,0.0,0.0,0.0,0.0,0.0,0.0,0.0,0.0,0.0,0.0,0.0,0.0,0.0,0.0,0.0,0.0,0.0,0.0,0.0,0.0,0.0,0.0,0.0,0.0,0.0,0.0,0.0,0.0,0.0,0.0,0.0,0.0,0.0,0.0,0.0,0.0,0.0,0.0,0.0,0.0,0.0,0.0,0.0,0.0,0.0,0.0,0.0,0.0,0.0,0.0,0.0,0.0,0.0,0.0,0.0,0.0,0.0,0.0,0.0,0.0,0.0,0.0,0.0,0.0,0.0,0.0,0.0,0.0,0.0,0.0,0.0,0.0,0.0,0.0,0.0,0.0,0.0,0.0,0.0,0.0,0.0,0.0,0.0,0.0,0.0,0.0,0.0,0.0,0.0,0.0,0.0,0.0,0.0,0.0,0.0,0.0,0.0,0.0,0.6507,0.7456,0.8234,0.8639,0.8752,0.8804,0.8804,0.827,0.7565,0.6705,0.0,0.0,0.0,0.0,0.0,0.0,0.0,0.0,0.0,0.0,0.0,0.0,0.0,0.0,0.0,0.0,0.0,0.0,0.0,0.0,0.0,0.0,0.0,0.0,0.0,0.0,0.0,0.0,0.0,0.0,0.0,0.0,0.0,0.0,0.0,0.0,0.0,0.0,0.0,0.0,0.0,0.0,0.0,0.0,0.0,0.0,0.0,0.0,0.0,0.0,0.0,0.0,0.0,0.0,0.0,0.0,0.0,0.0,0.0,0.0,0.0,0.0,0.0,0.0,0.0,0.0,0.0,0.0,0.0,0.0,0.0,0.0,0.0,0.0,0.0,0.0,0.0,0.0,0.0,0.0,0.0,0.0,0.0,0.0,0.0,0.0,0.0,0.0,0.0,0.0,0.0,0.0,0.0,0.0,0.0,0.0,0.0,0.0,0.0,0.0,0.0,0.0,0.6824,0.7772,0.8484,0.8778,0.8804,0.8804,0.8804,0.829,0.7634,0.6967,0.0,0.0,0.0,0.0,0.0,0.0,0.0,0.0,0.0,0.0,0.0,0.0,0.0,0.0,0.0,0.0,0.0,0.0,0.0,0.0,0.0,0.0,0.0,0.0,0.0,0.0,0.0,0.0,0.0,0.0,0.0,0.0,0.0,0.0,0.0,0.0,0.0,0.0,0.0,0.0,0.0,0.0,0.0,0.0,0.0,0.0,0.0,0.0,0.0,0.0,0.0,0.0,0.0,0.0,0.0,0.0,0.0,0.0,0.0,0.0,0.7592,0.7314,0.0,0.0,0.0,0.0,0.0,0.0,0.0,0.0,0.0,0.0,0.0,0.0,0.0,0.0,0.0,0.0,0.0,0.0,0.0,0.0,0.0,0.0,0.0,0.0,0.0,0.0,0.0,0.0,0.0,0.0,0.0,0.0,0.0,0.0,0.0,0.0,0.0,0.0,0.0,0.0,0.6979,0.7857,0.8484,0.8778,0.8804,0.8804,0.8804,0.8484,0.7896,0.7029,0.6553,0.0,0.0,0.0,0.0,0.0,0.0,0.0,0.0,0.0,0.0,0.0,0.0,0.0,0.0,0.0,0.0,0.0,0.0,0.0,0.0,0.0,0.0,0.0,0.0,0.0,0.0,0.0,0.0,0.0,0.0,0.0,0.0,0.0,0.0,0.0,0.0,0.0,0.0,0.0,0.0,0.0,0.0,0.0,0.0,0.0,0.0,0.0,0.0,0.0,0.0,0.0,0.0,0.0,0.0,0.0,0.0,0.0,0.0,0.0,0.8902,0.8397,0.0,0.0,0.0,0.0,0.0,0.0,0.0,0.0,0.0,0.0,0.0,0.0,0.0,0.0,0.0,0.0,0.0,0.0,0.0,0.0,0.0,0.0,0.0,0.0,0.0,0.0,0.0,0.0,0.0,0.0,0.0,0.0,0.0,0.0,0.0,0.0,0.0,0.0,0.0,0.0,0.7224,0.8072,0.8644,0.8791,0.8804,0.8804,0.8804,0.8544,0.8116,0.745,0.6895,0.0,0.0,0.0,0.0,0.0,0.0,0.0,0.0,0.0,0.0,0.0,0.0,0.0,0.0,0.0,0.0,0.0,0.0,0.0,0.0,0.0,0.0,0.0,0.0,0.0,0.0,0.0,0.0,0.0,0.0,0.0,0.0,0.0,0.0,0.0,0.0,0.0,0.0,0.0,0.0,0.0,0.0,0.0,0.0,0.0,0.0,0.0,0.0,0.0,0.0,0.0,0.0,0.0,1.1826,1.1618,1.1729,1.1495,1.1749,1.2202,1.0268,0.9712,1.0144,0.9205,0.0,0.0,0.0,0.0,0.0,0.0,0.0,0.0,0.0,0.0,0.0,0.0,0.0,0.0,0.0,0.0,0.0,0.0,0.0,0.0,0.0,0.0,0.8806,0.9144,0.9227,0.8934,0.7583,0.0,0.0,0.0,0.0,0.0,0.0,0.0,0.0,0.0,0.0,0.0,0.7551,0.8333,0.8804,0.8804,0.8804,0.8804,0.8804,0.8591,0.8323,0.8029,0.7261,0.6647,0.0,0.0,0.0,0.0,0.0,0.0,0.0,0.0,0.0,0.0,0.0,0.0,0.0,0.0,0.0,0.0,0.0,0.0,0.0,0.0,0.0,0.0,0.0,0.0,0.0,0.0,0.0,0.0,0.0,0.0,0.0,0.0,0.6695,0.7046,0.0,0.0,0.0,0.0,0.0,0.0,0.0,0.0,0.0,0.0,0.0,0.0,0.0,0.9278,0.9975,1.1935,1.3048,1.3305,1.2586,1.2298,1.2298,1.2247,1.2445,1.2814,1.2503,0.0,1.1531,1.1067,0.0,0.0,0.0,0.0,0.0,0.0,0.0,0.0,0.0,0.0,0.0,0.0,0.0,0.0,0.0,0.0,0.0,0.0,0.0,0.0,0.0,0.0,0.9187,0.9547,0.9615,0.9574,0.9363,0.8268,0.7287,0.7236,0.69,0.6572,0.0,0.0,0.0,0.0,0.0,0.0,0.8179,0.8605,0.8804,0.8804,0.8804,0.8804,0.8804,0.8771,0.8624,0.8337,0.7963,0.7388,0.6567,0.6176,0.0,0.0,0.0,0.0,0.0,0.0,0.0,0.0,0.0,0.0,0.0,0.0,0.0,0.0,0.0,0.0,0.0,0.0,0.0,0.0,0.0,0.0,0.0,0.0,0.0,0.0,0.0,0.0,0.0,0.6832,0.762,0.8202,0.8134,0.7954,0.0,0.0,0.0,0.0,0.0,0.0,0.0,0.0,0.0,1.1412,1.0876,1.1268,1.2672,1.4093,1.459,1.4161,1.3836,1.3682,1.3682,1.3918,1.4039,1.4161,1.3219,1.2663,1.2352,1.2227,1.1759,1.0948,0.0,0.0,0.0,0.0,0.8134,0.8113,0.849,0.8919,0.9292,0.9218,0.0,0.0,0.0,0.0,0.0,0.0,0.0,0.8686,0.8731,0.9126,0.9566,0.9853,0.98,0.9726,0.9893,0.9302,0.8574,0.8056,0.7656,0.7175,0.642,0.6456,0.0,0.0,0.0,0.7728,0.8304,0.8639,0.8804,0.8804,0.8804,0.8804,0.8804,0.8804,0.8751,0.8624,0.8343,0.8003,0.7609,0.6868,0.6115,0.0,0.0,0.0,0.0,0.0,0.0,0.0,0.0,0.0,0.0,0.0,0.0,0.0,0.0,0.0,0.0,0.0,0.0,0.0,0.0,0.0,0.0,0.0,0.0,0.0,0.0,0.0,0.0,0.7852,0.8716,0.9417,0.9538,0.9444,0.0,0.0,0.0,0.0,0.0,0.0,1.0831,1.1748,1.2512,1.3091,1.2659,1.3145,1.4667,1.5429,1.5523,1.4975,1.4975,1.4975,1.4966,1.5225,1.5078,1.4503,1.33,1.2714,1.2606,1.2899,1.2572,1.1876,1.1124,1.0521,1.0113,0.9851,1.0233,1.0715,1.0281,1.0127,1.0067,0.9679,0.9583,0.9475,0.87,0.0,0.0,0.0,0.0,0.9653,0.967,0.9853,1.0074,1.0287,1.0174,1.006,1.02,1.0,0.9579,0.8851,0.853,0.8049,0.7056,0.7194,0.0,0.0,0.0,0.815,0.8444,0.8671,0.8804,0.8804,0.8804,0.8804,0.8804,0.8804,0.8804,0.8804,0.8604,0.845,0.8377,0.7522,0.68,0.6317,0.0,0.0,0.0,0.0,0.0,0.0,0.0,0.0,0.0,0.0,0.0,0.0,0.0,0.0,0.0,0.0,0.0,0.0,0.0,0.0,0.0,0.0,0.0,0.0,0.0,0.0,0.0,0.0,0.0,1.0733,1.104,0.0,0.0,0.0,0.0,1.1154,1.1807,1.2406,1.2809,1.3554,1.3973,1.4024,1.4341,1.4572,1.4684,1.5429,1.578,1.5745,1.5745,1.5745,1.5745,1.5745,1.4691,1.2831,1.2753,1.2383,1.1988,1.2983,1.2639,1.1364,1.0839,1.087,1.1404,1.1935,1.1784,1.1376,1.1349,1.1336,1.1363,1.1523,1.0882,0.9987,0.9724,0.963,0.0,0.0,1.0073,1.0604,1.0828,1.0915,1.0929,1.0942,1.0935,1.0855,1.0658,1.0307,1.0,0.9679,0.9606,0.9399,0.8778,0.0,0.8617,0.833,0.8323,0.8457,0.8751,0.8798,0.8804,0.8804,0.8804,0.8804,0.8804,0.8804,0.8804,0.8804,0.8791,0.8664,0.8434,0.8367,0.7742,0.6587,0.6277,0.0,0.0,0.0,0.0,0.0,0.0,0.0,0.0,0.0,0.0,0.0,0.0,0.0,0.0,0.0,0.0,0.0,0.0,0.0,0.0,0.0,0.0,0.0,0.0,0.0,0.0,0.0,0.0,1.21,1.235,0.0,1.2509,1.2518,1.2569,1.2706,1.3194,1.3656,1.4059,1.4786,1.53,1.5531,1.5754,1.5874,1.5874,1.6781,1.7244,1.7158,1.4929,1.3815,1.3815,1.3815,1.3402,1.2705,1.2705,1.2469,1.214,1.2828,1.2655,1.1971,1.1764,1.181,1.1984,1.1937,1.1797,1.1597,1.147,1.1423,1.1436,1.1503,1.1142,1.0661,1.0555,1.0528,1.0528,1.0528,1.0808,1.1142,1.1243,1.1269,1.1269,1.1269,1.1269,1.1189,1.0902,1.0755,1.0595,1.0301,0.994,0.9552,0.9152,0.9245,0.9272,0.8978,0.9098,0.9252,0.9359,0.9205,0.903,0.903,0.8918,0.8804,0.8804,0.8804,0.8804,0.8804,0.8804,0.8758,0.8657,0.829,0.7796,0.7211,0.6539,0.5705,0.0,0.0,0.0,0.0,0.0,0.0,0.0,0.0,0.0,0.0,0.0,0.0,0.0,0.0,0.0,0.0,0.0,0.0,0.0,0.0,0.0,0.0,0.0,0.0,0.0,0.0,1.1679,1.3081,1.3451,1.3596,1.3691,1.3939,1.4136,1.4273,1.4641,1.5026,1.542,1.5908,1.6285,1.6524,1.6858,1.6953,1.6781,1.7612,1.7834,1.7398,1.5021,1.3572,1.297,1.2789,1.2771,1.288,1.2759,1.2572,1.2355,1.2751,1.2743,1.251,1.2496,1.2512,1.2492,1.2365,1.2211,1.2031,1.1804,1.1724,1.1724,1.1724,1.1523,1.1289,1.1289,1.1289,1.1289,1.1289,1.1496,1.1724,1.1724,1.1724,1.1697,1.1597,1.1577,1.1496,1.1202,1.1136,1.1082,1.0889,1.0381,0.9886,0.9586,0.9699,0.9726,0.9432,0.9559,0.9686,0.9686,0.9512,0.9352,0.9196,0.9065,0.8911,0.8818,0.8804,0.8804,0.8804,0.8804,0.8804,0.8804,0.8343,0.7936,0.7629,0.67,0.59,0.5277,0.0,0.0,0.0,0.0,0.0,0.0,0.0,0.0,0.0,0.0,0.0,0.0,0.0,0.0,0.0,0.0,0.0,0.0,0.0,0.0,0.0,0.0,0.0,1.074,1.1568,1.2476,1.3631,1.4311,1.4572,1.4204,1.4838,1.5429,1.5822,1.6182,1.6559,1.6953,1.697,1.6978,1.6987,1.761,1.7755,1.7338,1.7738,1.733,1.6161,1.6183,1.5218,1.3507,1.2976,1.2934,1.3159,1.2886,1.2729,1.2711,1.2618,1.2756,1.2953,1.2883,1.2926,1.2973,1.3353,1.318,1.2795,1.2432,1.2331,1.2331,1.2331,1.2138,1.1911,1.1897,1.1897,1.1897,1.1884,1.2084,1.2305,1.2305,1.2305,1.2231,1.1951,1.1884,1.1804,1.1503,1.1443,1.1436,1.1423,1.0969,1.0494,1.0194,1.0134,1.0033,0.9753,0.9713,0.0,0.9713,0.9699,0.9586,0.9243,0.9196,0.907,0.8844,0.8811,0.8804,0.8804,0.8804,0.8804,0.8804,0.853,0.8237,0.7888,0.678,0.6216,0.6216,0.0,0.0,0.0,0.0,0.0,0.0,0.0,0.0,0.0,0.0,0.0,0.0,0.0,0.0,0.0,0.0,0.0,0.0,0.0,0.0,0.0,1.0006,1.0706,1.1559,1.227,1.3187,1.4601,1.5189,1.5557,1.5781,1.6165,1.661,1.6978,1.7107,1.7441,1.8091,1.8126,1.8263,1.8545,1.806,1.7746,1.7616,1.7315,1.6783,1.6168,1.5265,1.4868,1.4962,1.3997,1.3538,1.3622,1.3393,1.329,1.3284,1.3484,1.3219,1.28,1.2859,1.2969,1.3146,1.3253,1.32,1.3073,1.2986,1.2959,1.2959,1.2959,1.2906,1.2799,1.2572,1.258,1.2533,1.2245,1.2238,1.2305,1.2305,1.2305,1.2278,1.2204,1.2184,1.2104,1.181,1.175,1.1683,1.147,1.1296,1.1096,1.0802,1.0581,1.0414,1.0327,1.0383,0.0,1.0383,1.0134,0.9967,0.988,0.9435,0.915,0.907,0.8931,0.8804,0.8804,0.8804,0.8804,0.8804,0.853,0.8237,0.7888,0.7174,0.6787,0.0,0.0,0.0,0.0,0.0,0.0,0.0,0.0,0.0,0.0,0.0,0.0,0.0,0.0,0.0,0.0,0.0,0.0,0.0,0.0,0.0,0.0,1.0788,1.1596,1.205,1.306,1.4062,1.4977,1.5812,1.6266,1.6246,1.6927,1.7543,1.7912,1.8091,1.8305,1.8571,1.8398,1.8253,1.8327,1.7644,1.7194,1.7049,1.6873,1.6411,1.5743,1.5,1.4829,1.5006,1.4248,1.3833,1.3821,1.3604,1.3513,1.3513,1.3701,1.3511,1.3181,0.0,0.0,0.0,0.0,1.3394,1.3373,1.3253,1.3213,1.3213,1.3213,1.3213,1.318,1.2993,1.2939,1.2879,1.2572,1.2485,1.2458,1.2338,1.2305,1.2305,1.2305,1.2305,1.2258,1.2084,1.2051,1.1997,1.1824,1.1697,0.0,1.139,1.1015,1.0701,1.0645,1.0624,1.0624,1.0624,1.0408,1.0254,1.0134,0.9806,0.9449,0.9203,0.903,0.0,0.0,0.0,0.8751,0.8631,0.8464,0.0,0.0,0.0,0.0,0.0,0.0,0.0,0.0,0.684,0.6767,0.0,0.0,0.0,0.0,0.0,0.0,0.0,0.0,0.0,0.0,0.0,0.0,0.0,0.0,0.0,0.0,1.1236,1.2222,1.2405,1.3807,1.4877,1.4883,1.6094,1.6696,1.6222,1.734,1.8323,1.8682,1.8948,1.8931,1.8625,0.0,0.0,0.0,0.0,1.6469,1.6181,1.6371,1.5964,1.5147,1.5147,1.4816,1.4292,1.4057,1.3954,1.3936,1.3707,1.3604,1.3604,1.3604,1.3774,1.3901,1.4027,1.3892,1.3698,1.3622,1.3694,1.3654,1.34,0.0,0.0,1.3307,1.3307,1.33,1.3267,1.326,1.32,1.2886,1.2876,1.2815,1.2472,1.2378,1.2351,1.2351,1.2325,1.2305,1.2305,1.2305,1.2305,1.2305,1.2091,1.1911,1.1877,1.1383,1.0909,1.0712,1.0645,1.0624,1.0624,1.0624,1.0461,1.0194,0.0,0.0,0.9323,0.9223,0.9077,0.8871,0.8824,0.8691,0.843,0.8424,0.8297,0.7988,0.7981,0.8156,0.8424,0.8424,0.8424,0.8397,0.7335,0.7248,0.0,0.0,0.0,0.0,0.0,0.0,0.0,0.0,0.0,0.0,0.0,0.0,0.0,0.0,0.0,1.108,1.1966,1.2746,1.3194,1.4356,1.4918,1.4477,1.5802,1.6693,1.6595,1.8037,1.911,1.9495,1.8773,1.854,1.8749,1.7903,1.736,1.7294,1.6399,1.5967,1.5905,1.5132,1.469,1.45,1.45,0.0,1.4292,1.4244,1.422,1.422,1.4165,1.4147,1.4147,1.4147,1.4115,1.4155,1.4097,1.4077,1.399,1.4021,1.4001,1.3995,1.3935,1.3921,1.3921,1.3921,1.3921,1.3874,1.3627,1.3561,0.0,1.3206,1.312,1.3106,1.3053,1.2846,1.2735,1.2735,1.2478,1.2305,1.2305,1.2305,1.2305,1.2305,1.2258,1.2144,1.1911,1.1383,1.0975,1.0915,1.0715,1.0624,1.0624,1.0624,1.0604,1.0481,1.0261,1.0067,0.9953,0.9455,0.9157,0.9103,0.8938,0.8784,0.8724,0.8724,0.8697,0.8637,0.8637,0.8664,0.8724,0.8724,0.8724,0.8717,0.849,0.8343,0.0,0.0,0.0,0.0,0.0,0.0,0.0,0.0,0.0,0.0,0.0,0.8926,0.9624,0.0,1.0937,1.1633,1.2739,1.3467,1.3341,1.4295,1.4829,1.4386,1.557,1.6521,1.6774,1.7985,1.8886,1.9249,1.8814,1.8261,1.7797,1.7022,1.6476,1.6237,1.5442,1.5045,1.5045,1.458,1.4298,1.4298,1.4298,1.4298,1.4298,1.4298,1.4298,1.4298,1.4298,1.4298,1.4298,1.4298,1.4236,1.4161,1.4157,1.4153,1.413,1.4216,1.4215,1.4088,1.4088,1.4088,1.4088,1.4088,1.4088,1.4055,1.3908,1.3868,1.3801,1.3514,1.3427,1.3394,1.3247,1.3093,1.2979,1.2979,1.2746,1.2525,1.2525,1.2405,1.2305,1.2305,1.2305,1.2258,1.2111,1.1724,1.1329,1.1035,1.0868,1.0728,1.0645,1.0624,1.0624,1.0624,1.0428,1.0281,1.0127,0.9522,0.9183,0.9183,0.8965,0.8804,0.8804,0.8804,0.8804,0.8804,0.8804,0.8804,0.8804,0.8804,0.8804,0.8811,0.8958,0.8945,0.0,0.0,0.0,0.0,0.0,0.0,0.0,0.0,0.8282,0.8869,0.9503,1.0012,1.055,1.125,1.1848,1.2113,1.3319,1.3982,1.3355,1.4065,1.4578,1.4333,1.5349,1.6178,1.6617,1.7425,1.8131,1.8488,1.8326,1.7742,1.6564,1.5859,1.5315,1.5,1.4558,1.4298,1.4298,1.4298,1.4298,1.4298,1.4298,1.4298,1.4298,1.4298,1.4298,1.4298,1.4298,1.4298,1.4298,1.4298,1.4266,1.4259,1.4266,1.4239,1.4141,1.4447,1.4456,1.4255,1.4255,1.4215,1.4168,1.4168,1.4135,1.4088,1.4088,1.4088,1.4035,1.3801,1.3728,1.3674,1.344,1.334,1.3293,1.3293,1.306,1.2896,1.2835,1.2559,1.2371,1.2311,1.2305,1.2305,1.2305,1.2104,1.1777,1.1243,1.1116,1.0969,1.0681,1.0705,1.0685,1.0631,1.0624,1.0441,1.014,0.9679,0.9329,0.9269,0.905,0.8924,0.8924,0.8924,0.8924,0.8924,0.8978,0.8978,0.8978,0.8978,0.8978,0.8985,0.9218,0.9236,0.7267,0.7156,0.7376,0.8139,0.817,0.8392,0.0,0.0,1.0013,1.0647,1.1069,1.1401,1.1691,1.2198,1.2662,1.2946,1.3343,1.3641,1.3785,1.3932,1.4117,1.4236,1.4993,1.5508,1.5541,1.6707,1.7439,1.7475,1.664,1.6062,1.594,1.5032,1.4472,1.4441,1.4376,1.4298,1.4298,1.4298,1.4298,1.4298,1.4298,1.4298,1.4298,1.4298,1.4298,1.4298,1.4298,1.4298,1.4298,1.4298,1.428,1.4351,1.4549,1.4458,1.4247,1.4456,1.4705,1.4863,1.4863,1.4689,1.4476,1.4476,1.4295,1.4088,1.4088,1.4088,1.4082,1.4048,1.4041,1.4035,1.3995,1.3794,1.3594,1.3594,1.3373,1.308,1.2882,1.2795,1.2694,1.2351,1.2305,1.2305,1.2305,1.2278,1.2144,1.1824,1.1543,1.1276,1.0982,1.0949,1.0842,1.0651,1.0624,1.0441,1.014,1.006,0.9907,0.9653,0.9433,0.9356,0.9356,0.9356,0.9356,0.9356,0.9528,0.9586,0.9586,0.9586,0.9586,0.9586,0.9619,0.9492,0.8796,0.0,0.0,0.0,0.9479,0.9831,1.0544,1.0665,1.087,1.1449,1.192,1.2294,1.2572,1.3049,1.3441,0.0,1.3797,1.4008,1.4117,1.4002,1.3948,1.4057,1.4341,1.4731,1.5364,1.5999,1.6383,1.6202,1.598,1.5514,1.4956,1.4484,1.4298,1.4298,1.4298,1.4298,1.4298,1.4298,1.4298,1.4298,1.4298,1.4298,1.4298,1.4298,1.4298,1.4298,1.4298,1.4298,1.4298,1.4298,1.4298,1.4298,1.4394,1.462,1.4678,1.4587,1.465,1.4751,1.4579,1.4641,1.4723,1.4382,1.4302,1.4309,1.4135,1.4088,1.4088,1.4088,1.4088,1.4088,1.4088,1.3995,1.3901,1.3901,1.3674,1.338,1.308,1.2872,1.2735,1.2365,1.2305,1.2305,1.2305,1.2305,1.2265,1.2138,1.187,1.1577,1.1283,1.1096,1.0882,1.0658,1.0624,1.0571,1.0388,1.0214,1.0067,0.994,0.9721,0.9505,0.9389,0.9505,0.9505,0.9389,0.9621,0.9686,0.9686,0.9686,0.9686,0.9686,0.986,0.9866,0.9637,0.0,0.0,1.0158,1.0604,1.0985,1.1129,1.1359,1.1661,1.2059,1.2499,1.2862,1.2988,1.3441,1.3797,1.3797,1.4081,1.4298,1.4298,1.4075,1.393,1.4002,1.3954,1.4149,1.4799,1.521,1.5308,1.5021,1.5263,1.5045,1.4292,1.4298,1.4298,1.4298,1.4298,1.4298,1.4298,1.4298,1.4298,1.4298,1.4298,1.4298,1.4298,1.4298,1.4298,1.4298,1.4298,1.4298,1.4298,1.4298,1.4298,1.4298,1.4298,1.4496,1.486,1.4659,1.4731,1.4787,1.4493,1.4576,1.4787,1.4369,1.4295,1.4362,1.4155,1.4088,1.4088,1.4088,1.4088,1.4088,1.4088,1.4088,1.4088,1.4088,1.3921,1.3687,1.3394,1.3153,1.2879,1.2498,1.2425,1.2398,1.2318,1.2305,1.2305,1.2305,1.2124,1.1884,1.1583,1.1223,1.0915,1.0701,1.0672,1.0624,1.0624,1.0367,1.0241,1.0179,0.992,0.9688,0.9509,0.9628,0.9688,0.9509,0.9688,0.9807,0.9867,0.9807,0.9807,0.9867,1.008,1.0179,0.0,0.0,1.0109,1.0882,1.1292,1.1636,1.2149,1.2469,1.2662,1.2681,1.291,1.3031,1.2765,1.3163,1.3525,1.3525,1.396,1.4298,1.4298,1.4075,1.4002,1.4256,1.4057,1.3809,1.355,1.4084,1.4189,1.3924,1.4147,1.4298,1.4298,1.4298,1.4298,1.4298,1.4298,1.4298,1.4298,1.4298,1.4298,1.4298,1.4298,1.4298,1.4298,1.4298,1.4298,1.4298,1.4298,1.4298,1.4298,1.4298,1.4298,1.4298,1.4298,1.4298,1.4394,1.458,1.5051,1.538,1.5086,1.4813,1.4635,1.4515,1.4322,1.4095,1.4088,1.4088,1.4088,1.4088,1.4088,1.4088,1.4088,1.4088,1.4088,1.4088,1.4082,1.3988,1.3694,1.3539,1.344,1.2923,1.2808,1.2721,1.2351,1.2305,1.2305,1.2305,1.2291,1.2184,1.1897,1.1349,1.0989,1.0982,1.0728,1.0624,1.0624,1.0618,1.0485,1.0295,1.0091,0.9901,0.9779,0.9779,0.9779,0.9779,0.9901,1.0085,1.0275,1.0085,1.0085,1.0275,1.0288,1.0288,0.0,0.0,1.0906,1.1709,1.2113,1.2451,1.2988,1.3043,1.3031,1.3206,1.2892,1.2668,1.2934,1.2837,1.2892,1.3429,1.3664,1.39,1.425,1.4075,1.3876,1.3791,1.3701,0.0,0.0,0.0,0.0,1.3664,1.3888,1.4117,1.4286,1.4298,1.4298,1.4298,1.4298,1.4298,1.4298,1.4298,1.4298,1.4298,1.4298,1.4298,1.4298,1.4298,1.4298,1.4298,1.4298,1.4298,1.4298,1.4298,1.4298,1.4298,1.4298,1.4394,1.4592,1.4496,1.4783,1.5229,1.4846,1.49,1.5047,1.4464,1.4408,1.4596,1.4202,1.4088,1.4088,1.4088,1.4088,1.4088,1.4088,1.4088,1.4088,1.4088,1.4088,1.4008,1.3707,1.3559,1.3527,1.3133,1.2886,1.2788,1.2612,1.2432,1.2305,1.2305,1.2305,1.2198,1.1904,1.1697,1.1423,1.1035,1.0909,1.0768,1.0645,1.0624,1.0498,1.0308,1.0238,1.0053,0.9804,0.9862,0.9862,0.9804,0.9926,1.0047,1.011,1.0047,1.0047,1.011,1.011,1.011,0.0,1.1341,1.1733,1.2542,1.2868,1.3061,1.3314,1.3314,1.32,1.2988,1.2536,1.2192,1.2252,1.2059,1.2119,1.2831,1.3188,1.3556,1.4081,1.4014,1.3876,1.3803,1.3713,1.3519,0.0,0.0,0.0,1.3538,1.3845,1.4117,1.4286,1.4298,1.4298,1.4298,1.4298,1.4298,1.4298,1.4298,1.4298,1.4298,1.4298,1.4298,1.4298,1.4298,1.4298,1.4298,1.4298,1.4298,1.4298,1.4298,1.4298,1.4298,1.4298,1.4394,1.4592,1.4496,1.4592,1.4746,1.4565,1.4865,1.5165,1.4402,1.4467,1.4716,1.4235,1.4088,1.4088,1.4088,1.4088,1.4088,1.4088,1.4088,1.4088,1.4088,1.4088,1.4035,1.3841,1.3801,1.3714,1.342,1.3206,1.2999,1.2856,1.2498,1.2305,1.2305,1.2305,1.2231,1.2051,1.1937,1.1724,1.1349,1.1209,1.1029,1.0742,1.0651,1.054,1.018,1.018,0.9989,0.9676,0.9798,0.9798,0.9676,0.9798,0.9862,0.9926,0.9862,0.9862,0.9926,0.9926,0.9926,1.1745,1.2161,1.256,1.3338,1.3525,1.3453,1.3218,1.3314,1.3163,1.2131,1.1866,1.1588,0.0,0.0,1.1238,1.1811,1.2578,1.329,1.3833,1.3918,1.4014,0.0,0.0,0.0,0.0,0.0,0.0,1.3556,0.0,1.4286,1.4298,1.4298,1.4298,1.4298,1.4298,1.4298,1.4298,1.4298,1.4298,1.4298,1.4298,1.4298,1.4298,1.4298,1.4298,1.4298,1.4298,1.4298,1.4298,1.4298,1.4298,1.4298,1.4298,1.4298,1.4298,1.4592,1.4496,1.4262,1.4196,1.4577,1.4851,1.4294,1.4294,1.4509,1.4202,1.4108,1.4108,1.4088,1.4088,1.4088,1.4088,1.4088,1.4088,1.4088,1.4088,1.4088,1.4088,1.4088,1.4001,1.3721,1.3572,1.3454,1.2929,1.2512,1.2318,1.2305,1.2305,1.2305,1.2305,1.2058,1.1891,1.187,1.1617,1.1329,1.1035,1.0811,1.0496,1.0021,0.9887,0.9753,0.9484,0.9484,0.9484,0.9484,0.9484,0.9612,0.9804,0.9612,0.9612,0.9804,0.9804,0.981,1.2343,1.285,1.3302,1.3707,1.3658,1.355,1.3676,1.3139,1.2487,1.2023,1.1135,1.0381,1.0107,0.0,0.0,1.1479,1.2294,0.0,1.3803,1.4075,0.0,1.402,0.0,1.3827,1.3634,1.3791,0.0,0.0,1.393,1.4093,1.4286,1.4298,1.4298,1.4298,1.4298,1.4298,1.4298,1.4298,1.4298,1.4298,1.4298,1.4298,1.4298,1.4298,1.4298,1.4298,1.4298,1.4298,1.4298,1.4298,1.4298,1.4298,1.4298,1.4298,1.4298,1.4394,1.449,1.458,1.4315,1.4481,1.4716,1.4555,1.4624,1.4799,1.4475,1.4409,1.4362,1.4148,1.4088,1.4088,1.4088,1.4088,1.4088,1.4088,1.4088,1.4088,1.4088,1.4088,1.4062,1.3988,1.3794,1.3454,1.2929,1.2761,1.2559,1.2338,1.2305,1.2305,1.2305,1.2238,1.2104,1.1891,1.1804,1.1567,1.1132,1.1038,1.0786,1.018,1.0102,0.995,0.949,0.9484,0.9484,0.9484,0.9676,0.9676,0.9548,0.9676,0.9676,0.9548,0.9548,0.9651,1.3091,1.3538,1.3894,1.4039,1.3882,1.3604,1.3284,1.2656,1.1902,1.1051,1.0119,0.0,0.922,0.0,0.0,0.0,0.0,0.0,1.3435,1.3888,1.4117,0.0,1.4081,0.0,1.3876,1.399,1.4081,0.0,1.4081,1.4141,1.4292,1.4298,1.4298,1.4298,1.4298,1.4298,1.4298,1.4298,1.4298,1.4298,1.4298,1.4298,1.4298,1.4298,1.4298,1.4298,1.4298,1.4298,1.4298,1.4298,1.4298,1.4298,1.4298,1.4298,1.4298,1.4298,1.4394,1.4496,1.4394,1.4394,1.4549,1.4559,1.4657,1.4844,1.4767,1.4441,1.4215,1.4236,1.4097,1.3913,1.4088,1.4088,1.4088,1.4088,1.4088,1.4088,1.4088,1.4088,1.4088,1.4088,1.3848,1.3494,1.3026,1.2916,1.2721,1.2345,1.2305,1.2305,1.2305,1.2305,1.2238,1.2078,1.2058,1.1866,1.1364,1.1268,1.0943,1.0399,1.0313,1.011,0.9832,0.9826,0.9772,0.9658,0.9782,0.9728,0.9484,0.9612,0.9612,0.9484,0.9484,0.9622,1.3815,1.4123,1.4286,1.4256,1.3996,1.3489,1.2487,1.192,1.1196,0.9676,0.0,0.8776,0.8267,0.8429,0.8902,0.9736,0.0,1.1902,1.2976,1.3574,1.4002,1.4262,1.4298,1.4298,1.4298,1.4298,1.4298,1.4298,1.4298,1.4298,1.4298,1.4298,1.4298,1.4298,1.4298,1.4298,1.4298,1.4298,1.4298,1.4298,1.4298,1.4298,1.4298,1.4298,1.4298,1.4298,1.4298,1.4298,1.4298,1.4298,1.4298,1.4298,1.4298,1.4298,1.4298,1.4298,1.4298,1.4298,1.4298,1.4298,1.4351,1.4509,1.4621,1.4663,1.4838,1.4454,1.3943,1.4355,1.413,1.3822,1.4004,1.4088,1.4088,1.4088,1.4088,1.4088,1.4082,1.4088,1.4088,1.4088,1.3881,1.3601,1.3267,1.2986,1.2692,1.2351,1.2305,1.2305,1.2305,1.2305,1.2305,1.2305,1.2305,1.2051,1.1657,1.1422,1.1087,1.0608,1.0451,1.0363,1.0327,1.0327,1.0224,0.9928,0.9959,0.9826,0.9538,0.9566,0.9548,0.9484,0.9484,0.964,1.4087,1.4262,1.4244,1.4026,1.3435,1.2747,1.2131,1.0936,0.0,0.0,0.0,0.7844,0.7753,0.8082,0.0,0.9706,0.0,0.0,0.0,0.0,1.4002,0.0,0.0,0.0,0.0,0.0,0.0,0.0,1.4298,1.4298,1.4298,1.4298,1.4298,1.4298,1.4298,1.4298,1.4298,1.4298,1.4298,1.4298,1.4298,1.4298,1.4298,1.4298,1.4298,1.4298,1.4298,0.0,1.4298,1.4298,1.4298,1.4298,1.4298,1.4298,1.4298,1.4298,1.4298,1.4298,1.4298,1.4298,1.4382,1.4632,1.4715,1.4665,1.467,1.4572,1.4378,1.4226,1.413,1.3997,1.4088,1.4088,1.3997,1.3822,1.3913,1.4004,1.3822,1.3913,1.4088,1.4088,1.4048,1.3841,1.33,1.3166,1.2939,1.2385,1.2305,1.2305,1.2305,1.2305,1.2305,1.2305,1.215,1.1983,1.171,1.1489,1.115,1.0742,1.0653,1.0556,1.0339,1.0327,1.0309,1.026,1.0184,1.0049,0.9802,0.978,0.9676,0.9484,0.9484,0.9742,1.4026,1.4189,1.4238,1.3972,1.3296,1.2457,1.1516,0.0,0.0,0.0,0.0,0.7346,0.7212,0.0,0.0,0.0,0.0,0.0,0.0,0.0,0.0,0.0,0.0,0.0,0.0,0.0,0.0,1.4298,1.4298,1.4298,1.4298,1.4298,1.4298,1.4298,1.4298,1.4298,1.4298,1.4298,1.4298,1.4298,1.4298,1.4298,1.4298,1.4298,1.4298,1.4298,1.4298,1.4298,1.4298,1.4298,1.4298,1.4298,1.4298,1.4298,1.4298,1.4298,1.4298,1.4298,1.4298,1.4298,1.4298,1.449,1.449,1.4536,1.464,1.4362,1.4084,1.4158,1.3873,1.3659,1.4004,1.3913,1.3737,1.3913,1.3997,1.4088,1.3913,1.3997,1.4088,1.4088,1.4088,1.3948,1.3514,1.3313,1.3053,1.2599,1.2405,1.2305,1.2305,1.2224,1.215,1.215,1.1929,1.1781,1.1558,1.1484,1.1279,1.093,1.0924,1.0864,1.0737,1.0737,1.0671,1.0532,1.0481,1.0347,1.014,1.008,0.9952,0.9688,0.9826,1.0018,1.3791,1.3972,1.4051,1.3725,1.3043,1.2119,1.0846,0.9681,0.0,0.0,0.0,0.6987,0.6835,0.0,0.0,0.0,0.0,0.0,0.0,0.0,0.0,0.0,0.0,0.0,0.0,0.0,0.0,1.4298,1.4298,1.4298,1.4298,1.4298,1.4298,1.4298,1.4298,1.4298,1.4298,1.4298,1.4298,1.4298,1.4298,1.4298,1.4298,1.4298,1.4298,1.4298,1.4298,1.4298,1.4298,1.4298,1.4298,1.4298,1.4298,1.4298,1.4298,1.4298,1.4298,1.4298,1.4298,1.4298,1.4286,1.4232,1.4214,1.4272,1.4428,1.4043,1.356,1.3969,1.3614,1.3313,1.3828,1.3737,1.3483,1.3913,1.3997,1.4004,1.4088,1.4088,1.4088,1.4004,1.4088,1.3968,1.3532,1.328,1.3086,1.2705,1.2452,1.2224,1.2224,1.2003,1.1855,1.1855,1.1706,1.1558,1.1409,1.1335,1.126,1.1111,1.1111,1.1111,1.1111,1.1111,1.1015,1.081,1.0749,1.0622,1.0417,1.0357,1.0155,0.9958,1.0167,1.0357,1.3417,1.3568,1.3465,1.2946,1.2222,1.1353,1.0191,0.0,0.0,0.0,0.6835,0.655,0.6769,0.0,0.0,0.0,0.0,0.0,0.0,0.0,0.0,0.0,0.0,0.0,0.0,0.0,0.0,1.4298,1.4298,1.4298,1.4298,1.4298,1.4298,1.4298,1.4298,1.4298,1.4298,1.4298,1.4298,1.4298,1.4298,1.4298,1.4298,1.4298,1.4298,1.4298,1.4298,1.4298,0.0,1.4298,1.4298,1.4298,1.4298,1.4298,1.4298,1.4298,1.4298,1.4298,1.4298,1.4298,1.4256,1.402,1.3942,1.3936,1.4005,1.3731,1.3492,1.3555,1.3435,1.3398,1.3652,1.3568,1.3483,1.3652,1.3737,1.3822,1.4082,1.4088,1.4004,1.3737,1.3913,1.3824,1.3106,1.3068,1.3013,1.2432,1.217,1.2003,1.2003,1.1706,1.1484,1.1484,1.1409,1.1409,1.1409,1.126,1.1111,1.1111,1.1111,1.1111,1.1111,1.1111,1.1099,1.1075,1.084,1.0707,1.0683,1.0447,1.0315,1.029,1.0321,1.0453,1.2837,1.3151,1.323,1.3012,1.2113,1.1081,1.0345,0.0,0.7605,0.7279,0.6781,0.6447,0.655,0.6702,0.7,0.0,0.0,0.0,0.0,0.0,0.0,0.0,0.0,0.0,0.0,0.0,1.4298,1.4298,1.4298,1.4298,1.4298,1.4298,1.4298,1.4298,1.4298,1.4298,1.4298,1.4298,1.4298,1.4298,1.4298,1.4298,1.4298,1.4298,1.4298,1.4298,1.4298,1.4298,0.0,1.4298,1.4298,1.4298,1.4298,1.4298,1.4298,1.4298,1.4298,1.4298,1.4298,1.4189,1.4045,1.3936,1.3688,1.3435,1.3435,1.3373,1.3254,1.3262,1.3132,1.3052,1.3398,1.3568,1.3561,1.3398,1.3652,1.3913,1.3913,1.3828,1.3828,1.3737,1.3822,1.3697,1.3215,1.3167,1.2988,1.25,1.2201,1.1929,1.1855,1.1558,1.1409,1.1409,1.126,1.1186,1.1186,1.1186,1.1111,1.1111,1.1111,1.1111,1.1111,1.1111,1.1111,1.1111,1.1009,1.0954,1.0954,1.0852,1.0719,1.0568,1.0725,1.0773,1.2041,1.2439,1.2632,1.2548,1.1697,1.0701,0.0,0.0,0.7498,0.7158,0.6726,0.6416,0.6416,0.6568,0.6805,0.0,0.7425,0.7996,0.9089,0.0,0.0,0.0,0.0,0.0,0.0,0.0,1.4298,1.4298,1.4298,1.4298,1.4298,1.4298,1.4298,1.4298,1.4298,1.4298,1.4298,1.4298,1.4298,1.4298,1.4298,1.4298,1.4298,1.4298,1.4298,1.4298,1.4298,1.4298,0.0,1.4298,1.4298,1.4298,1.4298,1.4298,1.4298,1.4298,1.425,1.4183,1.4183,1.4008,1.3779,1.3701,1.3423,1.3109,1.3025,1.3,1.2958,1.2936,1.2881,1.2875,1.3222,1.3483,1.3561,1.3228,1.3568,1.3913,1.3652,1.3652,1.3652,1.3568,1.3652,1.3536,1.3085,1.302,1.2923,1.2387,1.1996,1.1781,1.1632,1.1409,1.1335,1.1335,1.1186,1.1111,1.1111,1.1111,1.1111,1.1111,1.1111,1.1111,1.1111,1.1111,1.1111,1.1111,1.1111,1.1111,1.1111,1.1111,1.1015,1.084,1.1027,1.1015,1.0985,1.1335,1.1479,1.1202,1.0731,1.0061,0.0,0.813,0.7449,0.6921,0.6599,0.6416,0.6416,0.6416,0.6592,0.7115,0.7425,0.0,0.9292,0.0,0.0,0.0,0.0,0.0,0.0,0.0,1.4298,1.4298,1.4298,0.0,1.4298,1.4298,1.4298,1.4298,1.4298,1.4298,1.4298,1.4298,1.4298,1.4298,1.4298,1.4298,1.4298,1.4298,1.4298,1.4298,1.4298,1.4298,0.0,1.4298,1.4298,1.4298,1.4298,1.4298,1.4298,1.4298,1.4135,1.3912,1.3912,1.3743,1.3477,1.3218,1.3127,1.3073,1.2795,1.2705,1.2705,1.2705,1.2875,1.3137,1.3137,1.3222,1.3398,1.3398,1.3568,1.3652,1.3476,1.3568,1.3568,1.3137,1.3398,1.3387,1.2419,1.2571,1.2616,1.1795,1.1558,1.1409,1.1409,1.126,1.1111,1.1111,1.1111,1.1111,1.1111,1.1111,1.1111,1.1111,1.1111,1.1111,1.1111,1.1111,1.1111,1.1111,1.1111,1.1111,1.1111,1.1111,1.1111,1.1105,1.1111,1.1111,0.9784,1.0042,1.0083,1.0,0.9574,0.904,0.8531,0.7852,0.7224,0.6878,0.6599,0.6416,0.6416,0.6416,0.6663,0.7556,0.0,0.0,0.0,0.0,0.0,0.0,0.0,0.0,0.0,0.0,1.4298,1.4298,1.4298,1.4298,1.4298,1.4298,1.4298,1.4298,1.4298,1.4298,1.4298,1.4298,1.4298,1.4298,1.4298,1.4298,1.4298,1.4298,1.4298,1.4298,1.4298,1.4298,1.4298,1.4298,1.4298,1.4298,1.4298,1.4298,1.4274,1.4093,1.3978,1.3882,1.3701,1.3465,1.3236,1.3151,1.2994,1.2819,1.2729,1.2705,1.2705,1.2705,1.279,1.279,1.279,1.3052,1.3137,1.2966,1.3222,1.3483,1.3222,1.3222,1.3222,1.3137,1.3228,1.3052,1.2339,1.2485,1.2452,1.1646,1.1558,1.1484,1.126,1.126,1.126,1.1111,1.1111,1.1111,1.1111,1.1111,1.1111,1.1111,1.1111,1.1111,1.1111,1.1111,1.1111,1.1111,1.1111,1.1111,1.1111,1.1111,1.1111,1.1111,1.1111,1.1111,0.0,0.8956,0.9034,0.9034,0.8705,0.8291,0.7979,0.7436,0.6975,0.6714,0.6532,0.6416,0.6416,0.6495,0.6766,0.7526,0.0,0.0,0.0,0.0,0.0,0.0,0.0,0.0,0.0,1.4177,1.4298,1.4298,1.4298,1.4298,1.4298,1.4298,1.4298,1.4298,1.4298,1.4298,1.4298,1.4298,1.4298,1.4298,1.4298,1.4298,1.4298,1.4298,1.4298,1.4298,1.4298,1.4298,0.0,1.4298,1.4238,1.4153,1.4153,1.4087,1.3978,1.3815,1.3701,1.3586,1.3423,1.3188,1.2964,1.2964,1.285,1.2705,1.2705,1.2705,1.2705,1.2705,1.2705,1.2705,1.279,1.2881,1.2966,1.2881,1.3052,1.3222,1.2966,1.3052,1.3137,1.3137,1.3056,1.276,1.232,1.2324,1.2098,1.1477,1.1409,1.1409,1.126,1.126,1.126,1.1111,1.1111,1.1111,1.1111,1.1111,1.1111,1.1111,1.1111,1.1111,1.1111,1.1111,1.1111,1.1111,1.1111,1.1111,1.1111,1.1111,1.1111,1.1111,1.1111,1.1111,0.0,0.7937,0.8153,0.8153,0.7985,0.768,0.7267,0.6969,0.0,0.6471,0.6416,0.6422,0.6465,0.6653,0.6921,0.7261,0.0,0.0,0.0,0.0,0.0,0.0,0.0,0.0,1.3568,1.4008,1.4298,1.4298,1.4298,1.4298,1.4298,1.4298,1.4298,1.4298,1.4298,1.4298,1.4298,1.4298,1.4298,1.4298,1.4298,1.4298,1.4298,1.4298,1.4298,0.0,1.4298,1.4298,1.4298,1.4298,1.4153,1.393,1.3912,1.3755,1.3538,1.3501,1.3332,1.3121,1.3103,1.2922,1.2705,1.2705,1.2705,1.2705,1.2705,1.2705,1.2705,1.2705,1.2705,1.279,1.3052,1.2875,1.279,1.3052,1.3052,1.2966,1.279,1.2881,1.3052,1.3052,1.2853,1.2593,1.2327,1.206,1.1781,1.1484,1.1273,1.1186,1.1335,1.126,1.1111,1.1111,1.1111,1.1111,1.1111,1.1111,1.1111,1.1111,1.1111,1.1111,1.1111,1.1111,1.1111,1.1111,1.1111,1.1111,1.1111,1.1111,1.1111,1.1111,1.1111,1.1111,0.6076,0.0,0.6832,0.6832,0.6941,0.6959,0.0,0.6708,0.0,0.0,0.0,0.6538,0.6945,0.6902,0.7164,0.0,0.0,0.0,0.0,0.0,0.0,0.0,0.0,0.0,1.4117,1.4226,1.4298,1.4298,1.4298,1.4298,1.4298,1.4298,1.4298,1.4298,1.4298,1.4298,1.4298,1.4298,1.4298,1.4298,1.4298,1.4298,1.4298,1.4298,1.4298,1.4298,1.4298,1.4298,1.4298,1.4298,1.4262,1.4183,1.3984,1.387,1.3767,1.3363,1.3175,1.3091,1.288,1.2759,1.2705,1.2705,1.2705,1.2705,1.2705,1.2705,1.2705,1.2705,1.2705,1.2705,1.279,1.279,1.2705,1.279,1.279,1.279,1.2705,1.279,1.279,1.279,1.2741,1.2614,1.2352,1.2085,1.1824,1.155,1.1401,1.126,1.1186,1.126,1.126,1.1111,1.1111,1.1111,1.1111,1.1111,1.1111,1.1111,1.1111,1.1111,1.1111,1.1111,1.1111,1.1111,1.1111,1.1111,1.1111,1.1111,1.1111,1.1111,1.126,1.1335,0.5383,0.5906,0.6416,0.6416,0.6611,0.6769,0.0,0.0,0.0,0.0,0.0,0.0,0.6945,0.0,0.0,0.0,0.0,0.0,0.0,0.0,0.0,0.0,0.0,1.4298,0.0,1.4298,1.4298,1.4298,1.4298,1.4298,1.4298,1.4183,1.4117,1.4117,1.4117,1.4177,1.4298,1.4298,1.4298,1.4298,1.4298,1.4298,1.4298,1.4298,1.4298,1.4298,1.4298,1.4226,1.4117,1.4117,1.3972,1.3743,1.3604,1.3465,1.332,1.3037,1.2928,1.291,1.2753,1.2705,1.2705,1.2705,1.2705,1.2705,1.2705,1.2705,1.2705,1.2705,1.2705,1.2705,1.2705,1.2705,1.2705,1.2705,1.2705,1.2705,1.2705,1.2705,1.2705,1.2875,1.2693,1.2481,1.2508,1.2079,1.1697,1.1629,1.1444,1.126,1.126,1.126,1.1186,1.1111,1.1111,1.1111,1.1111,1.1111,1.1111,1.1111,1.1111,1.1111,1.1111,1.1111,1.1111,1.1111,1.1111,1.1111,1.1111,1.1111,1.1186,1.126,1.126,1.1335,0.5183,0.5827,0.6416,0.6416,0.6641,0.6872,0.0,0.0,0.0,0.0,0.0,0.0,0.0,0.0,0.0,0.0,0.0,0.0,0.0,0.0,0.0,0.0,0.0,0.0,1.4177,1.4177,1.4177,1.4177,1.4177,1.4177,1.4177,1.3966,1.3845,1.3845,1.3845,1.3954,1.4177,1.422,1.4238,1.4238,1.4195,1.4201,1.4238,1.4195,1.4177,1.4177,1.4177,0.0,1.3845,1.3845,1.3586,1.3181,1.3139,1.2976,1.2765,1.2723,1.2705,1.2705,1.2705,1.2705,1.2705,1.2705,1.2705,1.2705,1.2705,1.2705,1.2705,1.2705,1.2705,1.2705,1.2705,1.2705,1.2705,1.2705,1.2705,1.2705,1.2705,1.2705,1.279,1.2966,1.2698,1.2456,1.2628,1.2104,1.1588,1.1827,1.1392,1.1186,1.1335,1.1186,1.1111,1.1111,1.1111,1.1111,1.1111,1.1111,1.1111,1.1111,1.1111,1.1111,1.1111,1.1111,1.1111,1.1111,1.1111,1.1111,1.1111,1.1111,1.126,1.1409,1.126,1.126,0.5474,0.5967,0.6416,0.6416,0.6781,0.7282,0.0,0.0,0.0,0.0,0.0,0.0,0.0,0.0,0.0,0.0,0.0,0.0,0.0,0.0,0.0,0.0,0.0,1.3634,1.3634,1.3634,1.3634,1.3634,1.3634,1.3634,1.3634,1.3598,1.3574,1.3574,1.3574,1.3592,1.3634,1.3851,1.3966,1.3966,1.3743,1.3755,1.396,1.3737,1.3634,1.3634,0.0,1.361,1.3574,1.3574,1.3525,1.3435,1.3212,1.3097,1.3031,1.2789,1.2705,1.2705,1.2705,1.2705,1.2705,1.2705,1.2705,1.2705,1.2705,1.2705,1.2705,1.2705,1.2705,1.2705,1.2705,1.2705,1.2705,1.2705,1.2705,1.2705,1.2705,1.2705,1.2705,1.279,1.2668,1.2644,1.2729,1.221,1.186,1.186,1.1437,1.1111,1.1111,1.1111,1.1111,1.1111,1.1111,1.1111,1.1111,1.1111,1.1111,1.1111,1.1111,1.1111,1.1111,1.1111,1.1111,1.1111,1.1111,1.1111,1.1111,1.126,1.1335,1.1409,1.1558,1.1632,0.5206,0.582,0.6553,0.6778,0.7205,0.7733,0.0,0.0,0.0,0.0,0.0,0.0,0.0,0.0,0.0,0.0,0.0,0.0,0.0,0.0,0.0,0.0,0.0,1.3568,1.3713,1.3598,1.3574,1.3719,1.3725,1.3725,1.3725,1.3592,1.3513,1.3513,1.3381,1.323,1.3079,1.3344,1.3556,1.3694,1.3574,1.3574,1.3688,1.3568,1.3513,1.3513,0.0,1.3435,1.3302,1.3302,1.3212,1.3067,1.2946,1.2898,1.288,1.2753,1.2705,1.2705,1.2705,1.2705,1.2705,1.2705,1.2705,1.2705,1.2705,1.2705,1.2705,1.2705,1.2705,1.2705,1.2705,1.2705,1.2705,1.2705,1.2705,1.2705,1.2705,1.2705,1.2705,1.2705,1.2705,1.2705,1.2705,1.227,1.192,1.192,1.1455,1.1111,1.1111,1.1111,1.1111,1.1111,1.1111,1.1111,1.1111,1.1111,1.1111,1.1111,1.1111,1.1111,1.1111,1.1111,1.1111,1.1111,1.1186,1.126,1.126,1.1335,1.1484,1.1558,1.1558,1.1558,0.5189,0.5881,0.6833,0.0,0.0,0.0,0.0,0.0,0.0,0.0,0.0,0.0,0.0,0.0,0.0,0.0,0.0,0.0,0.0,0.0,1.3809,1.355,1.3513,1.3592,1.3797,1.3634,1.3598,1.3797,1.3815,1.3815,1.3815,1.3622,1.3483,1.3423,1.329,1.3085,1.2807,1.3019,1.3224,1.3423,1.3357,1.3363,1.3423,1.3357,1.3326,1.3326,1.3326,1.3212,1.3025,1.3025,1.2898,1.2711,1.2777,1.2801,1.2801,1.2801,1.2759,1.2705,1.2705,1.2705,1.2705,1.2705,1.2705,1.2705,1.2705,1.2705,1.2705,1.2705,1.2705,1.2705,1.2705,1.2705,1.2705,1.2705,1.2705,1.2705,1.2705,1.2705,1.2705,1.2705,1.2705,1.2687,1.262,1.2228,1.1902,1.1842,1.1419,1.1111,1.1111,1.1111,1.1111,1.1111,1.1111,1.1111,1.1111,1.1111,1.1111,1.1111,1.1111,1.1111,1.1111,1.1111,1.1111,1.1111,1.126,1.1335,1.1335,1.1409,1.1484,1.1632,1.1484,1.1409,0.6045,0.6522,0.7241,0.8033,0.0,0.0,0.0,0.0,0.0,0.0,0.0,0.0,0.0,0.0,0.0,0.0,0.0,0.0,0.0,0.0,1.3809,1.355,1.3513,1.3519,1.3544,1.3525,1.3519,1.3544,1.3544,1.3544,1.3544,1.3525,1.3405,1.3157,1.3369,1.3363,1.3097,1.3115,1.3133,1.3151,1.2886,1.2898,1.3145,1.288,1.2765,1.2765,1.2765,1.2753,1.2735,1.2735,1.2723,1.2729,1.2988,1.3097,1.3097,1.3097,1.2928,1.2705,1.2705,1.2705,1.2705,1.2705,1.2705,1.2705,1.2705,1.2705,1.2705,1.2705,1.2705,1.2705,1.2705,1.2705,1.2705,1.2705,1.2705,1.2705,1.2705,1.2705,1.2705,1.2705,1.2705,1.2626,1.2385,1.2107,1.1842,1.1594,1.1304,1.1111,1.1111,1.1111,1.1111,1.1111,1.1111,1.1111,1.1111,1.1111,1.1111,1.1111,1.1111,1.1111,1.1111,1.1111,1.1111,1.1111,1.1111,1.1111,1.1111,1.1335,1.1409,1.1409,1.1409,1.1409,0.5974,0.6922,0.8061,0.0,0.0,0.0,0.0,0.0,0.0,0.0,0.0,0.0,0.0,0.0,0.0,0.0,0.0,0.0,1.4057,1.4008,1.387,1.3767,1.361,1.358,1.3743,1.361,1.3586,1.3749,1.3761,1.3761,1.3761,1.3761,1.3713,1.361,1.355,1.3465,1.3369,1.3369,1.3369,1.3363,1.2916,1.2759,1.2868,1.2934,1.2868,1.2711,1.2886,1.2868,1.2717,1.2892,1.2964,1.2976,1.3085,1.3127,1.3103,1.2928,1.2795,1.2705,1.2705,1.2705,1.2705,1.2705,1.2705,1.2705,1.2705,1.2705,1.2705,1.2705,1.2705,1.2705,1.2705,1.2705,1.2705,1.2705,1.2705,1.2705,1.2705,1.2705,1.2705,1.2705,1.2705,1.262,1.2361,1.2095,1.1836,1.157,1.1292,1.1111,1.1111,1.1111,1.1111,1.1111,1.1111,1.1111,1.1111,1.1111,1.1111,1.1111,1.1111,1.1111,1.1111,1.1186,1.126,1.1111,1.1335,1.1409,1.126,1.1335,1.1409,1.1409,1.1558,1.1484,0.6415,0.7547,0.8848,0.0,0.0,0.0,0.0,0.0,0.0,0.0,0.0,0.0,0.0,0.0,0.0,0.0,0.0,1.3701,1.422,1.4141,1.4032,1.4032,1.387,1.3833,1.4014,1.387,1.3839,1.4014,1.4032,1.4032,1.4032,1.4032,1.399,1.3912,1.3809,1.3725,1.364,1.3556,1.3556,1.3634,1.3091,1.288,1.2964,1.3157,1.3139,1.297,1.3163,1.3139,1.2976,1.3169,1.3248,1.3236,1.3157,1.3127,1.3103,1.291,1.2783,1.2705,1.2705,1.2705,1.2705,1.2705,1.2705,1.2705,1.2705,1.2705,1.2705,1.2705,1.2705,1.2705,1.2705,1.2705,1.2705,1.2705,1.2705,1.2705,1.2705,1.2705,1.2705,1.2705,1.2705,1.2596,1.2246,1.2041,1.1799,1.1449,1.1232,1.1111,1.1111,1.1111,1.1111,1.1111,1.1111,1.1111,1.1111,1.1186,1.1186,1.1186,1.1186,1.1186,1.1111,1.126,1.126,1.1111,1.1335,1.1409,1.1335,1.1335,1.1409,1.1409,1.1632,1.1632,0.7495,0.8498,0.0,0.0,0.0,0.0,0.0,0.0,0.0,0.0,0.0,0.0,0.0,0.0,0.0,0.0,1.3163,1.3701,1.422,1.4298,1.4298,1.4298,1.4298,1.4298,1.4298,1.4298,1.4298,1.4298,1.4298,1.4298,1.4298,1.4298,1.4177,1.3918,1.4159,1.4171,1.3912,1.3652,1.3652,1.3906,1.3387,1.3266,1.3513,1.3519,1.3519,1.3513,1.3513,1.3513,1.3513,1.3513,1.3513,1.3489,1.3224,1.3127,1.3127,1.3121,1.2946,1.2705,1.2705,1.2705,1.2705,1.2705,1.2705,1.2705,1.2705,1.2705,1.2705,1.2705,1.2705,1.2705,1.2705,1.2705,1.2705,1.2705,1.2705,1.2705,1.2705,1.2705,1.2705,1.2699,1.2699,1.2536,1.2011,1.192,1.1733,1.119,1.1111,1.1111,1.1111,1.1111,1.1111,1.1111,1.1111,1.1111,1.1111,1.1341,1.149,1.1409,1.1409,1.1335,1.1111,1.1111,1.1111,1.1111,1.1111,1.1111,1.1111,1.1335,1.1409,1.1409,1.1632,1.1706,0.7864,0.0,0.0,0.0,0.0,0.0,0.0,0.0,0.0,0.0,0.0,0.0,0.0,0.0,0.0,1.3133,1.3411,1.3701,1.422,1.4298,1.4298,1.4298,1.4298,1.4298,1.4298,1.4298,1.4298,1.4298,1.4298,1.4298,1.4298,1.4298,1.4262,1.4183,1.4256,1.4262,1.4183,1.4105,1.4105,1.4177,1.402,1.3797,1.3519,1.3707,1.3688,1.3513,1.3513,1.3411,1.3242,1.3242,1.335,1.3489,1.3224,1.3127,1.3103,1.2904,1.2777,1.2705,1.2705,1.2705,1.2705,1.2705,1.2705,1.2705,1.2705,1.2705,1.2705,1.2705,1.2705,1.2705,1.2705,1.2705,1.2705,1.2705,1.2705,1.2705,1.2705,1.2705,1.265,1.2469,1.2433,1.2264,1.1739,1.1648,1.1528,1.1166,1.1111,1.1111,1.1111,1.1111,1.1111,1.1111,1.1111,1.1111,1.1111,1.1341,1.1571,1.1719,1.1564,1.1335,1.1335,1.1335,1.126,1.1111,1.126,1.1335,1.1335,1.1335,1.1484,1.1632,1.1855,1.1929,0.8725,0.0,0.0,0.0,0.0,0.0,0.0,0.0,0.0,0.0,0.0,0.0,0.0,0.0,0.0,1.2946,1.3308,1.3628,1.3942,1.3984,1.3984,1.3984,1.3984,1.3984,1.3984,1.3984,1.3984,1.3984,1.3984,1.3984,1.3984,1.3984,1.3984,1.3984,1.3984,1.3936,1.3833,1.3719,1.3664,1.3664,1.3562,1.3399,1.3212,1.3688,1.3761,1.3513,1.3513,1.3423,1.3272,1.3163,1.3218,1.3332,1.3061,1.2958,1.2934,1.2765,1.2705,1.2705,1.2705,1.2705,1.2705,1.2705,1.2705,1.2705,1.2705,1.2705,1.2705,1.2705,1.2705,1.2705,1.2705,1.2705,1.2705,1.2705,1.2705,1.2705,1.2705,1.2705,1.2626,1.2367,1.2312,1.2149,1.1624,1.1534,1.1437,1.1154,1.1111,1.1111,1.1111,1.1111,1.1111,1.1111,1.1111,1.1186,1.1335,1.1335,1.149,1.1793,1.1787,1.1706,1.1558,1.1335,1.1186,1.1111,1.1335,1.1409,1.1409,1.1558,1.1706,1.1855,1.2003,1.215,0.0,0.0,0.0,0.0,0.0,0.0,0.0,0.0,0.0,0.0,0.0,0.0,0.0,0.0,0.0,1.2343,1.2982,1.3441,1.3441,1.3465,1.3477,1.3477,1.3501,1.3507,1.3483,1.3477,1.3471,1.3441,1.3441,1.3441,1.3441,1.3441,1.3441,1.3441,1.3441,1.3326,1.3091,1.2831,1.2705,1.2699,1.2463,1.2457,1.2693,1.3453,1.3652,1.3405,1.3429,1.3429,1.3387,1.3175,1.3085,1.3061,1.2807,1.2705,1.2705,1.2705,1.2705,1.2705,1.2705,1.2705,1.2705,1.2705,1.2705,1.2705,1.2705,1.2705,1.2699,1.2674,1.2668,1.2662,1.2638,1.2632,1.2632,1.2632,1.2668,1.2699,1.2674,1.2668,1.259,1.233,1.2258,1.2083,1.1582,1.1492,1.1407,1.1148,1.1111,1.1111,1.1111,1.1111,1.1111,1.1111,1.1111,1.126,1.1632,1.1409,1.1335,1.1706,1.2077,1.2077,1.1706,1.1335,1.1111,1.1111,1.1335,1.1409,1.1484,1.1855,1.2003,1.2003,1.2224,1.2305,0.0,0.0,0.0,0.0,0.0,0.0,0.0,0.0,0.0,0.0,0.0,0.0,0.0,0.0,1.2626,1.2904,1.291,1.288,1.288,1.3067,1.3212,1.3212,1.3393,1.3435,1.323,1.3212,1.3115,1.2898,1.288,1.288,1.288,1.288,1.288,1.288,1.288,1.285,1.2795,1.2735,1.2705,1.2705,1.2644,1.2542,1.2409,1.2789,1.2819,1.2584,1.2789,1.2759,1.2584,1.2735,1.2795,1.2789,1.2729,1.2705,1.2705,1.2705,1.2705,1.2705,1.2705,1.2705,1.2705,1.2705,1.2705,1.2705,1.2705,1.2705,1.2662,1.2457,1.2397,1.2349,1.2143,1.2089,1.2089,1.2089,1.2403,1.265,1.2439,1.2397,1.2318,1.2059,1.1842,1.1594,1.1262,1.1202,1.1184,1.1123,1.1111,1.1111,1.1111,1.1111,1.1111,1.1111,1.1111,1.1111,1.1186,1.1706,1.2077,1.215,1.1929,1.1781,1.1706,1.1335,1.1192,1.1416,1.149,1.1639,1.1855,1.1929,1.2077,1.2224,1.2305,1.2305,0.0,0.0,0.0,0.0,0.0,0.0,0.0,0.0,0.0,0.0,0.0,0.0,0.0,1.2518,1.2566,1.2711,1.2717,1.2662,1.2536,1.2644,1.2687,1.256,1.2668,1.2699,1.256,1.2548,1.2487,1.2343,1.233,1.233,1.233,1.233,1.233,1.2496,1.2413,1.227,1.2306,1.2143,1.2077,1.1938,1.1938,1.1866,1.1751,1.2149,1.2252,1.2131,1.227,1.2252,1.2137,1.2276,1.233,1.233,1.233,1.233,1.233,1.233,1.233,1.2349,1.2475,1.2433,1.2349,1.2475,1.2433,1.233,1.233,1.233,1.23,1.2161,1.2125,1.2095,1.1956,1.192,1.189,1.1763,1.2041,1.2294,1.2155,1.2125,1.2047,1.1787,1.1624,1.1443,1.116,1.1111,1.1111,1.1111,1.1111,1.1111,1.1111,1.1111,1.126,1.1632,1.1706,1.1706,1.1706,1.2077,1.2305,1.2305,1.1706,1.1558,1.2003,1.1781,1.1713,1.1719,1.1719,1.1787,1.2003,1.2077,1.2224,1.2305,1.2305,1.2305,0.0,0.0,0.0,0.0,0.0,0.0,0.0,0.0,0.0,0.0,0.0,0.0,0.0,1.2343,1.2312,1.2312,1.2457,1.2493,1.2276,1.2282,1.2216,1.1956,1.1962,1.1956,1.1866,1.1854,1.1915,1.1787,1.186,1.186,1.186,1.186,1.186,1.2097,1.186,1.1757,1.1692,1.1538,1.1341,1.1111,1.1111,1.1111,1.1129,1.1576,1.1781,1.1787,1.1836,1.1854,1.186,1.1902,1.192,1.192,1.192,1.192,1.192,1.192,1.192,1.1956,1.2168,1.2107,1.1956,1.2174,1.2095,1.192,1.192,1.192,1.1914,1.1866,1.1854,1.1842,1.1793,1.1781,1.1727,1.151,1.1624,1.1793,1.1842,1.1854,1.1793,1.1576,1.1492,1.1383,1.1148,1.1111,1.1111,1.1111,1.1111,1.1111,1.1111,1.1186,1.1558,1.2224,1.2305,1.2305,1.2305,1.2305,1.2305,1.2305,1.1706,1.1632,1.2305,1.2305,1.2231,1.1948,1.1948,1.2016,1.2077,1.2231,1.2305,1.2305,1.2305,1.2305,0.0,0.0,0.0,0.0,0.0,0.0,0.0,0.0,0.0,0.0,0.0,0.0,1.265,1.2637,1.2566,1.2312,1.2155,1.2011,1.198,1.2168,1.2216,1.1956,1.2282,1.2245,1.163,1.1893,1.1864,1.1464,1.1596,1.1746,1.1746,1.1596,1.1446,1.1521,1.1295,1.1202,1.1166,1.1166,1.1148,1.1111,1.1111,1.1111,1.1111,1.1184,1.122,1.1232,1.1479,1.1582,1.16,1.183,1.192,1.192,1.192,1.192,1.192,1.192,1.192,1.1926,1.1962,1.195,1.1926,1.1962,1.195,1.192,1.192,1.192,1.1872,1.1648,1.1582,1.1528,1.128,1.122,1.1214,1.1178,1.1196,1.1286,1.1534,1.1582,1.1576,1.154,1.1335,1.1154,1.1117,1.1111,1.1111,1.1111,1.1111,1.1111,1.1111,1.1706,1.215,1.2298,1.2305,1.2305,1.2305,1.2305,1.2305,1.2305,1.2224,1.2157,1.2305,1.2305,1.2305,1.2231,1.2231,1.2231,1.2224,1.2298,1.2305,1.2305,1.2305,1.2305,0.0,0.0,0.0,0.0,0.0,0.0,0.0,0.0,0.0,0.0,0.0,1.2574,1.3024,1.3043,1.2878,1.2788,1.2523,1.2312,1.2161,1.224,1.2216,1.1956,1.2103,1.2111,1.1725,1.1843,1.1796,1.1577,1.1632,1.1706,1.1706,1.1484,1.1484,1.1558,1.126,1.1186,1.126,1.1186,1.1111,1.1111,1.1111,1.1111,1.1111,1.1111,1.1111,1.1117,1.1244,1.1298,1.1304,1.1419,1.1467,1.1467,1.1467,1.1467,1.1467,1.1467,1.1467,1.1492,1.1648,1.16,1.1492,1.1655,1.1594,1.1467,1.1467,1.1467,1.1443,1.1329,1.1298,1.1268,1.1141,1.1111,1.1111,1.1111,1.1111,1.1141,1.1268,1.1298,1.1298,1.1298,1.1196,1.1111,1.1111,1.1111,1.1111,1.1111,1.1484,1.1781,1.1781,1.2077,1.2305,1.2305,1.2305,1.2305,1.2305,1.2305,1.2305,1.2305,1.2305,1.2305,1.2305,1.2305,1.2305,1.2305,1.2305,1.2305,1.2305,1.2305,1.2305,1.2305,1.2305,1.2305,0.0,0.0,0.0,0.0,0.0,0.0,0.0,0.0,0.0,0.0,0.0,1.229,1.2975,1.3029,1.2933,1.2918,1.2819,1.2704,1.2425,1.2456,1.2401,1.214,1.2043,1.1976,1.1868,1.192,1.1872,1.1651,1.1702,1.1789,1.1787,1.1558,1.1596,1.1896,1.1446,1.1372,1.1596,1.1297,1.1186,1.1111,1.1111,1.1111,1.1111,1.1111,1.1111,1.1111,1.1111,1.1111,1.1111,1.1111,1.1111,1.1111,1.1111,1.1111,1.1111,1.1111,1.1111,1.1141,1.1353,1.1286,1.1148,1.1359,1.128,1.1111,1.1111,1.1111,1.1111,1.1111,1.1111,1.1111,1.1111,1.1111,1.1111,1.1111,1.1111,1.1111,1.1111,1.1111,1.1111,1.1111,1.1111,1.1111,1.1111,1.1111,1.1111,1.1111,1.1781,1.2305,1.2305,1.2305,1.2305,1.2305,1.2305,1.2305,1.2305,1.2305,1.2305,1.2305,1.2305,1.2305,1.2305,1.2305,1.2305,1.2305,1.2305,1.2305,1.2305,1.2305,1.2305,1.2305,1.2305,1.2305,0.0,0.0,0.0,0.0,0.0,0.0,0.0,0.0,0.0,0.0,1.2539,1.2318,1.2385,1.2405,1.246,1.2485,1.2826,1.2915,1.2643,1.2866,1.2934,1.2661,1.2562,1.2299,1.1952,1.2152,1.2101,1.1428,1.1815,1.2075,1.2016,1.1781,1.1915,1.2433,1.1928,1.1846,1.2132,1.1621,1.126,1.1111,1.1111,1.1111,1.1111,1.1111,1.1111,1.1111,1.1111,1.1111,1.1111,1.1111,1.1111,1.1111,1.1111,1.1111,1.1111,1.1111,1.1111,1.1111,1.1129,1.1123,1.1111,1.1129,1.1123,1.1111,1.1111,1.1111,1.1111,1.1111,1.1111,1.1111,1.1111,1.1111,1.1111,1.1111,1.1111,1.1111,1.1111,1.1111,1.1111,1.1111,1.1111,1.1111,1.1111,1.1111,1.1111,1.1111,1.1781,1.2305,1.2305,1.2305,1.2305,1.2305,1.2305,1.2305,1.2305,1.2305,1.2305,1.2305,1.2305,1.2305,1.2305,1.2305,1.2305,1.2305,1.2305,1.2305,1.2305,1.2305,1.2305,1.2305,1.2305,1.2305,0.0,0.0,0.0,0.0,0.0,0.0,0.0,0.0,0.0,0.0,1.2411,1.2043,1.213,1.2161,1.2143,1.217,1.2113,1.21,1.1939,1.2261,1.2399,1.2299,1.2435,1.2457,1.2254,1.2305,1.2181,1.1768,1.1906,1.184,1.1616,1.1455,1.1436,1.1618,1.123,1.1016,1.0978,1.1118,1.1004,1.0864,1.1181,1.1186,1.1111,1.1111,1.1111,1.1111,1.1111,1.1111,1.1111,1.1111,1.1111,1.1111,1.1111,1.1111,1.1111,1.1111,1.1111,1.1111,1.1111,1.1111,1.1111,1.1111,1.1111,1.1111,1.1111,1.1111,1.1111,1.1111,1.1111,1.1111,1.1111,1.1111,1.1111,1.126,1.1186,1.1111,1.126,1.1186,1.1111,1.1111,1.1111,1.1111,1.1111,1.1111,1.126,1.1781,1.215,1.2305,1.2305,1.2305,1.2305,1.2305,1.2305,1.2305,1.2305,1.2305,1.2305,1.2305,1.2305,1.2305,1.2305,1.2305,1.2305,1.2305,1.2305,1.2305,1.2305,1.2305,1.2305,1.2305,1.2305,1.2305,0.0,0.0,0.0,0.0,0.0,0.0,0.0,0.0,0.0,0.0,1.2184,1.1776,1.1917,1.1769,1.1677,1.1762,1.1741,1.1653,1.1579,1.1827,1.2088,1.2088,1.2082,1.2139,1.211,1.2084,1.1957,1.1545,1.1604,0.0,1.1306,1.1155,1.1011,1.1011,1.0906,1.0766,1.0471,1.0713,1.0799,1.0663,1.0906,1.0991,1.0846,1.0846,1.0846,1.0852,1.0942,1.1033,1.1111,1.1111,1.1111,1.1111,1.1111,1.1111,1.1111,1.1111,1.1111,1.1111,1.1111,1.1111,1.1111,1.1111,1.1111,1.1111,1.1186,1.1186,1.1111,1.1186,1.1186,1.1111,1.1111,1.1186,1.126,1.1484,1.1335,1.126,1.1409,1.126,1.1111,1.1111,1.1111,1.1111,1.1111,1.1111,1.1335,1.215,1.2305,1.2305,1.2305,1.2305,1.2305,1.2305,1.2305,1.2305,1.2305,1.2305,1.2305,1.2305,1.2305,1.2305,1.2305,1.2305,1.2305,1.2305,1.2305,1.2305,1.2305,1.2305,1.2305,1.2305,1.2305,1.2305,0.0,0.0,0.0,0.0,0.0,0.0,0.0,0.0,0.0,0.0,1.1783,1.1445,1.1866,1.139,1.1041,1.131,1.1637,1.1759,1.1533,1.1728,1.1996,1.1996,1.1663,1.1488,1.1566,1.1566,1.1294,1.0811,1.1057,1.116,1.1073,1.0992,1.0854,1.0861,1.1198,1.1205,1.0861,1.066,1.0591,1.0591,1.0396,1.0327,1.0333,1.0333,1.0333,1.0345,1.0598,1.0858,1.1099,1.1105,1.1111,1.1111,1.1111,1.1111,1.1111,1.1111,1.1111,1.1111,1.1111,1.1111,1.1111,1.1111,1.1111,1.1111,1.1335,1.126,1.1186,1.1416,1.1267,1.1111,1.1111,1.126,1.1484,1.1632,1.1639,1.1496,1.149,1.1267,1.1111,1.1111,1.1111,1.1111,1.1111,1.1111,1.1409,1.215,1.2305,1.2305,1.2305,1.2305,1.2305,1.2305,1.2305,1.2305,1.2305,1.2305,1.2305,1.2305,1.2305,1.2305,1.2305,1.2305,1.2305,1.2305,1.2305,1.2305,1.2305,1.2305,1.2305,1.2305,1.2305,1.2305,0.5634,0.0,0.0,0.0,0.0,0.0,0.0,0.0,0.0,1.1846,1.1775,1.1609,1.2086,1.2011,1.1731,1.1124,1.0971,1.0922,1.0856,1.1109,1.1295,1.1295,1.1401,1.1405,1.1481,1.1405,1.1286,0.0,1.0988,1.0976,1.075,1.0672,1.0607,1.0477,1.0418,1.0358,1.0282,1.0413,1.0514,1.0447,1.071,1.0736,1.0541,1.0541,1.0541,1.0541,1.0475,1.0657,1.1064,1.1107,1.1111,1.1111,1.1111,1.1111,1.1111,1.1111,1.1111,1.1111,1.1111,1.1111,1.1111,1.1111,1.1111,1.1111,1.1186,1.126,1.1341,1.126,1.1186,1.1111,1.1341,1.1409,1.1484,1.1793,1.1645,1.1639,1.2009,1.1558,1.1111,1.1111,1.1111,1.126,1.1855,1.2003,1.2003,1.2305,1.2305,1.2305,1.2305,1.2305,1.2305,1.2305,1.2305,1.2305,1.2305,1.2305,1.2305,1.2305,1.2305,1.2305,1.2305,1.2305,1.2305,1.2305,1.2305,1.2305,1.2305,1.2305,1.2305,1.2305,1.2305,1.2305,0.0,0.0,0.0,0.0,0.0,0.0,0.0,0.9824,0.0,0.0,1.1435,1.144,1.2105,1.2016,1.1638,1.1233,1.084,1.0581,1.0591,1.0701,1.0815,1.0815,1.0962,1.1062,1.1062,1.1062,1.0995,1.0822,1.0815,1.0742,1.0504,1.0498,1.0364,1.0174,1.0047,1.0047,1.011,1.0212,1.0295,1.0223,1.052,1.0536,1.0269,1.0336,1.0336,1.0275,1.0251,1.0392,1.0551,1.082,1.0985,1.1111,1.1111,1.1111,1.1111,1.1111,1.1111,1.1111,1.1111,1.1111,1.1111,1.1186,1.126,1.126,1.1335,1.1335,1.1341,1.1267,1.1267,1.1341,1.1713,1.1713,1.1713,1.2016,1.1942,1.1935,1.2231,1.1929,1.1484,1.1186,1.1335,1.1781,1.2231,1.2305,1.2305,1.2305,1.2305,1.2305,1.2305,1.2305,1.2305,1.2305,1.2305,1.2305,1.2305,1.2305,1.2305,1.2305,1.2305,1.2305,1.2305,1.2305,1.2305,1.2305,1.2305,1.2305,1.2305,1.2305,1.2305,1.2305,1.2305,1.2305,0.0,0.0,0.0,0.0,0.8546,0.0,1.0247,0.9796,0.9345,0.0,1.0671,1.0901,1.1766,1.1416,1.1099,1.1357,1.089,1.0465,1.0505,1.0524,1.0524,1.0524,1.0524,1.0524,1.0524,1.0557,1.0514,1.0514,1.0604,1.0498,1.0371,1.0308,1.0244,1.0047,1.0047,1.0117,1.0308,1.0117,1.0047,1.0047,1.0047,0.9989,0.9868,0.9989,0.9926,0.9881,1.0058,1.011,1.0025,1.0393,1.0722,1.1021,1.1027,1.1027,1.1027,1.1057,1.1069,1.1069,1.1099,1.1111,1.1186,1.1335,1.1409,1.1484,1.1632,1.1409,1.1186,1.1416,1.149,1.1639,1.2157,1.209,1.1948,1.2231,1.2305,1.2305,1.2305,1.2305,1.2077,1.1335,1.1781,1.2305,1.2305,1.2305,1.2305,1.2305,1.2305,1.2305,1.2305,1.2305,1.2305,1.2305,1.2305,1.2305,1.2305,1.2305,1.2305,1.2305,1.2305,1.2305,1.2305,1.2305,1.2305,1.2305,1.2305,1.2305,1.2305,1.2305,1.2305,1.2305,1.2305,1.2305,0.8857,0.9271,0.9815,0.9235,0.0,0.0,0.9023,0.8783,0.8774,0.0,0.9189,0.9317,1.0459,1.0531,1.0507,1.0655,1.0506,1.0247,0.9942,0.9853,0.9853,0.9853,0.9853,0.9853,0.9853,1.0067,1.02,1.02,1.0421,1.0561,1.0561,1.0561,1.0498,1.0498,1.0308,1.0371,1.0561,1.0371,1.0301,1.0498,1.0498,1.0364,1.018,1.0047,1.0047,1.018,0.9982,1.0133,1.0533,1.0323,1.0337,1.0484,1.0624,1.0624,1.0508,1.0719,1.087,1.1046,1.1113,1.1335,1.1558,1.1409,1.1484,1.1632,1.1484,1.1484,1.1558,1.149,1.1645,1.1874,1.2231,1.209,1.1948,1.2231,1.2305,1.2305,1.2305,1.2305,1.2231,1.2077,1.2157,1.2305,1.2305,1.2305,1.2305,1.2305,1.2305,1.2305,1.2305,1.2305,1.2305,1.2305,1.2305,1.2305,1.2305,1.2305,1.2305,1.2305,1.2305,1.2305,1.2305,1.2305,1.2305,1.2305,1.2305,1.2305,1.2305,1.2305,1.2305,1.2305,1.2305,1.2305,0.9925,1.0146,1.0505,1.01,0.0,0.0,0.0,0.9087,0.8968,0.9575,0.9065,0.8907,1.0036,0.0,0.9453,0.9588,0.9702,0.9591,0.9197,0.9479,0.9686,0.9686,0.9686,0.9686,0.9686,0.9813,0.99,0.99,1.004,1.012,1.012,1.012,1.0187,1.0334,1.0272,1.0345,1.0624,1.0498,1.0434,1.0434,1.0561,1.0498,1.0301,1.0301,1.0301,1.0301,1.0117,1.0136,1.0257,1.0257,1.0083,0.9965,1.0299,1.0396,1.0345,1.0478,1.0597,1.0827,1.082,1.1006,1.1215,1.1215,1.1454,1.1649,1.1503,1.1598,1.1706,1.1713,1.1868,1.2016,1.2231,1.2231,1.2157,1.2305,1.2305,1.2305,1.2305,1.2305,1.2305,1.2305,1.2305,1.2305,1.2305,1.2305,1.2305,1.2305,1.2305,1.2305,1.2305,1.2305,1.2305,1.2305,1.2305,1.2305,1.2305,1.2305,1.2305,1.2305,1.2305,1.2305,1.2305,1.2305,1.2305,1.2305,1.2305,1.2017,1.1436,1.1436,1.1436,1.145,1.2031,1.2305,0.0,0.0,0.0,0.0,0.0,1.0031,0.0,0.0,0.0,0.9861,0.9205,0.0,0.0,0.0,0.0,0.0,0.0,0.0,0.0,0.8978,0.0,0.9451,0.9455,0.9432,0.9432,0.9432,0.9499,0.9673,0.9579,0.9566,0.9679,0.9686,0.9793,1.0027,1.0033,1.0147,1.045,1.051,1.0412,1.0286,1.0471,1.0498,1.0371,1.0498,1.0498,1.0364,1.0308,1.0117,0.9996,1.018,0.9989,0.9713,1.0147,1.0244,1.0188,1.0305,1.0461,1.0604,1.0654,1.0742,1.0942,1.108,1.1305,1.1501,1.1571,1.1624,1.1704,1.1924,1.2037,1.2077,1.2224,1.2305,1.2305,1.2305,1.2305,1.2305,1.2305,1.2305,1.2305,1.2305,1.2305,1.2305,1.2305,1.2305,1.2305,1.2305,1.2305,1.2305,1.2305,1.2305,1.2305,1.2305,1.2305,1.2305,1.2305,1.2305,1.2305,1.2305,1.2305,1.2305,1.2305,1.2305,1.2305,1.2305,1.2078,1.1772,1.1365,1.087,1.0624,1.0645,1.153,1.1971,0.0,0.0,0.0,0.0,1.1122,0.0,0.0,0.0,0.9474,0.8839,0.0,0.0,0.0,0.0,0.0,0.0,0.0,0.0,0.8315,0.8003,0.8003,0.8669,0.8607,0.8524,0.8524,0.8524,0.8844,0.9626,0.9198,0.9138,0.9653,0.9686,0.9699,0.9733,0.9733,0.9746,0.978,1.004,1.0167,1.0113,1.0434,1.0561,1.0561,1.0371,1.0434,1.0561,1.018,1.0238,1.0498,1.018,1.011,1.0251,1.0251,1.0149,0.9922,1.029,1.0511,1.0676,1.0791,1.1011,1.1286,1.1149,1.1099,1.1201,1.1339,1.1543,1.1631,1.1846,1.2104,1.2305,1.2298,1.2305,1.2305,1.2305,1.2305,1.2305,1.2305,1.2305,1.2305,1.2305,1.2305,1.2305,1.2305,1.2305,1.2305,1.2305,1.2305,1.2305,1.2305,1.2305,1.2305,1.2305,1.2305,1.2305,1.2305,1.2305,1.2305,1.2305,1.2305,1.2305,1.2305,1.2305,1.2305,1.2305,1.1289,1.1881,1.4079,1.1732,1.0624,1.0624,1.0759,1.0762,0.0,0.0,0.0,0.0,0.0,0.0,1.0008,0.0,0.9646,0.0,0.0,0.0,0.0,0.0,0.0,0.0,0.7793,0.0,0.0,0.0,0.7915,0.0,0.0,0.0,0.8343,0.8216,0.8343,0.8884,0.8537,0.8484,0.8905,0.9085,0.9252,0.9419,0.9426,0.9512,0.9686,0.98,0.9866,0.9866,0.9993,1.014,1.0301,1.0239,1.0338,1.0561,1.0434,1.0364,1.0434,1.0371,1.0238,1.0174,1.0364,1.0244,0.9938,1.0116,1.029,1.0497,1.0483,1.0725,1.0949,1.1049,1.1042,1.1075,1.1308,1.1447,1.1471,1.161,1.1824,1.2091,1.2258,1.2305,1.2305,1.2305,1.2305,1.2305,1.2305,1.2305,1.2305,1.2305,1.2305,1.2305,1.2305,1.2305,1.2305,1.2305,1.2305,1.2305,1.2305,1.2305,1.2305,1.2305,1.2305,1.2305,1.2305,1.2305,1.2305,1.2305,1.3954,1.4522,1.3639,1.3598,1.3598,1.3598,1.1632,1.1919,1.4506,1.1856,1.0624,1.0624,1.0624,1.0624,1.1927,0.0,0.0,0.0,0.0,0.0,0.0,0.0,0.0,0.0,0.0,0.0,0.0,0.0,0.0,0.0,0.0,0.0,0.0,0.0,0.0,0.0,0.0,0.0,0.0,0.8016,0.7888,0.8216,0.7822,0.7802,0.8343,0.8571,0.8824,0.9057,0.9064,0.9225,0.9446,0.9519,0.9559,0.9559,0.9646,0.9793,1.0,1.008,1.0234,1.0441,1.0521,1.0498,1.0371,1.0498,1.0364,1.018,1.0498,1.0434,1.018,1.018,1.0238,1.0364,1.0364,1.0498,1.0658,1.0808,1.0875,1.0915,1.1129,1.1243,1.1309,1.1309,1.1516,1.1797,1.2004,1.2098,1.2144,1.2144,1.2098,1.2104,1.2265,1.2305,1.2305,1.2305,1.2305,1.2305,1.2305,1.2305,1.2305,1.2305,1.2305,1.2305,1.2305,1.2305,1.2305,1.2305,1.2305,1.2305,1.2305,1.2305,1.2449,1.288,1.5002,1.5725,1.4561,1.4515,1.4515,1.4515,1.2658,1.2597,1.4506,1.1856,1.0624,1.0624,1.0989,1.1108,0.0,0.0,0.0,1.1267,0.0,0.0,0.0,0.0,1.0577,0.0,0.0,0.0,0.0,0.0,0.0,0.0,0.0,0.0,0.0,0.0,0.0,0.0,0.0,0.0,0.0,0.7821,0.7495,0.0,0.7128,0.7141,0.831,0.8434,0.8524,0.8811,0.8824,0.8824,0.8838,0.9057,0.9196,0.9203,0.9546,0.9686,0.9706,0.9987,1.012,1.0147,1.0246,1.0434,1.0561,1.0371,1.0434,1.0561,1.0561,1.0561,1.0561,1.0561,1.0561,1.0561,1.0561,1.0561,1.0624,1.0631,1.0638,1.0638,1.0651,1.0782,1.1009,1.1009,1.1216,1.1443,1.145,1.159,1.1737,1.1737,1.159,1.161,1.2178,1.2305,1.2305,1.2305,1.2305,1.2305,1.2305,1.2305,1.2305,1.2305,1.2305,1.2305,1.2305,1.2305,1.2305,1.2305,1.2305,1.2305,1.2305,1.2305,1.2928,1.4309,1.4529,1.4561,1.4515,1.4515,1.4515,1.4515,1.4396,1.4396,1.4506,1.1856,1.0624,1.0624,1.1841,1.2451,0.0,0.0,1.1545,1.1407,0.0,0.0,0.0,0.0,0.0,0.0,0.0,0.0,0.0,0.0,0.0,0.0,0.0,0.0,0.0,0.0,0.0,0.0,0.0,0.0,0.0,0.0,0.0,0.0,0.7358,0.0,0.8049,0.845,0.8704,0.8804,0.8804,0.8804,0.8804,0.8905,0.8958,0.8958,0.9058,0.9205,0.9392,0.9435,0.9646,0.9846,1.008,1.0206,1.0281,1.0412,1.0561,1.0624,1.0624,1.0624,1.0624,1.0624,1.0624,1.0624,1.0624,1.0624,1.0624,1.0624,1.0624,1.0624,1.0624,1.0628,1.0708,1.0708,1.0915,1.1142,1.1142,1.1329,1.1523,1.1523,1.1376,1.1289,1.1483,1.163,1.1724,1.1724,1.1724,1.1844,1.2238,1.2305,1.2305,1.2305,1.2305,1.2305,1.2305,1.2305,1.2305,1.2305,1.161,1.1867,1.3623,1.376,1.3996,1.4483,1.4515,1.4515,1.4515,1.4515,1.4515,1.4515,1.4515,1.4515,1.4515,1.3588,1.3147,1.3216,1.364,1.3502,1.1819,1.1769,0.0,1.1628,1.1426,0.0,1.0592,0.0,1.0789,0.0,0.0,0.0,0.0,0.0,0.0,0.0,0.0,0.0,0.0,0.7669,0.0,0.0,0.0,0.0,0.0,0.0,0.7262,0.7321,0.7031,0.0,0.0,0.829,0.8591,0.8798,0.8804,0.8804,0.8804,0.8804,0.8804,0.8804,0.8804,0.8905,0.9037,0.9137,0.9345,0.9546,0.9833,1.002,1.0134,1.0321,1.0461,1.0624,1.0624,1.0624,1.0624,1.0624,1.0624,1.0624,1.0624,1.0624,1.0624,1.0624,1.0624,1.0624,1.0624,1.0624,1.0624,1.0624,1.0695,1.0835,1.0835,1.0982,1.1122,1.1122,1.1022,1.0955,1.1062,1.1361,1.1616,1.1755,1.1798,1.1885,1.2289,1.236,1.2368,1.2311,1.2305,1.2305,1.2305,1.1937,1.2026,1.2981,1.2425,1.2658,1.4387,1.4515,1.4515,1.4515,1.4515,1.4515,1.4515,1.4515,1.4515,1.4515,1.4515,1.4515,1.4515,1.4515,1.4515,1.4515,1.4515,1.4198]},{"header":{"parameterUnit":"m.s-1","parameterCategory":1,"la1":30.6,"la2":29.2853,"lo1":-89.7004,"lo2":-87.6739,"dy":0.0162,"dx":0.0183,"nx":112,"ny":82,"refTime":"2024-07-10T18:00:00:Z","depth":0,"parameterNumber":3,"parameterNumberName":"V-component_of_WINDS"},"data":[0.0,0.0,0.0,0.0,0.0,0.0,0.0,0.0,0.0,0.0,0.0,0.0,0.0,0.0,0.0,0.0,0.0,0.0,0.0,0.0,0.0,0.0,0.0,0.0,0.0,0.0,0.0,0.0,0.0,0.0,0.0,0.0,0.0,0.0,0.0,0.0,0.0,0.0,0.0,0.0,0.0,0.0,0.0,0.0,0.0,0.0,0.0,0.0,0.0,0.0,0.0,0.0,0.0,0.0,0.0,0.0,0.0,0.0,0.0,0.0,0.0,0.0,0.0,0.0,0.0,0.0,0.0,0.0,0.0,0.0,0.0,0.0,0.0,0.0,0.0,0.0,0.0,0.0,0.0,0.0,0.0,0.0,0.0,0.0,0.0,0.0,0.0,0.0,0.0,0.0,-1.7454,-1.8901,-2.2263,-2.4358,-2.4321,-2.36,-2.1791,-1.8566,0.0,0.0,0.0,0.0,0.0,0.0,0.0,0.0,0.0,0.0,0.0,0.0,0.0,0.0,0.0,0.0,0.0,0.0,0.0,0.0,0.0,0.0,0.0,0.0,0.0,0.0,0.0,0.0,0.0,0.0,0.0,0.0,0.0,0.0,0.0,0.0,0.0,0.0,0.0,0.0,0.0,0.0,0.0,0.0,0.0,0.0,0.0,0.0,0.0,0.0,0.0,0.0,0.0,0.0,0.0,0.0,0.0,0.0,0.0,0.0,0.0,0.0,0.0,0.0,0.0,0.0,0.0,0.0,0.0,0.0,0.0,0.0,0.0,0.0,0.0,0.0,0.0,0.0,0.0,0.0,0.0,0.0,0.0,0.0,0.0,0.0,0.0,0.0,0.0,0.0,0.0,0.0,0.0,0.0,0.0,0.0,0.0,0.0,0.0,0.0,0.0,0.0,0.0,0.0,-1.7649,-2.2004,-2.3634,-2.4358,-2.4321,-2.351,-2.1892,-1.9212,0.0,0.0,0.0,0.0,0.0,0.0,0.0,0.0,0.0,0.0,0.0,0.0,0.0,0.0,0.0,0.0,0.0,0.0,0.0,0.0,0.0,0.0,0.0,0.0,0.0,0.0,0.0,0.0,0.0,0.0,0.0,0.0,0.0,0.0,0.0,0.0,0.0,0.0,0.0,0.0,0.0,0.0,0.0,0.0,0.0,0.0,0.0,0.0,0.0,0.0,0.0,0.0,0.0,0.0,0.0,0.0,0.0,0.0,0.0,0.0,0.0,0.0,0.0,0.0,0.0,0.0,0.0,0.0,0.0,0.0,0.0,0.0,0.0,0.0,0.0,0.0,0.0,0.0,0.0,0.0,0.0,0.0,0.0,0.0,0.0,0.0,0.0,0.0,0.0,0.0,0.0,0.0,0.0,0.0,0.0,0.0,0.0,0.0,0.0,0.0,0.0,0.0,0.0,-1.6978,-1.8883,-2.3358,-2.4118,-2.4284,-2.4247,-2.3474,-2.193,-1.9423,-1.6949,0.0,0.0,0.0,0.0,0.0,0.0,0.0,0.0,0.0,0.0,0.0,0.0,0.0,0.0,0.0,0.0,0.0,0.0,0.0,0.0,0.0,0.0,0.0,0.0,0.0,0.0,0.0,0.0,0.0,0.0,0.0,0.0,0.0,0.0,0.0,0.0,0.0,0.0,0.0,0.0,0.0,0.0,0.0,0.0,0.0,0.0,0.0,0.0,0.0,0.0,0.0,0.0,0.0,0.0,0.0,0.0,0.0,0.0,0.0,0.0,0.0,0.0,0.0,0.0,0.0,0.0,0.0,0.0,0.0,0.0,0.0,0.0,0.0,0.0,0.0,0.0,0.0,0.0,0.0,0.0,0.0,0.0,0.0,0.0,0.0,0.0,0.0,0.0,0.0,0.0,0.0,0.0,0.0,0.0,0.0,0.0,0.0,0.0,0.0,0.0,0.0,0.0,-1.9096,-2.0522,-2.4024,-2.4284,-2.421,-2.421,-2.3106,-2.1435,-1.913,-1.6419,0.0,0.0,0.0,0.0,0.0,0.0,0.0,0.0,0.0,0.0,0.0,0.0,0.0,0.0,0.0,0.0,0.0,0.0,0.0,0.0,0.0,0.0,0.0,0.0,0.0,0.0,0.0,0.0,0.0,0.0,0.0,0.0,0.0,0.0,0.0,0.0,0.0,0.0,0.0,0.0,0.0,0.0,0.0,0.0,0.0,0.0,0.0,0.0,0.0,0.0,0.0,0.0,0.0,0.0,0.0,0.0,0.0,0.0,0.0,0.0,0.0,0.0,0.0,0.0,0.0,0.0,0.0,0.0,0.0,0.0,0.0,0.0,0.0,0.0,0.0,0.0,0.0,0.0,0.0,0.0,0.0,0.0,0.0,0.0,0.0,0.0,0.0,0.0,0.0,0.0,0.0,0.0,0.0,0.0,0.0,0.0,0.0,0.0,0.0,0.0,0.0,0.0,-1.9855,-2.2425,-2.4208,-2.4339,-2.4266,-2.421,-2.2023,-1.992,-1.8099,-1.4968,0.0,0.0,0.0,0.0,0.0,0.0,0.0,0.0,0.0,0.0,0.0,0.0,0.0,0.0,0.0,0.0,0.0,0.0,0.0,0.0,0.0,0.0,0.0,0.0,0.0,0.0,0.0,0.0,0.0,0.0,0.0,0.0,0.0,0.0,0.0,0.0,0.0,0.0,0.0,0.0,0.0,0.0,0.0,0.0,0.0,0.0,0.0,0.0,0.0,0.0,0.0,0.0,0.0,0.0,0.0,0.0,0.0,0.0,0.0,0.0,0.0,0.0,0.0,0.0,0.0,0.0,0.0,0.0,0.0,0.0,0.0,0.0,0.0,0.0,0.0,0.0,0.0,0.0,0.0,0.0,0.0,0.0,0.0,0.0,0.0,0.0,0.0,0.0,0.0,0.0,0.0,0.0,0.0,0.0,0.0,0.0,0.0,0.0,0.0,0.0,0.0,0.0,-1.8955,-2.1387,0.0,-2.4266,-2.4228,-2.419,-2.2868,-2.0891,-1.8146,0.0,0.0,0.0,0.0,0.0,0.0,0.0,0.0,0.0,0.0,0.0,0.0,0.0,0.0,0.0,0.0,0.0,0.0,0.0,0.0,0.0,0.0,0.0,0.0,0.0,0.0,0.0,0.0,0.0,0.0,0.0,0.0,0.0,0.0,0.0,0.0,0.0,0.0,0.0,0.0,0.0,0.0,0.0,0.0,0.0,0.0,0.0,0.0,0.0,0.0,0.0,0.0,0.0,0.0,0.0,0.0,0.0,0.0,0.0,0.0,0.0,0.0,0.0,0.0,0.0,0.0,0.0,0.0,0.0,0.0,0.0,0.0,0.0,0.0,0.0,0.0,0.0,0.0,0.0,0.0,0.0,0.0,0.0,0.0,0.0,0.0,0.0,0.0,0.0,0.0,0.0,0.0,0.0,0.0,0.0,0.0,0.0,0.0,0.0,0.0,0.0,0.0,-1.6531,-1.882,-2.1244,0.0,-2.4247,-2.419,-2.419,-2.274,-2.0615,-1.7796,0.0,0.0,0.0,0.0,0.0,0.0,0.0,0.0,0.0,0.0,0.0,0.0,0.0,0.0,0.0,0.0,0.0,0.0,0.0,0.0,0.0,0.0,0.0,0.0,0.0,0.0,0.0,0.0,0.0,0.0,0.0,0.0,0.0,0.0,0.0,0.0,0.0,0.0,0.0,0.0,0.0,0.0,0.0,0.0,0.0,0.0,0.0,0.0,0.0,0.0,0.0,0.0,0.0,0.0,0.0,0.0,0.0,0.0,0.0,0.0,0.0,0.0,0.0,0.0,0.0,0.0,0.0,0.0,0.0,0.0,0.0,0.0,0.0,0.0,0.0,0.0,0.0,0.0,0.0,0.0,0.0,0.0,0.0,0.0,0.0,0.0,0.0,0.0,0.0,0.0,0.0,0.0,0.0,0.0,0.0,0.0,0.0,0.0,0.0,0.0,0.0,0.0,-1.6675,-1.9825,-2.2511,-2.4137,-2.4247,-2.4192,-2.4192,-2.1213,-1.8599,0.0,0.0,0.0,0.0,0.0,0.0,0.0,0.0,0.0,0.0,0.0,0.0,0.0,0.0,0.0,0.0,0.0,0.0,0.0,0.0,0.0,0.0,0.0,0.0,0.0,0.0,0.0,0.0,0.0,0.0,0.0,0.0,0.0,0.0,0.0,0.0,0.0,0.0,0.0,0.0,0.0,0.0,0.0,0.0,0.0,0.0,0.0,0.0,0.0,0.0,0.0,0.0,0.0,0.0,0.0,0.0,0.0,0.0,0.0,0.0,0.0,0.0,0.0,0.0,0.0,0.0,0.0,0.0,0.0,0.0,0.0,0.0,0.0,0.0,0.0,0.0,0.0,0.0,0.0,0.0,0.0,0.0,0.0,0.0,0.0,0.0,0.0,0.0,0.0,0.0,0.0,0.0,0.0,0.0,0.0,0.0,0.0,0.0,0.0,0.0,0.0,0.0,0.0,-1.6611,-1.9764,-2.2461,-2.4063,-2.421,-2.419,-2.419,-2.228,-1.9845,-1.698,0.0,0.0,0.0,0.0,0.0,0.0,0.0,0.0,0.0,0.0,0.0,0.0,0.0,0.0,0.0,0.0,0.0,0.0,0.0,0.0,0.0,0.0,0.0,0.0,0.0,0.0,0.0,0.0,0.0,0.0,0.0,0.0,0.0,0.0,0.0,0.0,0.0,0.0,0.0,0.0,0.0,0.0,0.0,0.0,0.0,0.0,0.0,0.0,0.0,0.0,0.0,0.0,0.0,0.0,0.0,0.0,0.0,0.0,0.0,0.0,0.0,0.0,0.0,0.0,0.0,0.0,0.0,0.0,0.0,0.0,0.0,0.0,0.0,0.0,0.0,0.0,0.0,0.0,0.0,0.0,0.0,0.0,0.0,0.0,0.0,0.0,0.0,0.0,0.0,0.0,0.0,0.0,0.0,0.0,0.0,0.0,0.0,0.0,0.0,0.0,0.0,0.0,-1.7063,-2.0211,-2.2776,-2.4062,-2.4209,-2.419,-2.419,-2.2721,-2.0505,-1.7468,0.0,0.0,0.0,0.0,0.0,0.0,0.0,0.0,0.0,0.0,0.0,0.0,0.0,0.0,0.0,0.0,0.0,0.0,0.0,0.0,0.0,0.0,0.0,0.0,0.0,0.0,0.0,0.0,0.0,0.0,0.0,0.0,0.0,0.0,0.0,0.0,0.0,0.0,0.0,0.0,0.0,0.0,0.0,0.0,0.0,0.0,0.0,0.0,0.0,0.0,0.0,0.0,0.0,0.0,0.0,0.0,0.0,0.0,0.0,0.0,0.0,0.0,0.0,0.0,0.0,0.0,0.0,0.0,0.0,0.0,0.0,0.0,0.0,0.0,0.0,0.0,0.0,0.0,0.0,0.0,0.0,0.0,0.0,0.0,0.0,0.0,0.0,0.0,0.0,0.0,0.0,0.0,0.0,0.0,0.0,0.0,0.0,0.0,0.0,0.0,0.0,0.0,-1.7778,-2.0927,-2.3309,-2.4116,-2.419,-2.419,-2.419,-2.2776,-2.0833,-1.8267,0.0,0.0,0.0,0.0,0.0,0.0,0.0,0.0,0.0,0.0,0.0,0.0,0.0,0.0,0.0,0.0,0.0,0.0,0.0,0.0,0.0,0.0,0.0,0.0,0.0,0.0,0.0,0.0,0.0,0.0,0.0,0.0,0.0,0.0,0.0,0.0,0.0,0.0,0.0,0.0,0.0,0.0,0.0,0.0,0.0,0.0,0.0,0.0,0.0,0.0,0.0,0.0,0.0,0.0,0.0,0.0,0.0,0.0,0.0,0.0,-1.4742,-1.405,0.0,0.0,0.0,0.0,0.0,0.0,0.0,0.0,0.0,0.0,0.0,0.0,0.0,0.0,0.0,0.0,0.0,0.0,0.0,0.0,0.0,0.0,0.0,0.0,0.0,0.0,0.0,0.0,0.0,0.0,0.0,0.0,0.0,0.0,0.0,0.0,0.0,0.0,0.0,0.0,-1.7718,-2.0875,-2.3309,-2.4116,-2.419,-2.419,-2.419,-2.3309,-2.1694,-1.9182,-1.7296,0.0,0.0,0.0,0.0,0.0,0.0,0.0,0.0,0.0,0.0,0.0,0.0,0.0,0.0,0.0,0.0,0.0,0.0,0.0,0.0,0.0,0.0,0.0,0.0,0.0,0.0,0.0,0.0,0.0,0.0,0.0,0.0,0.0,0.0,0.0,0.0,0.0,0.0,0.0,0.0,0.0,0.0,0.0,0.0,0.0,0.0,0.0,0.0,0.0,0.0,0.0,0.0,0.0,0.0,0.0,0.0,0.0,0.0,0.0,-1.7472,-1.6392,0.0,0.0,0.0,0.0,0.0,0.0,0.0,0.0,0.0,0.0,0.0,0.0,0.0,0.0,0.0,0.0,0.0,0.0,0.0,0.0,0.0,0.0,0.0,0.0,0.0,0.0,0.0,0.0,0.0,0.0,0.0,0.0,0.0,0.0,0.0,0.0,0.0,0.0,0.0,0.0,-1.8943,-2.1733,-2.3749,-2.4153,-2.419,-2.419,-2.419,-2.3474,-2.2299,-2.0609,-1.8566,0.0,0.0,0.0,0.0,0.0,0.0,0.0,0.0,0.0,0.0,0.0,0.0,0.0,0.0,0.0,0.0,0.0,0.0,0.0,0.0,0.0,0.0,0.0,0.0,0.0,0.0,0.0,0.0,0.0,0.0,0.0,0.0,0.0,0.0,0.0,0.0,0.0,0.0,0.0,0.0,0.0,0.0,0.0,0.0,0.0,0.0,0.0,0.0,0.0,0.0,0.0,0.0,0.0,-2.3981,-2.343,-2.3397,-2.2683,-2.3058,-2.4077,-2.0261,-1.9164,-1.9908,-1.7778,0.0,0.0,0.0,0.0,0.0,0.0,0.0,0.0,0.0,0.0,0.0,0.0,0.0,0.0,0.0,0.0,0.0,0.0,0.0,0.0,0.0,0.0,-2.1129,-2.194,-2.2139,-2.1435,-1.8886,0.0,0.0,0.0,0.0,0.0,0.0,0.0,0.0,0.0,0.0,0.0,-2.0468,-2.274,-2.419,-2.419,-2.419,-2.419,-2.419,-2.3602,-2.2868,-2.2061,-1.995,-1.8262,0.0,0.0,0.0,0.0,0.0,0.0,0.0,0.0,0.0,0.0,0.0,0.0,0.0,0.0,0.0,0.0,0.0,0.0,0.0,0.0,0.0,0.0,0.0,0.0,0.0,0.0,0.0,0.0,0.0,0.0,0.0,0.0,-1.3728,-1.4447,0.0,0.0,0.0,0.0,0.0,0.0,0.0,0.0,0.0,0.0,0.0,0.0,0.0,-1.8508,-2.0451,-2.4471,-2.6753,-2.728,-2.5805,-2.5076,-2.5076,-2.4971,-2.496,-2.5014,-2.4406,0.0,-2.227,-2.1036,0.0,0.0,0.0,0.0,0.0,0.0,0.0,0.0,0.0,0.0,0.0,0.0,0.0,0.0,0.0,0.0,0.0,0.0,0.0,0.0,0.0,0.0,-2.4902,-2.5706,-2.5889,-2.5779,-2.5379,-2.1261,-1.7593,-1.7361,-1.676,-1.5966,0.0,0.0,0.0,0.0,0.0,0.0,-2.117,-2.3014,-2.419,-2.419,-2.419,-2.419,-2.419,-2.4098,-2.3694,-2.2905,-2.1877,-2.0299,-1.8041,-1.6853,0.0,0.0,0.0,0.0,0.0,0.0,0.0,0.0,0.0,0.0,0.0,0.0,0.0,0.0,0.0,0.0,0.0,0.0,0.0,0.0,0.0,0.0,0.0,0.0,0.0,0.0,0.0,0.0,0.0,-1.4009,-1.5624,-1.6817,-1.6677,-1.6308,0.0,0.0,0.0,0.0,0.0,0.0,0.0,0.0,0.0,-2.327,-2.1814,-2.2601,-2.5981,-2.8895,-2.9913,-2.9035,-2.8368,-2.8052,-2.8052,-2.7914,-2.7853,-2.7792,-2.8187,-2.7949,-2.7103,-2.4523,-2.2349,-2.0591,0.0,0.0,0.0,0.0,-1.8932,-2.0336,-2.0752,-2.2936,-2.5529,-2.5328,0.0,0.0,0.0,0.0,0.0,0.0,0.0,-2.2628,-2.3509,-2.4904,-2.6282,-2.7071,-2.6924,-2.6722,-2.7181,-2.488,-2.2337,-2.0987,-2.0074,-1.8815,-1.6615,-1.7041,0.0,0.0,0.0,-2.109,-2.2209,-2.3418,-2.419,-2.419,-2.419,-2.419,-2.419,-2.419,-2.4043,-2.3694,-2.2923,-2.1987,-2.0904,-1.8742,-1.6688,0.0,0.0,0.0,0.0,0.0,0.0,0.0,0.0,0.0,0.0,0.0,0.0,0.0,0.0,0.0,0.0,0.0,0.0,0.0,0.0,0.0,0.0,0.0,0.0,0.0,0.0,0.0,0.0,-1.601,-1.7871,-1.9202,-1.9556,-1.9363,0.0,0.0,0.0,0.0,0.0,0.0,-2.2206,-2.3692,-2.5232,-2.6841,-2.553,-2.651,-3.0071,-3.1633,-3.1826,-3.0703,-3.0703,-3.0703,-3.0685,-3.0536,-3.1087,-3.2197,-3.2712,-3.2693,-3.2001,-2.8142,-2.592,-2.476,-2.3193,-2.2182,-2.1812,-2.3783,-2.6658,-2.9439,-2.8246,-2.7824,-2.7658,-2.6594,-2.563,-2.4522,-2.2518,0.0,0.0,0.0,0.0,-2.5479,-2.6389,-2.7071,-2.7677,-2.8264,-2.7952,-2.764,-2.8026,-2.7475,-2.6319,-2.4318,-2.3437,-2.2116,-1.9256,-1.9767,0.0,0.0,0.0,-2.2391,-2.3199,-2.3823,-2.419,-2.419,-2.419,-2.419,-2.419,-2.419,-2.419,-2.419,-2.3639,-2.3217,-2.3015,-2.0666,-1.8684,-1.7238,0.0,0.0,0.0,0.0,0.0,0.0,0.0,0.0,0.0,0.0,0.0,0.0,0.0,0.0,0.0,0.0,0.0,0.0,0.0,0.0,0.0,0.0,0.0,0.0,0.0,0.0,0.0,0.0,0.0,-2.1645,-2.2387,0.0,0.0,0.0,0.0,-2.2744,-2.4208,-2.5437,-2.6262,-2.7789,-2.8649,-2.8754,-2.9404,-2.9878,-3.0106,-3.1633,-3.2353,-3.2283,-3.2283,-3.2283,-3.2283,-3.2283,-3.4609,-3.8628,-3.8674,-3.7829,-3.6088,-3.1934,-3.0513,-3.0803,-2.9185,-2.9465,-3.0913,-3.257,-3.2375,-3.1256,-3.1182,-3.1146,-3.1219,-3.1659,-2.9898,-2.7438,-2.6536,-2.6279,0.0,0.0,-2.749,-2.8938,-2.9751,-2.9989,-3.0026,-3.0063,-3.0044,-2.9824,-2.9085,-2.8319,-2.7475,-2.6594,-2.6392,-2.5823,-2.4116,0.0,-2.3676,-2.2887,-2.2868,-2.3235,-2.4043,-2.4171,-2.419,-2.419,-2.419,-2.419,-2.419,-2.419,-2.419,-2.419,-2.4153,-2.3804,-2.3015,-2.2832,-2.1272,-1.8096,-1.7128,0.0,0.0,0.0,0.0,0.0,0.0,0.0,0.0,0.0,0.0,0.0,0.0,0.0,0.0,0.0,0.0,0.0,0.0,0.0,0.0,0.0,0.0,0.0,0.0,0.0,0.0,0.0,0.0,-2.4673,-2.5181,0.0,-2.5647,-2.5665,-2.577,-2.6051,-2.7052,-2.7999,-2.8825,-3.0317,-3.137,-3.1844,-3.23,-3.2546,-3.2546,-3.4407,-3.5355,-3.5375,-3.6266,-3.6705,-3.6705,-3.6705,-3.7584,-3.9101,-3.9101,-3.8377,-3.7087,-3.5487,-3.4073,-3.2889,-3.232,-3.2449,-3.2926,-3.2797,-3.2412,-3.1861,-3.1513,-3.1384,-3.1421,-3.1604,-3.0613,-2.9292,-2.8998,-2.8925,-2.8925,-2.8925,-2.9696,-3.0613,-3.0889,-3.0962,-3.0962,-3.0962,-3.0962,-3.0742,-2.9953,-2.9549,-2.9108,-2.8301,-2.731,-2.6245,-2.5144,-2.5401,-2.5474,-2.4667,-2.4997,-2.5419,-2.5713,-2.5291,-2.498,-2.498,-2.4502,-2.419,-2.419,-2.419,-2.419,-2.419,-2.419,-2.4061,-2.3786,-2.2776,-2.1418,-1.9677,-1.7844,-1.557,0.0,0.0,0.0,0.0,0.0,0.0,0.0,0.0,0.0,0.0,0.0,0.0,0.0,0.0,0.0,0.0,0.0,0.0,0.0,0.0,0.0,0.0,0.0,0.0,0.0,0.0,-2.4486,-2.6672,-2.7426,-2.7877,-2.807,-2.8579,-2.8983,-2.9263,-3.0018,-3.0808,-3.1616,-3.2616,-3.3389,-3.388,-3.4565,-3.4758,-3.4407,-3.611,-3.739,-3.8176,-3.913,-3.9697,-3.9918,-3.9361,-3.9305,-3.964,-3.9268,-3.8692,-3.8024,-3.7563,-3.6491,-3.5082,-3.4568,-3.4376,-3.4321,-3.3972,-3.355,-3.3054,-3.243,-3.221,-3.221,-3.221,-3.1659,-3.1017,-3.1017,-3.1017,-3.1017,-3.1017,-3.1586,-3.221,-3.221,-3.221,-3.2137,-3.1861,-3.1806,-3.1586,-3.0779,-3.0595,-3.0448,-2.9916,-2.8521,-2.7163,-2.6337,-2.6649,-2.6722,-2.5915,-2.6264,-2.6612,-2.6612,-2.6135,-2.5695,-2.5439,-2.4905,-2.4483,-2.4226,-2.419,-2.419,-2.419,-2.419,-2.419,-2.419,-2.2923,-2.1804,-2.096,-1.8284,-1.6101,-1.4499,0.0,0.0,0.0,0.0,0.0,0.0,0.0,0.0,0.0,0.0,0.0,0.0,0.0,0.0,0.0,0.0,0.0,0.0,0.0,0.0,0.0,0.0,0.0,-2.2142,-2.4949,-2.7218,-2.7642,-2.918,-2.9878,-2.9123,-3.0422,-3.1633,-3.2441,-3.3178,-3.395,-3.4758,-3.4793,-3.4811,-3.4828,-3.6306,-3.6605,-3.5548,-3.657,-3.8249,-4.0508,-4.0563,-4.0976,-4.1571,-3.9937,-3.9807,-4.0802,-3.9658,-3.9175,-3.912,-3.8266,-3.785,-3.7618,-3.6131,-3.5514,-3.5642,-3.6688,-3.6211,-3.4917,-3.4156,-3.388,-3.388,-3.388,-3.3348,-3.2724,-3.2687,-3.2687,-3.2687,-3.2651,-3.3201,-3.3807,-3.3807,-3.3807,-3.3605,-3.2834,-3.2651,-3.243,-3.1604,-3.1439,-3.1421,-3.1384,-3.0136,-2.8833,-2.8007,-2.7842,-2.7567,-2.6796,-2.6686,0.0,-2.6686,-2.6649,-2.6337,-2.5568,-2.5439,-2.509,-2.43,-2.4208,-2.419,-2.419,-2.419,-2.419,-2.419,-2.3437,-2.263,-2.1821,-1.8629,-1.6963,-1.6963,0.0,0.0,0.0,0.0,0.0,0.0,0.0,0.0,0.0,0.0,0.0,0.0,0.0,0.0,0.0,0.0,0.0,0.0,0.0,0.0,0.0,-2.4458,-2.6007,-2.5661,-2.7397,-2.9105,-3.0103,-3.1142,-3.1897,-3.2178,-3.3143,-3.4056,-3.4811,-3.5074,-3.5759,-3.7093,-3.7163,-3.7444,-3.8023,-3.873,-3.894,-3.8655,-3.8663,-3.9301,-4.0526,-4.2228,-4.2576,-4.1673,-4.1533,-4.1664,-4.1924,-4.1219,-4.0903,-4.0884,-4.0592,-3.9795,-3.8535,-3.6823,-3.6121,-3.6119,-3.6413,-3.6266,-3.5917,-3.5679,-3.5605,-3.5605,-3.5605,-3.5459,-3.5165,-3.4541,-3.433,-3.4202,-3.3642,-3.3623,-3.3807,-3.3807,-3.3807,-3.3733,-3.3532,-3.3476,-3.3256,-3.2449,-3.2284,-3.21,-3.1513,-3.1035,-3.0485,-2.9677,-2.9072,-2.8613,-2.8374,-2.8333,0.0,-2.8333,-2.7842,-2.7383,-2.7145,-2.6101,-2.5311,-2.509,-2.4538,-2.419,-2.419,-2.419,-2.419,-2.419,-2.3437,-2.263,-2.1821,-1.9711,-1.8647,0.0,0.0,0.0,0.0,0.0,0.0,0.0,0.0,0.0,0.0,0.0,0.0,0.0,0.0,0.0,0.0,0.0,0.0,0.0,0.0,0.0,0.0,-2.7742,-2.9628,-2.9826,-3.0399,-3.1217,-3.2302,-3.2966,-3.3723,-3.4641,-3.5291,-3.5969,-3.6724,-3.7093,-3.7532,-3.8076,-3.8571,-3.8921,-3.908,-4.0098,-4.0506,-4.0164,-4.0238,-4.0619,-4.128,-4.2654,-4.3065,-4.2673,-4.2582,-4.2575,-4.2537,-4.1869,-4.159,-4.159,-4.1549,-4.0974,-3.9973,0.0,0.0,0.0,0.0,-3.6798,-3.6743,-3.6413,-3.6303,-3.6303,-3.6303,-3.6303,-3.6211,-3.5697,-3.555,-3.5385,-3.4541,-3.4302,-3.4229,-3.3899,-3.3807,-3.3807,-3.3807,-3.3807,-3.3678,-3.3201,-3.3109,-3.2963,-3.2485,-3.2137,0.0,-3.1292,-3.0265,-2.9402,-2.9049,-2.8994,-2.8994,-2.8994,-2.8594,-2.8172,-2.7842,-2.6943,-2.6137,-2.5458,-2.498,0.0,0.0,0.0,-2.4043,-2.3712,-2.3254,0.0,0.0,0.0,0.0,0.0,0.0,0.0,0.0,-1.8794,-1.8592,0.0,0.0,0.0,0.0,0.0,0.0,0.0,0.0,0.0,0.0,0.0,0.0,0.0,0.0,0.0,0.0,-3.087,-3.313,-3.4082,-3.375,-3.3612,-3.4228,-3.4712,-3.5401,-3.6435,-3.6976,-3.7567,-3.8304,-3.9065,-3.9247,-3.8614,0.0,0.0,0.0,0.0,-4.1542,-4.0816,-4.156,-4.2136,-4.2478,-4.2478,-4.3028,-4.3986,-4.3262,-4.2946,-4.289,-4.2184,-4.1869,-4.1869,-4.1869,-4.1772,-4.1545,-4.0449,-3.9503,-3.8681,-3.7941,-3.7624,-3.7514,-3.6817,0.0,0.0,-3.656,-3.656,-3.6541,-3.645,-3.6431,-3.6266,-3.5404,-3.5137,-3.4972,-3.4266,-3.4009,-3.3935,-3.3935,-3.3862,-3.3807,-3.3807,-3.3807,-3.3807,-3.3807,-3.322,-3.2724,-3.2632,-3.1274,-2.9971,-2.9232,-2.9049,-2.8994,-2.8994,-2.8994,-2.8741,-2.8007,0.0,0.0,-2.5788,-2.5513,-2.5109,-2.4373,-2.4245,-2.3878,-2.3162,-2.3144,-2.2795,-2.2097,-2.2078,-2.2409,-2.3144,-2.3144,-2.3144,-2.307,-2.0152,-1.9913,0.0,0.0,0.0,0.0,0.0,0.0,0.0,0.0,0.0,0.0,0.0,0.0,0.0,0.0,0.0,-3.1507,-3.3327,-3.5018,-3.6497,-3.6916,-3.6693,-3.5607,-3.6342,-3.7058,-3.7273,-3.8245,-3.9182,-3.9972,-4.0488,-4.0918,-4.138,-4.1923,-4.2172,-4.2009,-4.2722,-4.299,-4.2825,-4.3332,-4.3587,-4.3651,-4.3651,0.0,-4.3986,-4.3838,-4.3763,-4.3763,-4.3596,-4.354,-4.354,-4.354,-4.312,-4.2304,-4.0652,-3.9479,-3.8701,-3.8524,-3.8469,-3.845,-3.8285,-3.8248,-3.8248,-3.8248,-3.8248,-3.812,-3.7441,-3.7257,0.0,-3.6285,-3.6046,-3.6009,-3.5862,-3.5293,-3.4752,-3.4752,-3.4284,-3.3807,-3.3807,-3.3807,-3.3807,-3.3807,-3.3678,-3.3366,-3.2724,-3.1274,-3.0155,-2.9989,-2.9439,-2.8994,-2.8994,-2.8994,-2.8938,-2.8796,-2.8191,-2.7658,-2.7346,-2.6156,-2.5329,-2.5182,-2.4557,-2.4135,-2.3969,-2.3969,-2.3896,-2.3731,-2.3731,-2.3804,-2.3969,-2.3969,-2.3969,-2.3951,-2.3327,-2.2923,0.0,0.0,0.0,0.0,0.0,0.0,0.0,0.0,0.0,0.0,0.0,-2.7268,-2.8352,0.0,-3.3412,-3.4518,-3.6224,-3.7768,-3.8744,-3.9276,-3.914,-3.7972,-3.8536,-3.9158,-3.9517,-3.9925,-4.0501,-4.1279,-4.1522,-4.1747,-4.1926,-4.2667,-4.2923,-4.2575,-4.3306,-4.3693,-4.3693,-4.3892,-4.4005,-4.4005,-4.4005,-4.4005,-4.4005,-4.4005,-4.4005,-4.4005,-4.4005,-4.4005,-4.4005,-4.4005,-4.3491,-4.2631,-4.1706,-4.0529,-3.9357,-3.9326,-3.9056,-3.8707,-3.8707,-3.8707,-3.8707,-3.8707,-3.8707,-3.8615,-3.8212,-3.8102,-3.7918,-3.7129,-3.689,-3.6798,-3.6395,-3.5973,-3.5661,-3.5661,-3.5018,-3.4412,-3.4412,-3.4082,-3.3807,-3.3807,-3.3807,-3.3678,-3.3275,-3.221,-3.1127,-3.032,-2.9861,-2.9475,-2.9049,-2.8994,-2.8994,-2.8994,-2.865,-2.8246,-2.7824,-2.634,-2.5403,-2.5403,-2.463,-2.419,-2.419,-2.419,-2.419,-2.419,-2.419,-2.419,-2.419,-2.419,-2.419,-2.4208,-2.4612,-2.4575,0.0,0.0,0.0,0.0,0.0,0.0,0.0,0.0,-2.5115,-2.6896,-2.9031,-3.1043,-3.247,-3.4624,-3.6463,-3.7281,-3.8958,-4.032,-4.0799,-4.1139,-4.1167,-4.0756,-4.0781,-4.1069,-4.1651,-4.1553,-4.1697,-4.2266,-4.24,-4.2309,-4.205,-4.2988,-4.3247,-4.2654,-4.3508,-4.4005,-4.4005,-4.4005,-4.4005,-4.4005,-4.4005,-4.4005,-4.4005,-4.4005,-4.4005,-4.4005,-4.4005,-4.4005,-4.4005,-4.4005,-4.3584,-4.2928,-4.2946,-4.1946,-4.0492,-4.0239,-3.9717,-3.9166,-3.9166,-3.9056,-3.8927,-3.8927,-3.8836,-3.8707,-3.8707,-3.8707,-3.856,-3.7918,-3.7716,-3.7569,-3.6927,-3.6652,-3.6523,-3.6523,-3.5881,-3.5192,-3.5027,-3.4504,-3.399,-3.3825,-3.3807,-3.3807,-3.3807,-3.3256,-3.2357,-3.0889,-3.054,-3.0136,-2.9347,-2.9214,-2.9159,-2.9012,-2.8994,-2.8686,-2.786,-2.6594,-2.5807,-2.5642,-2.5035,-2.4686,-2.4686,-2.4686,-2.4686,-2.4686,-2.4667,-2.4667,-2.4667,-2.4667,-2.4667,-2.4685,-2.5328,-2.555,-2.1562,-2.1702,-2.237,-2.4504,-2.4596,-2.5449,0.0,0.0,-3.0364,-3.2767,-3.4067,-3.5089,-3.598,-3.7541,-3.8971,-3.9844,-4.0762,-4.1672,-4.2426,-4.2563,-4.2811,-4.3491,-4.2636,-4.2035,-4.2127,-4.2414,-4.2625,-4.2716,-4.3069,-4.3246,-4.3208,-4.3656,-4.3886,-4.3794,-4.3918,-4.4005,-4.4005,-4.4005,-4.4005,-4.4005,-4.4005,-4.4005,-4.4005,-4.4005,-4.4005,-4.4005,-4.4005,-4.4005,-4.4005,-4.4005,-4.3949,-4.3844,-4.3799,-4.3212,-4.2273,-4.1396,-4.0956,-4.0836,-4.0836,-4.0359,-3.9772,-3.9772,-3.9276,-3.8707,-3.8707,-3.8707,-3.8689,-3.8597,-3.8579,-3.856,-3.845,-3.79,-3.7349,-3.7349,-3.6743,-3.5936,-3.5155,-3.4917,-3.4642,-3.3935,-3.3807,-3.3807,-3.3807,-3.3733,-3.3366,-3.2485,-3.1715,-3.098,-3.0173,-3.0081,-2.9787,-2.9067,-2.8994,-2.8686,-2.786,-2.764,-2.7218,-2.6521,-2.6454,-2.642,-2.642,-2.642,-2.642,-2.642,-2.6358,-2.6337,-2.6337,-2.6337,-2.6337,-2.6337,-2.6429,-2.608,-2.5911,0.0,0.0,0.0,-2.8957,-3.0033,-3.2451,-3.2823,-3.3208,-3.5237,-3.6686,-3.7838,-3.8692,-4.016,-4.1367,0.0,-4.2463,-4.3113,-4.3448,-4.3095,-4.2927,-4.3262,-4.286,-4.2479,-4.2213,-4.279,-4.2959,-4.2484,-4.3027,-4.3508,-4.3744,-4.3923,-4.4005,-4.4005,-4.4005,-4.4005,-4.4005,-4.4005,-4.4005,-4.4005,-4.4005,-4.4005,-4.4005,-4.4005,-4.4005,-4.4005,-4.4005,-4.4005,-4.4005,-4.4005,-4.4005,-4.4005,-4.3974,-4.3693,-4.3241,-4.2364,-4.1659,-4.1084,-4.0607,-4.0501,-4.0451,-3.9515,-3.9294,-3.9313,-3.8836,-3.8707,-3.8707,-3.8707,-3.8707,-3.8707,-3.8707,-3.845,-3.8193,-3.8193,-3.7569,-3.6762,-3.5936,-3.5367,-3.4752,-3.3972,-3.3807,-3.3807,-3.3807,-3.3807,-3.3697,-3.3348,-3.2614,-3.1806,-3.0999,-3.0485,-2.9898,-2.9085,-2.8994,-2.8847,-2.8539,-2.8062,-2.7658,-2.731,-2.6891,-2.6657,-2.6698,-2.6657,-2.6657,-2.6698,-2.6615,-2.6612,-2.6612,-2.6612,-2.6612,-2.6612,-2.709,-2.7108,-2.8595,0.0,0.0,-3.1262,-3.2637,-3.3807,-3.4253,-3.4959,-3.5887,-3.7113,-3.8469,-3.9584,-3.9974,-4.1367,-4.2463,-4.2463,-4.3336,-4.4005,-4.4005,-4.3318,-4.2872,-4.3095,-4.2946,-4.2594,-4.2083,-4.2953,-4.3229,-4.2419,-4.31,-4.3693,-4.3986,-4.4005,-4.4005,-4.4005,-4.4005,-4.4005,-4.4005,-4.4005,-4.4005,-4.4005,-4.4005,-4.4005,-4.4005,-4.4005,-4.4005,-4.4005,-4.4005,-4.4005,-4.4005,-4.4005,-4.4005,-4.4005,-4.4005,-4.3961,-4.3777,-4.3185,-4.2479,-4.1756,-4.0927,-4.0877,-4.0905,-3.9478,-3.9276,-3.946,-3.8891,-3.8707,-3.8707,-3.8707,-3.8707,-3.8707,-3.8707,-3.8707,-3.8707,-3.8707,-3.8248,-3.7606,-3.6798,-3.6138,-3.5385,-3.4339,-3.4137,-3.4064,-3.3844,-3.3807,-3.3807,-3.3807,-3.3311,-3.2651,-3.1825,-3.0834,-2.9989,-2.9402,-2.9122,-2.8994,-2.8994,-2.8484,-2.8136,-2.8158,-2.7629,-2.7359,-2.7421,-2.738,-2.7359,-2.7421,-2.7359,-2.7316,-2.7295,-2.7316,-2.7316,-2.7295,-2.7882,-2.8158,0.0,0.0,-3.1114,-3.3491,-3.4754,-3.5813,-3.7392,-3.8377,-3.8971,-3.9027,-3.9733,-4.0104,-3.9287,-4.0513,-4.1627,-4.1627,-4.2965,-4.4005,-4.4005,-4.3318,-4.3095,-4.3875,-4.3262,-4.25,-4.1702,-4.3027,-4.367,-4.2853,-4.354,-4.4005,-4.4005,-4.4005,-4.4005,-4.4005,-4.4005,-4.4005,-4.4005,-4.4005,-4.4005,-4.4005,-4.4005,-4.4005,-4.4005,-4.4005,-4.4005,-4.4005,-4.4005,-4.4005,-4.4005,-4.4005,-4.4005,-4.4005,-4.4005,-4.4005,-4.3974,-4.3892,-4.3712,-4.3431,-4.2603,-4.183,-4.1043,-4.0152,-3.935,-3.8726,-3.8707,-3.8707,-3.8707,-3.8707,-3.8707,-3.8707,-3.8707,-3.8707,-3.8707,-3.8707,-3.8689,-3.8432,-3.7624,-3.7452,-3.6927,-3.5265,-3.4954,-3.4715,-3.3935,-3.3807,-3.3807,-3.3807,-3.377,-3.3476,-3.2687,-3.1182,-3.0191,-3.0173,-2.9475,-2.8994,-2.8994,-2.8975,-2.9003,-2.9071,-2.9101,-2.9166,-2.9228,-2.9228,-2.9228,-2.9228,-2.9166,-2.9082,-2.9016,-2.9082,-2.9082,-2.9016,-2.9052,-2.9052,0.0,0.0,-3.3566,-3.6036,-3.7281,-3.8321,-3.9974,-4.0141,-4.0104,-4.0643,-3.9677,-3.899,-3.9807,-3.951,-3.9677,-4.133,-4.2054,-4.2779,-4.3856,-4.3318,-4.2705,-4.2445,-4.2166,0.0,0.0,0.0,0.0,-4.2054,-4.2742,-4.3448,-4.3968,-4.4005,-4.4005,-4.4005,-4.4005,-4.4005,-4.4005,-4.4005,-4.4005,-4.4005,-4.4005,-4.4005,-4.4005,-4.4005,-4.4005,-4.4005,-4.4005,-4.4005,-4.4005,-4.4005,-4.4005,-4.4005,-4.4005,-4.3974,-4.3929,-4.3961,-4.3865,-4.3609,-4.2811,-4.2668,-4.2492,-4.0565,-4.0129,-4.0102,-3.9019,-3.8707,-3.8707,-3.8707,-3.8707,-3.8707,-3.8707,-3.8707,-3.8707,-3.8707,-3.8707,-3.8487,-3.7661,-3.7507,-3.7165,-3.6083,-3.5404,-3.4899,-3.4651,-3.4156,-3.3807,-3.3807,-3.3807,-3.3513,-3.2706,-3.2137,-3.1384,-3.032,-2.9971,-2.9586,-2.9049,-2.8994,-2.904,-2.9108,-2.9112,-2.9197,-2.9302,-2.9262,-2.9262,-2.9302,-2.924,-2.9178,-2.9156,-2.9178,-2.9178,-2.9156,-2.9156,-2.9156,0.0,-3.4903,-3.611,-3.8599,-3.9602,-4.0197,-4.0977,-4.0977,-4.0624,-3.9974,-3.8581,-3.7522,-3.7708,-3.7113,-3.7299,-3.9491,-4.0587,-4.172,-4.3336,-4.3132,-4.2705,-4.2482,-4.2203,-4.1609,0.0,0.0,0.0,-4.1664,-4.2612,-4.3448,-4.3968,-4.4005,-4.4005,-4.4005,-4.4005,-4.4005,-4.4005,-4.4005,-4.4005,-4.4005,-4.4005,-4.4005,-4.4005,-4.4005,-4.4005,-4.4005,-4.4005,-4.4005,-4.4005,-4.4005,-4.4005,-4.4005,-4.4005,-4.3974,-4.3929,-4.3961,-4.3929,-4.3754,-4.2908,-4.2867,-4.2824,-4.067,-4.0294,-4.0432,-3.9111,-3.8707,-3.8707,-3.8707,-3.8707,-3.8707,-3.8707,-3.8707,-3.8707,-3.8707,-3.8707,-3.856,-3.8028,-3.7918,-3.7679,-3.6872,-3.6285,-3.5716,-3.5082,-3.4339,-3.3807,-3.3807,-3.3807,-3.3605,-3.3109,-3.2797,-3.221,-3.1182,-3.0797,-3.0301,-2.9512,-2.9462,-2.9357,-2.9152,-2.9152,-2.9218,-2.9344,-2.9283,-2.9283,-2.9344,-2.9283,-2.9262,-2.924,-2.9262,-2.9262,-2.924,-2.924,-2.924,-3.6147,-3.7429,-3.8655,-4.1051,-4.1627,-4.1404,-4.068,-4.0977,-4.0513,-3.7336,-3.6519,-3.5665,0.0,0.0,-3.4587,-3.6352,-3.8711,-4.0903,-4.2575,-4.2835,-4.3132,0.0,0.0,0.0,0.0,0.0,0.0,-4.172,0.0,-4.3968,-4.4005,-4.4005,-4.4005,-4.4005,-4.4005,-4.4005,-4.4005,-4.4005,-4.4005,-4.4005,-4.4005,-4.4005,-4.4005,-4.4005,-4.4005,-4.4005,-4.4005,-4.4005,-4.4005,-4.4005,-4.4005,-4.4005,-4.4005,-4.4005,-4.4005,-4.3929,-4.3961,-4.3893,-4.3052,-4.2636,-4.223,-4.0646,-4.0086,-3.9863,-3.9019,-3.8762,-3.8762,-3.8707,-3.8707,-3.8707,-3.8707,-3.8707,-3.8707,-3.8707,-3.8707,-3.8707,-3.8707,-3.8707,-3.8469,-3.7698,-3.7544,-3.6964,-3.5284,-3.4376,-3.3844,-3.3807,-3.3807,-3.3807,-3.3807,-3.3128,-3.2669,-3.2614,-3.1916,-3.1127,-3.032,-3.0318,-3.0056,-2.9311,-2.9336,-2.936,-2.9407,-2.9407,-2.9407,-2.9407,-2.9407,-2.9365,-2.9302,-2.9365,-2.9365,-2.9302,-2.9302,-2.932,-3.7986,-3.9547,-4.094,-4.2184,-4.2036,-4.1702,-4.2092,-4.0438,-3.8432,-3.7002,-3.4271,-3.1949,-3.134,0.0,0.0,-3.533,-3.7838,0.0,-4.2482,-4.3318,0.0,-4.315,0.0,-4.2556,-4.1962,-4.2445,0.0,0.0,-4.2872,-4.3373,-4.3968,-4.4005,-4.4005,-4.4005,-4.4005,-4.4005,-4.4005,-4.4005,-4.4005,-4.4005,-4.4005,-4.4005,-4.4005,-4.4005,-4.4005,-4.4005,-4.4005,-4.4005,-4.4005,-4.4005,-4.4005,-4.4005,-4.4005,-4.4005,-4.4005,-4.3974,-4.3942,-4.3892,-4.3732,-4.3595,-4.3352,-4.2271,-4.1875,-4.1503,-4.0042,-3.9588,-3.946,-3.8872,-3.8707,-3.8707,-3.8707,-3.8707,-3.8707,-3.8707,-3.8707,-3.8707,-3.8707,-3.8707,-3.8634,-3.8432,-3.79,-3.6964,-3.5284,-3.4825,-3.4504,-3.3899,-3.3807,-3.3807,-3.3807,-3.3623,-3.3256,-3.2669,-3.243,-3.1997,-3.1219,-3.117,-3.0886,-3.0206,-3.0191,-2.9953,-2.9425,-2.9407,-2.9407,-2.9407,-2.9344,-2.9344,-2.9386,-2.9344,-2.9344,-2.9386,-2.9386,-2.9702,-4.029,-4.1664,-4.276,-4.3206,-4.2723,-4.1869,-4.0884,-3.8952,-3.663,-3.4011,-3.1377,0.0,-2.8589,0.0,0.0,0.0,0.0,0.0,-4.1349,-4.2742,-4.3448,0.0,-4.3336,0.0,-4.2705,-4.3058,-4.3336,0.0,-4.3336,-4.3522,-4.3986,-4.4005,-4.4005,-4.4005,-4.4005,-4.4005,-4.4005,-4.4005,-4.4005,-4.4005,-4.4005,-4.4005,-4.4005,-4.4005,-4.4005,-4.4005,-4.4005,-4.4005,-4.4005,-4.4005,-4.4005,-4.4005,-4.4005,-4.4005,-4.4005,-4.4005,-4.3974,-4.3961,-4.3974,-4.3974,-4.3799,-4.2889,-4.2567,-4.2212,-4.085,-4.022,-3.9866,-3.9381,-3.8995,-3.875,-3.8707,-3.8707,-3.8707,-3.8707,-3.8707,-3.8707,-3.8707,-3.8707,-3.8707,-3.8707,-3.8046,-3.7074,-3.5789,-3.5247,-3.4715,-3.3917,-3.3807,-3.3807,-3.3807,-3.3807,-3.3623,-3.3183,-3.3128,-3.2823,-3.209,-3.2041,-3.1782,-3.108,-3.1047,-3.0887,-3.0485,-3.0466,-3.0299,-2.9946,-2.9885,-2.9718,-2.9407,-2.9365,-2.9365,-2.9407,-2.9407,-2.9834,-4.2519,-4.3466,-4.3968,-4.3875,-4.3076,-4.1516,-3.8432,-3.6686,-3.4457,-3.0002,0.0,-2.7008,-2.5633,-2.6135,-2.7604,-3.0188,0.0,-3.663,-3.9937,-4.1776,-4.3095,-4.3893,-4.4005,-4.4005,-4.4005,-4.4005,-4.4005,-4.4005,-4.4005,-4.4005,-4.4005,-4.4005,-4.4005,-4.4005,-4.4005,-4.4005,-4.4005,-4.4005,-4.4005,-4.4005,-4.4005,-4.4005,-4.4005,-4.4005,-4.4005,-4.4005,-4.4005,-4.4005,-4.4005,-4.4005,-4.4005,-4.4005,-4.4005,-4.4005,-4.4005,-4.4005,-4.4005,-4.4005,-4.4005,-4.4005,-4.3844,-4.305,-4.2765,-4.2585,-4.1613,-4.0817,-4.021,-3.9982,-3.9357,-3.8762,-3.8738,-3.8707,-3.8707,-3.8707,-3.8707,-3.8707,-3.8689,-3.8707,-3.8707,-3.8707,-3.8138,-3.7367,-3.645,-3.5679,-3.4871,-3.3935,-3.3807,-3.3807,-3.3807,-3.3807,-3.3807,-3.3807,-3.3807,-3.3566,-3.2919,-3.2939,-3.2662,-3.1936,-3.1927,-3.1894,-3.1782,-3.1782,-3.1467,-3.0782,-3.0649,-3.0241,-2.9574,-2.9442,-2.9386,-2.9407,-2.9407,-2.989,-4.3355,-4.3893,-4.3838,-4.3169,-4.1349,-3.9231,-3.7336,-3.3658,0.0,0.0,0.0,-2.3964,-2.3685,-2.4872,0.0,-3.0095,0.0,0.0,0.0,0.0,-4.3095,0.0,0.0,0.0,0.0,0.0,0.0,0.0,-4.4005,-4.4005,-4.4005,-4.4005,-4.4005,-4.4005,-4.4005,-4.4005,-4.4005,-4.4005,-4.4005,-4.4005,-4.4005,-4.4005,-4.4005,-4.4005,-4.4005,-4.4005,-4.4005,0.0,-4.4005,-4.4005,-4.4005,-4.4005,-4.4005,-4.4005,-4.4005,-4.4005,-4.4005,-4.4005,-4.4005,-4.4005,-4.3936,-4.373,-4.3661,-4.3513,-4.2604,-4.1728,-4.0885,-4.0173,-3.9357,-3.8719,-3.8707,-3.8707,-3.8719,-3.8762,-3.875,-3.8738,-3.8762,-3.875,-3.8707,-3.8707,-3.8597,-3.8028,-3.6541,-3.6174,-3.555,-3.4027,-3.3807,-3.3807,-3.3807,-3.3807,-3.3807,-3.3807,-3.3842,-3.3839,-3.3769,-3.3845,-3.3568,-3.2818,-3.2785,-3.2488,-3.1819,-3.1782,-3.1727,-3.1578,-3.0884,-3.0476,-3.0392,-2.9659,-2.9344,-2.9407,-2.9407,-3.0206,-4.3169,-4.367,-4.3819,-4.3002,-4.0921,-3.8339,-3.5442,0.0,0.0,0.0,0.0,-2.2442,-2.2033,0.0,0.0,0.0,0.0,0.0,0.0,0.0,0.0,0.0,0.0,0.0,0.0,0.0,0.0,-4.4005,-4.4005,-4.4005,-4.4005,-4.4005,-4.4005,-4.4005,-4.4005,-4.4005,-4.4005,-4.4005,-4.4005,-4.4005,-4.4005,-4.4005,-4.4005,-4.4005,-4.4005,-4.4005,-4.4005,-4.4005,-4.4005,-4.4005,-4.4005,-4.4005,-4.4005,-4.4005,-4.4005,-4.4005,-4.4005,-4.4005,-4.4005,-4.4005,-4.4005,-4.3942,-4.3942,-4.3762,-4.282,-4.2007,-4.1194,-4.0259,-3.9448,-3.884,-3.8738,-3.875,-3.8792,-3.875,-3.8719,-3.8707,-3.875,-3.8719,-3.8707,-3.8707,-3.8707,-3.8322,-3.7129,-3.6578,-3.5862,-3.4614,-3.4082,-3.3807,-3.3807,-3.3815,-3.3842,-3.3842,-3.3921,-3.3972,-3.4049,-3.4074,-3.3957,-3.364,-3.3621,-3.3436,-3.3045,-3.3045,-3.2841,-3.2414,-3.202,-3.1611,-3.1206,-3.0794,-3.0405,-3.0039,-3.0466,-3.1061,-4.2445,-4.3002,-4.3243,-4.224,-4.0141,-3.7299,-3.338,-2.9795,0.0,0.0,0.0,-2.1346,-2.0882,0.0,0.0,0.0,0.0,0.0,0.0,0.0,0.0,0.0,0.0,0.0,0.0,0.0,0.0,-4.4005,-4.4005,-4.4005,-4.4005,-4.4005,-4.4005,-4.4005,-4.4005,-4.4005,-4.4005,-4.4005,-4.4005,-4.4005,-4.4005,-4.4005,-4.4005,-4.4005,-4.4005,-4.4005,-4.4005,-4.4005,-4.4005,-4.4005,-4.4005,-4.4005,-4.4005,-4.4005,-4.4005,-4.4005,-4.4005,-4.4005,-4.4005,-4.4005,-4.3968,-4.3801,-4.3745,-4.3602,-4.281,-4.1971,-4.1123,-4.0283,-3.9538,-3.8939,-3.878,-3.8792,-3.8881,-3.875,-3.8719,-3.8738,-3.8707,-3.8707,-3.8707,-3.8738,-3.8707,-3.8377,-3.7434,-3.6736,-3.5954,-3.4908,-3.4211,-3.3815,-3.3815,-3.3895,-3.3947,-3.3947,-3.3998,-3.4049,-3.4099,-3.4124,-3.4148,-3.4197,-3.4197,-3.4197,-3.4197,-3.4197,-3.39,-3.3268,-3.3083,-3.2692,-3.2061,-3.1875,-3.1489,-3.0875,-3.1526,-3.1875,-4.1293,-4.1757,-4.1441,-3.9844,-3.7615,-3.494,-3.16,0.0,0.0,0.0,-2.0882,-2.001,-2.0678,0.0,0.0,0.0,0.0,0.0,0.0,0.0,0.0,0.0,0.0,0.0,0.0,0.0,0.0,-4.4005,-4.4005,-4.4005,-4.4005,-4.4005,-4.4005,-4.4005,-4.4005,-4.4005,-4.4005,-4.4005,-4.4005,-4.4005,-4.4005,-4.4005,-4.4005,-4.4005,-4.4005,-4.4005,-4.4005,-4.4005,0.0,-4.4005,-4.4005,-4.4005,-4.4005,-4.4005,-4.4005,-4.4005,-4.4005,-4.4005,-4.4005,-4.4005,-4.3875,-4.315,-4.2909,-4.289,-4.2786,-4.1642,-4.0322,-4.0219,-3.9579,-3.891,-3.8822,-3.8851,-3.8881,-3.8822,-3.8792,-3.8762,-3.8689,-3.8707,-3.8738,-3.8792,-3.875,-3.8242,-3.6757,-3.6397,-3.5752,-3.4156,-3.3897,-3.3895,-3.3895,-3.3998,-3.4074,-3.4074,-3.4099,-3.4099,-3.4099,-3.4148,-3.4197,-3.4197,-3.4197,-3.4197,-3.4197,-3.4197,-3.416,-3.4086,-3.3361,-3.2953,-3.2878,-3.2154,-3.1745,-3.1671,-3.1764,-3.2172,-3.951,-4.0476,-4.0717,-4.0048,-3.7281,-3.4104,-3.1838,0.0,-2.3405,-2.2237,-2.0715,-1.9694,-2.001,-2.0474,-2.1384,0.0,0.0,0.0,0.0,0.0,0.0,0.0,0.0,0.0,0.0,0.0,-4.4005,-4.4005,-4.4005,-4.4005,-4.4005,-4.4005,-4.4005,-4.4005,-4.4005,-4.4005,-4.4005,-4.4005,-4.4005,-4.4005,-4.4005,-4.4005,-4.4005,-4.4005,-4.4005,-4.4005,-4.4005,-4.4005,0.0,-4.4005,-4.4005,-4.4005,-4.4005,-4.4005,-4.4005,-4.4005,-4.4005,-4.4005,-4.4005,-4.367,-4.3225,-4.289,-4.2129,-4.1349,-4.1349,-4.0855,-4.0195,-3.9637,-3.9248,-3.9007,-3.891,-3.8851,-3.8833,-3.891,-3.8822,-3.875,-3.875,-3.878,-3.878,-3.8792,-3.8762,-3.8412,-3.7319,-3.6673,-3.5928,-3.4816,-3.4218,-3.3921,-3.3947,-3.4049,-3.4099,-3.4099,-3.4148,-3.4173,-3.4173,-3.4173,-3.4197,-3.4197,-3.4197,-3.4197,-3.4197,-3.4197,-3.4197,-3.4197,-3.3881,-3.3714,-3.3714,-3.3398,-3.299,-3.2525,-3.3008,-3.3157,-3.7058,-3.8284,-3.8878,-3.8618,-3.5999,-3.2934,0.0,0.0,-2.2906,-2.1866,-2.0548,-1.9602,-1.9602,-2.0066,-2.079,0.0,-2.2683,-2.4428,-2.7974,0.0,0.0,0.0,0.0,0.0,0.0,0.0,-4.4005,-4.4005,-4.4005,-4.4005,-4.4005,-4.4005,-4.4005,-4.4005,-4.4005,-4.4005,-4.4005,-4.4005,-4.4005,-4.4005,-4.4005,-4.4005,-4.4005,-4.4005,-4.4005,-4.4005,-4.4005,-4.4005,0.0,-4.4005,-4.4005,-4.4005,-4.4005,-4.4005,-4.4005,-4.4005,-4.3856,-4.3652,-4.3652,-4.3113,-4.2407,-4.2166,-4.1311,-4.0346,-4.0085,-4.0011,-3.9881,-3.9231,-3.9064,-3.9045,-3.895,-3.8881,-3.8833,-3.8968,-3.8851,-3.875,-3.8822,-3.8822,-3.8822,-3.8851,-3.8822,-3.849,-3.7468,-3.6767,-3.5993,-3.4981,-3.4352,-3.3972,-3.4023,-3.4099,-3.4124,-3.4124,-3.4173,-3.4197,-3.4197,-3.4197,-3.4197,-3.4197,-3.4197,-3.4197,-3.4197,-3.4197,-3.4197,-3.4197,-3.4197,-3.4197,-3.4197,-3.4197,-3.39,-3.3361,-3.3937,-3.39,-3.3807,-3.4884,-3.533,-3.4476,-3.3027,-3.0965,0.0,-2.5021,-2.2757,-2.1142,-2.0158,-1.9602,-1.9602,-1.9602,-2.014,-2.1736,-2.2683,0.0,-2.8812,0.0,0.0,0.0,0.0,0.0,0.0,0.0,-4.4005,-4.4005,-4.4005,0.0,-4.4005,-4.4005,-4.4005,-4.4005,-4.4005,-4.4005,-4.4005,-4.4005,-4.4005,-4.4005,-4.4005,-4.4005,-4.4005,-4.4005,-4.4005,-4.4005,-4.4005,-4.4005,0.0,-4.4005,-4.4005,-4.4005,-4.4005,-4.4005,-4.4005,-4.4005,-4.3503,-4.2816,-4.2816,-4.2296,-4.1479,-4.068,-4.0401,-4.0234,-3.938,-3.9101,-3.9101,-3.9101,-3.9045,-3.8979,-3.8979,-3.895,-3.891,-3.891,-3.8851,-3.8822,-3.8862,-3.8851,-3.8851,-3.8979,-3.891,-3.8335,-3.685,-3.6509,-3.5874,-3.4257,-3.4049,-3.4099,-3.4099,-3.4148,-3.4197,-3.4197,-3.4197,-3.4197,-3.4197,-3.4197,-3.4197,-3.4197,-3.4197,-3.4197,-3.4197,-3.4197,-3.4197,-3.4197,-3.4197,-3.4197,-3.4197,-3.4197,-3.4197,-3.4179,-3.4197,-3.4197,-3.0336,-3.1136,-3.1266,-3.1005,-2.9686,-2.8031,-2.6451,-2.4166,-2.207,-2.1012,-2.0158,-1.9602,-1.9602,-1.9602,-2.0507,-2.3256,0.0,0.0,0.0,0.0,0.0,0.0,0.0,0.0,0.0,0.0,-4.4005,-4.4005,-4.4005,-4.4005,-4.4005,-4.4005,-4.4005,-4.4005,-4.4005,-4.4005,-4.4005,-4.4005,-4.4005,-4.4005,-4.4005,-4.4005,-4.4005,-4.4005,-4.4005,-4.4005,-4.4005,-4.4005,-4.4005,-4.4005,-4.4005,-4.4005,-4.4005,-4.4005,-4.3931,-4.3373,-4.302,-4.2723,-4.2166,-4.1441,-4.0736,-4.0476,-3.9993,-3.9454,-3.9175,-3.9101,-3.9101,-3.9101,-3.9073,-3.9073,-3.9073,-3.9007,-3.8979,-3.9036,-3.895,-3.8881,-3.895,-3.895,-3.895,-3.8979,-3.8968,-3.845,-3.6877,-3.6518,-3.591,-3.4308,-3.4049,-3.4074,-3.4148,-3.4148,-3.4148,-3.4197,-3.4197,-3.4197,-3.4197,-3.4197,-3.4197,-3.4197,-3.4197,-3.4197,-3.4197,-3.4197,-3.4197,-3.4197,-3.4197,-3.4197,-3.4197,-3.4197,-3.4197,-3.4197,-3.4197,-3.4197,0.0,-2.7771,-2.8013,-2.8013,-2.699,-2.5708,-2.4557,-2.2885,-2.1309,-2.0511,-1.9954,-1.9602,-1.9602,-1.9843,-2.0823,-2.3163,0.0,0.0,0.0,0.0,0.0,0.0,0.0,0.0,0.0,-4.3633,-4.4005,-4.4005,-4.4005,-4.4005,-4.4005,-4.4005,-4.4005,-4.4005,-4.4005,-4.4005,-4.4005,-4.4005,-4.4005,-4.4005,-4.4005,-4.4005,-4.4005,-4.4005,-4.4005,-4.4005,-4.4005,-4.4005,0.0,-4.4005,-4.3819,-4.3559,-4.3559,-4.3355,-4.302,-4.2519,-4.2166,-4.1813,-4.1311,-4.0587,-3.99,-3.99,-3.9547,-3.9101,-3.9101,-3.9101,-3.9101,-3.9101,-3.9101,-3.9101,-3.9073,-3.9064,-3.9036,-3.9064,-3.9007,-3.895,-3.9036,-3.9007,-3.8979,-3.8979,-3.8738,-3.8137,-3.6822,-3.6305,-3.5639,-3.4303,-3.4099,-3.4099,-3.4148,-3.4148,-3.4148,-3.4197,-3.4197,-3.4197,-3.4197,-3.4197,-3.4197,-3.4197,-3.4197,-3.4197,-3.4197,-3.4197,-3.4197,-3.4197,-3.4197,-3.4197,-3.4197,-3.4197,-3.4197,-3.4197,-3.4197,-3.4197,0.0,-2.4611,-2.528,-2.528,-2.476,-2.3812,-2.22,-2.1291,0.0,-1.9769,-1.9602,-1.962,-1.975,-2.0325,-2.1142,-2.2182,0.0,0.0,0.0,0.0,0.0,0.0,0.0,0.0,-4.1757,-4.3113,-4.4005,-4.4005,-4.4005,-4.4005,-4.4005,-4.4005,-4.4005,-4.4005,-4.4005,-4.4005,-4.4005,-4.4005,-4.4005,-4.4005,-4.4005,-4.4005,-4.4005,-4.4005,-4.4005,0.0,-4.4005,-4.4005,-4.4005,-4.4005,-4.3559,-4.2872,-4.2816,-4.2333,-4.1664,-4.1553,-4.1033,-4.0383,-4.0327,-3.977,-3.9101,-3.9101,-3.9101,-3.9101,-3.9101,-3.9101,-3.9101,-3.9101,-3.9101,-3.9073,-3.9007,-3.9045,-3.9073,-3.9007,-3.9007,-3.9036,-3.9073,-3.9064,-3.9007,-3.9007,-3.8414,-3.7637,-3.684,-3.6044,-3.521,-3.4321,-3.4185,-3.4173,-3.4124,-3.4148,-3.4197,-3.4197,-3.4197,-3.4197,-3.4197,-3.4197,-3.4197,-3.4197,-3.4197,-3.4197,-3.4197,-3.4197,-3.4197,-3.4197,-3.4197,-3.4197,-3.4197,-3.4197,-3.4197,-3.4197,-3.4197,-3.4197,-1.8562,0.0,-2.1027,-2.1027,-2.1362,-2.1417,0.0,-2.0493,0.0,0.0,0.0,-1.9973,-2.1216,-2.1087,-2.1885,0.0,0.0,0.0,0.0,0.0,0.0,0.0,0.0,0.0,-4.3448,-4.3782,-4.4005,-4.4005,-4.4005,-4.4005,-4.4005,-4.4005,-4.4005,-4.4005,-4.4005,-4.4005,-4.4005,-4.4005,-4.4005,-4.4005,-4.4005,-4.4005,-4.4005,-4.4005,-4.4005,-4.4005,-4.4005,-4.4005,-4.4005,-4.4005,-4.3893,-4.3652,-4.3039,-4.2686,-4.237,-4.1126,-4.055,-4.029,-3.964,-3.9268,-3.9101,-3.9101,-3.9101,-3.9101,-3.9101,-3.9101,-3.9101,-3.9101,-3.9101,-3.9101,-3.9073,-3.9073,-3.9101,-3.9073,-3.9073,-3.9073,-3.9101,-3.9073,-3.9073,-3.9073,-3.8925,-3.8535,-3.7737,-3.692,-3.6122,-3.5286,-3.4575,-3.4148,-3.4173,-3.4148,-3.4148,-3.4197,-3.4197,-3.4197,-3.4197,-3.4197,-3.4197,-3.4197,-3.4197,-3.4197,-3.4197,-3.4197,-3.4197,-3.4197,-3.4197,-3.4197,-3.4197,-3.4197,-3.4197,-3.4197,-3.4148,-3.4124,-1.6446,-1.8042,-1.9602,-1.9602,-2.0196,-2.0678,0.0,0.0,0.0,0.0,0.0,0.0,-2.1216,0.0,0.0,0.0,0.0,0.0,0.0,0.0,0.0,0.0,0.0,-4.4005,0.0,-4.4005,-4.4005,-4.4005,-4.4005,-4.4005,-4.4005,-4.3652,-4.3448,-4.3448,-4.3448,-4.3633,-4.4005,-4.4005,-4.4005,-4.4005,-4.4005,-4.4005,-4.4005,-4.4005,-4.4005,-4.4005,-4.4005,-4.3782,-4.3448,-4.3448,-4.3002,-4.2296,-4.1869,-4.1441,-4.0996,-4.0123,-3.9788,-3.9733,-3.925,-3.9101,-3.9101,-3.9101,-3.9101,-3.9101,-3.9101,-3.9101,-3.9101,-3.9101,-3.9101,-3.9101,-3.9101,-3.9101,-3.9101,-3.9101,-3.9101,-3.9101,-3.9101,-3.9101,-3.9101,-3.9045,-3.8776,-3.8414,-3.7932,-3.6901,-3.5999,-3.5528,-3.4705,-3.4148,-3.4148,-3.4148,-3.4173,-3.4197,-3.4197,-3.4197,-3.4197,-3.4197,-3.4197,-3.4197,-3.4197,-3.4197,-3.4197,-3.4197,-3.4197,-3.4197,-3.4197,-3.4197,-3.4197,-3.4197,-3.4173,-3.4148,-3.4148,-3.4124,-1.5833,-1.7801,-1.9602,-1.9602,-2.0288,-2.0994,0.0,0.0,0.0,0.0,0.0,0.0,0.0,0.0,0.0,0.0,0.0,0.0,0.0,0.0,0.0,0.0,0.0,0.0,-4.3633,-4.3633,-4.3633,-4.3633,-4.3633,-4.3633,-4.3633,-4.2983,-4.2612,-4.2612,-4.2612,-4.2946,-4.3633,-4.3763,-4.3819,-4.3819,-4.3689,-4.3708,-4.3819,-4.3689,-4.3633,-4.3633,-4.3633,0.0,-4.2612,-4.2612,-4.1813,-4.0568,-4.0438,-3.9937,-3.9287,-3.9157,-3.9101,-3.9101,-3.9101,-3.9101,-3.9101,-3.9101,-3.9101,-3.9101,-3.9101,-3.9101,-3.9101,-3.9101,-3.9101,-3.9101,-3.9101,-3.9101,-3.9101,-3.9101,-3.9101,-3.9101,-3.9101,-3.9101,-3.9073,-3.9036,-3.8507,-3.8052,-3.8016,-3.6708,-3.5665,-3.5606,-3.4804,-3.4173,-3.4124,-3.4173,-3.4197,-3.4197,-3.4197,-3.4197,-3.4197,-3.4197,-3.4197,-3.4197,-3.4197,-3.4197,-3.4197,-3.4197,-3.4197,-3.4197,-3.4197,-3.4197,-3.4197,-3.4197,-3.4148,-3.4099,-3.4148,-3.4148,-1.6478,-1.8228,-1.9602,-1.9602,-2.0715,-2.1763,0.0,0.0,0.0,0.0,0.0,0.0,0.0,0.0,0.0,0.0,0.0,0.0,0.0,0.0,0.0,0.0,0.0,-4.1962,-4.1962,-4.1962,-4.1962,-4.1962,-4.1962,-4.1962,-4.1962,-4.185,-4.1776,-4.1776,-4.1776,-4.1832,-4.1962,-4.263,-4.2983,-4.2983,-4.2296,-4.2333,-4.2965,-4.2277,-4.1962,-4.1962,0.0,-4.1887,-4.1776,-4.1776,-4.1627,-4.1349,-4.0661,-4.0308,-4.0104,-3.9361,-3.9101,-3.9101,-3.9101,-3.9101,-3.9101,-3.9101,-3.9101,-3.9101,-3.9101,-3.9101,-3.9101,-3.9101,-3.9101,-3.9101,-3.9101,-3.9101,-3.9101,-3.9101,-3.9101,-3.9101,-3.9101,-3.9101,-3.9101,-3.9073,-3.899,-3.8915,-3.8888,-3.7578,-3.65,-3.65,-3.52,-3.4197,-3.4197,-3.4197,-3.4197,-3.4197,-3.4197,-3.4197,-3.4197,-3.4197,-3.4197,-3.4197,-3.4197,-3.4197,-3.4197,-3.4197,-3.4197,-3.4197,-3.4197,-3.4197,-3.4197,-3.4148,-3.4124,-3.4099,-3.4049,-3.4023,-1.5558,-1.7268,-1.8896,-1.9273,-2.1377,-2.328,0.0,0.0,0.0,0.0,0.0,0.0,0.0,0.0,0.0,0.0,0.0,0.0,0.0,0.0,0.0,0.0,0.0,-4.1757,-4.2203,-4.185,-4.1776,-4.2222,-4.224,-4.224,-4.224,-4.1832,-4.159,-4.159,-4.1181,-4.0717,-4.0253,-4.107,-4.172,-4.2147,-4.1776,-4.1776,-4.2129,-4.1757,-4.159,-4.159,0.0,-4.1349,-4.094,-4.094,-4.0661,-4.0215,-3.9844,-3.9695,-3.964,-3.925,-3.9101,-3.9101,-3.9101,-3.9101,-3.9101,-3.9101,-3.9101,-3.9101,-3.9101,-3.9101,-3.9101,-3.9101,-3.9101,-3.9101,-3.9101,-3.9101,-3.9101,-3.9101,-3.9101,-3.9101,-3.9101,-3.9101,-3.9101,-3.9101,-3.9101,-3.9101,-3.9101,-3.7764,-3.6686,-3.6686,-3.5256,-3.4197,-3.4197,-3.4197,-3.4197,-3.4197,-3.4197,-3.4197,-3.4197,-3.4197,-3.4197,-3.4197,-3.4197,-3.4197,-3.4197,-3.4197,-3.4197,-3.4197,-3.4173,-3.4148,-3.4148,-3.4124,-3.4074,-3.4049,-3.4049,-3.4049,-1.5069,-1.6607,-1.8276,0.0,0.0,0.0,0.0,0.0,0.0,0.0,0.0,0.0,0.0,0.0,0.0,0.0,0.0,0.0,0.0,0.0,-4.25,-4.1702,-4.159,-4.1832,-4.2463,-4.1962,-4.185,-4.2463,-4.2519,-4.2519,-4.2519,-4.1924,-4.1497,-4.1311,-4.0903,-4.0271,-3.9417,-4.0067,-4.0698,-4.1311,-4.1107,-4.1126,-4.1311,-4.1107,-4.1014,-4.1014,-4.1014,-4.0661,-4.0085,-4.0085,-3.9695,-3.912,-3.9324,-3.9398,-3.9398,-3.9398,-3.9268,-3.9101,-3.9101,-3.9101,-3.9101,-3.9101,-3.9101,-3.9101,-3.9101,-3.9101,-3.9101,-3.9101,-3.9101,-3.9101,-3.9101,-3.9101,-3.9101,-3.9101,-3.9101,-3.9101,-3.9101,-3.9101,-3.9101,-3.9101,-3.9101,-3.9045,-3.8841,-3.7634,-3.663,-3.6445,-3.5144,-3.4197,-3.4197,-3.4197,-3.4197,-3.4197,-3.4197,-3.4197,-3.4197,-3.4197,-3.4197,-3.4197,-3.4197,-3.4197,-3.4197,-3.4197,-3.4197,-3.4197,-3.4148,-3.4124,-3.4124,-3.4099,-3.4074,-3.4023,-3.4074,-3.4099,-1.6277,-1.7329,-1.8265,-1.9758,0.0,0.0,0.0,0.0,0.0,0.0,0.0,0.0,0.0,0.0,0.0,0.0,0.0,0.0,0.0,0.0,-4.25,-4.1702,-4.159,-4.1609,-4.1683,-4.1627,-4.1609,-4.1683,-4.1683,-4.1683,-4.1683,-4.1627,-4.1256,-4.0494,-4.1144,-4.1126,-4.0308,-4.0364,-4.042,-4.0476,-3.9658,-3.9695,-4.0457,-3.964,-3.9287,-3.9287,-3.9287,-3.925,-3.9194,-3.9194,-3.9157,-3.9175,-3.9974,-4.0308,-4.0308,-4.0308,-3.9788,-3.9101,-3.9101,-3.9101,-3.9101,-3.9101,-3.9101,-3.9101,-3.9101,-3.9101,-3.9101,-3.9101,-3.9101,-3.9101,-3.9101,-3.9101,-3.9101,-3.9101,-3.9101,-3.9101,-3.9101,-3.9101,-3.9101,-3.9101,-3.9101,-3.8859,-3.8116,-3.7262,-3.6445,-3.5683,-3.4791,-3.4197,-3.4197,-3.4197,-3.4197,-3.4197,-3.4197,-3.4197,-3.4197,-3.4197,-3.4197,-3.4197,-3.4197,-3.4197,-3.4197,-3.4197,-3.4197,-3.4197,-3.4197,-3.4197,-3.4197,-3.4124,-3.4099,-3.4099,-3.4099,-3.4099,-1.507,-1.6815,-1.8538,0.0,0.0,0.0,0.0,0.0,0.0,0.0,0.0,0.0,0.0,0.0,0.0,0.0,0.0,0.0,-4.3262,-4.3113,-4.2686,-4.237,-4.1887,-4.1794,-4.2296,-4.1887,-4.1813,-4.2314,-4.2352,-4.2352,-4.2352,-4.2352,-4.2203,-4.1887,-4.1702,-4.1441,-4.1144,-4.1144,-4.1144,-4.1126,-3.9751,-3.9268,-3.9602,-3.9807,-3.9602,-3.912,-3.9658,-3.9602,-3.9138,-3.9677,-3.99,-3.9937,-4.0271,-4.0401,-4.0327,-3.9788,-3.938,-3.9101,-3.9101,-3.9101,-3.9101,-3.9101,-3.9101,-3.9101,-3.9101,-3.9101,-3.9101,-3.9101,-3.9101,-3.9101,-3.9101,-3.9101,-3.9101,-3.9101,-3.9101,-3.9101,-3.9101,-3.9101,-3.9101,-3.9101,-3.9101,-3.8841,-3.8042,-3.7225,-3.6426,-3.5609,-3.4754,-3.4197,-3.4197,-3.4197,-3.4197,-3.4197,-3.4197,-3.4197,-3.4197,-3.4197,-3.4197,-3.4197,-3.4197,-3.4197,-3.4197,-3.4173,-3.4148,-3.4197,-3.4124,-3.4099,-3.4148,-3.4124,-3.4099,-3.4099,-3.4049,-3.4074,-1.493,-1.6951,-1.9084,0.0,0.0,0.0,0.0,0.0,0.0,0.0,0.0,0.0,0.0,0.0,0.0,0.0,0.0,-4.2166,-4.3763,-4.3522,-4.3188,-4.3188,-4.2686,-4.2575,-4.3132,-4.2686,-4.2593,-4.3132,-4.3188,-4.3188,-4.3188,-4.3188,-4.3058,-4.2816,-4.25,-4.224,-4.198,-4.172,-4.172,-4.1962,-4.029,-3.964,-3.99,-4.0494,-4.0438,-3.9918,-4.0513,-4.0438,-3.9937,-4.0531,-4.0773,-4.0736,-4.0494,-4.0401,-4.0327,-3.9733,-3.9342,-3.9101,-3.9101,-3.9101,-3.9101,-3.9101,-3.9101,-3.9101,-3.9101,-3.9101,-3.9101,-3.9101,-3.9101,-3.9101,-3.9101,-3.9101,-3.9101,-3.9101,-3.9101,-3.9101,-3.9101,-3.9101,-3.9101,-3.9101,-3.9101,-3.8767,-3.7689,-3.7058,-3.6315,-3.5237,-3.4569,-3.4197,-3.4197,-3.4197,-3.4197,-3.4197,-3.4197,-3.4197,-3.4197,-3.4173,-3.4173,-3.4173,-3.4173,-3.4173,-3.4197,-3.4148,-3.4148,-3.4197,-3.4124,-3.4099,-3.4124,-3.4124,-3.4099,-3.4099,-3.4023,-3.4023,-1.6352,-1.8018,0.0,0.0,0.0,0.0,0.0,0.0,0.0,0.0,0.0,0.0,0.0,0.0,0.0,0.0,-4.0513,-4.2166,-4.3763,-4.4005,-4.4005,-4.4005,-4.4005,-4.4005,-4.4005,-4.4005,-4.4005,-4.4005,-4.4005,-4.4005,-4.4005,-4.4005,-4.3633,-4.2835,-4.3578,-4.3615,-4.2816,-4.2017,-4.2017,-4.2797,-4.12,-4.0828,-4.159,-4.1609,-4.1609,-4.159,-4.159,-4.159,-4.159,-4.159,-4.159,-4.1516,-4.0698,-4.0401,-4.0401,-4.0383,-3.9844,-3.9101,-3.9101,-3.9101,-3.9101,-3.9101,-3.9101,-3.9101,-3.9101,-3.9101,-3.9101,-3.9101,-3.9101,-3.9101,-3.9101,-3.9101,-3.9101,-3.9101,-3.9101,-3.9101,-3.9101,-3.9101,-3.9101,-3.9082,-3.9082,-3.8581,-3.6965,-3.6686,-3.611,-3.4439,-3.4197,-3.4197,-3.4197,-3.4197,-3.4197,-3.4197,-3.4197,-3.4197,-3.4197,-3.4142,-3.4092,-3.4099,-3.4099,-3.4124,-3.4197,-3.4197,-3.4197,-3.4197,-3.4197,-3.4197,-3.4197,-3.4124,-3.4099,-3.4099,-3.4023,-3.3998,-1.6395,0.0,0.0,0.0,0.0,0.0,0.0,0.0,0.0,0.0,0.0,0.0,0.0,0.0,0.0,-4.042,-4.1274,-4.2166,-4.3763,-4.4005,-4.4005,-4.4005,-4.4005,-4.4005,-4.4005,-4.4005,-4.4005,-4.4005,-4.4005,-4.4005,-4.4005,-4.4005,-4.3893,-4.3652,-4.3875,-4.3893,-4.3652,-4.341,-4.341,-4.3633,-4.315,-4.2463,-4.1609,-4.2184,-4.2129,-4.159,-4.159,-4.1274,-4.0754,-4.0754,-4.1089,-4.1516,-4.0698,-4.0401,-4.0327,-3.9714,-3.9324,-3.9101,-3.9101,-3.9101,-3.9101,-3.9101,-3.9101,-3.9101,-3.9101,-3.9101,-3.9101,-3.9101,-3.9101,-3.9101,-3.9101,-3.9101,-3.9101,-3.9101,-3.9101,-3.9101,-3.9101,-3.9101,-3.8934,-3.8377,-3.8265,-3.7745,-3.6129,-3.585,-3.5479,-3.4364,-3.4197,-3.4197,-3.4197,-3.4197,-3.4197,-3.4197,-3.4197,-3.4197,-3.4197,-3.4142,-3.4086,-3.4035,-3.4067,-3.4124,-3.4124,-3.4124,-3.4148,-3.4197,-3.4148,-3.4124,-3.4124,-3.4124,-3.4074,-3.4023,-3.3947,-3.3921,-1.7888,0.0,0.0,0.0,0.0,0.0,0.0,0.0,0.0,0.0,0.0,0.0,0.0,0.0,0.0,-3.9844,-4.0958,-4.1943,-4.2909,-4.3039,-4.3039,-4.3039,-4.3039,-4.3039,-4.3039,-4.3039,-4.3039,-4.3039,-4.3039,-4.3039,-4.3039,-4.3039,-4.3039,-4.3039,-4.3039,-4.289,-4.2575,-4.2222,-4.2054,-4.2054,-4.1739,-4.1237,-4.0661,-4.2129,-4.2352,-4.159,-4.159,-4.1311,-4.0847,-4.0513,-4.068,-4.1033,-4.0197,-3.9881,-3.9807,-3.9287,-3.9101,-3.9101,-3.9101,-3.9101,-3.9101,-3.9101,-3.9101,-3.9101,-3.9101,-3.9101,-3.9101,-3.9101,-3.9101,-3.9101,-3.9101,-3.9101,-3.9101,-3.9101,-3.9101,-3.9101,-3.9101,-3.9101,-3.8859,-3.8061,-3.7894,-3.7392,-3.5776,-3.5497,-3.52,-3.4327,-3.4197,-3.4197,-3.4197,-3.4197,-3.4197,-3.4197,-3.4197,-3.4173,-3.4124,-3.4124,-3.4092,-3.4009,-3.3991,-3.3998,-3.4049,-3.4124,-3.4173,-3.4197,-3.4124,-3.4099,-3.4099,-3.4049,-3.3998,-3.3947,-3.3895,-3.3842,0.0,0.0,0.0,0.0,0.0,0.0,0.0,0.0,0.0,0.0,0.0,0.0,0.0,0.0,0.0,-3.7986,-3.9955,-4.1367,-4.1367,-4.1441,-4.1479,-4.1479,-4.1553,-4.1571,-4.1497,-4.1479,-4.146,-4.1367,-4.1367,-4.1367,-4.1367,-4.1367,-4.1367,-4.1367,-4.1367,-4.1014,-4.029,-3.9491,-3.9101,-3.9082,-3.8358,-3.8339,-3.9064,-4.1404,-4.2017,-4.1256,-4.133,-4.133,-4.12,-4.055,-4.0271,-4.0197,-3.9417,-3.9101,-3.9101,-3.9101,-3.9101,-3.9101,-3.9101,-3.9101,-3.9101,-3.9101,-3.9101,-3.9101,-3.9101,-3.9101,-3.9082,-3.9008,-3.899,-3.8971,-3.8897,-3.8878,-3.8878,-3.8878,-3.899,-3.9082,-3.9008,-3.899,-3.8748,-3.7949,-3.7726,-3.7188,-3.5646,-3.5367,-3.5107,-3.4309,-3.4197,-3.4197,-3.4197,-3.4197,-3.4197,-3.4197,-3.4197,-3.4148,-3.4023,-3.4099,-3.4124,-3.3998,-3.3868,-3.3868,-3.3998,-3.4124,-3.4197,-3.4197,-3.4124,-3.4099,-3.4074,-3.3947,-3.3895,-3.3895,-3.3815,-3.3807,0.0,0.0,0.0,0.0,0.0,0.0,0.0,0.0,0.0,0.0,0.0,0.0,0.0,0.0,-3.8859,-3.9714,-3.9733,-3.964,-3.964,-4.0215,-4.0661,-4.0661,-4.1219,-4.1349,-4.0717,-4.0661,-4.0364,-3.9695,-3.964,-3.964,-3.964,-3.964,-3.964,-3.964,-3.964,-3.9547,-3.938,-3.9194,-3.9101,-3.9101,-3.8915,-3.8599,-3.8191,-3.9361,-3.9454,-3.8729,-3.9361,-3.9268,-3.8729,-3.9194,-3.938,-3.9361,-3.9175,-3.9101,-3.9101,-3.9101,-3.9101,-3.9101,-3.9101,-3.9101,-3.9101,-3.9101,-3.9101,-3.9101,-3.9101,-3.9101,-3.8971,-3.8339,-3.8154,-3.8005,-3.7373,-3.7206,-3.7206,-3.7206,-3.8172,-3.8934,-3.8284,-3.8154,-3.7912,-3.7113,-3.6445,-3.5683,-3.4661,-3.4476,-3.442,-3.4234,-3.4197,-3.4197,-3.4197,-3.4197,-3.4197,-3.4197,-3.4197,-3.4197,-3.4173,-3.3998,-3.3868,-3.3842,-3.3921,-3.3972,-3.3998,-3.4124,-3.4191,-3.4117,-3.4092,-3.4042,-3.3947,-3.3921,-3.3868,-3.3815,-3.3807,-3.3807,0.0,0.0,0.0,0.0,0.0,0.0,0.0,0.0,0.0,0.0,0.0,0.0,0.0,-3.8525,-3.8674,-3.912,-3.9138,-3.8971,-3.8581,-3.8915,-3.9045,-3.8655,-3.899,-3.9082,-3.8655,-3.8618,-3.8432,-3.7986,-3.7949,-3.7949,-3.7949,-3.7949,-3.7949,-3.7895,-3.7922,-3.7764,-3.732,-3.7373,-3.7169,-3.6742,-3.6742,-3.6519,-3.6166,-3.7392,-3.7708,-3.7336,-3.7764,-3.7708,-3.7355,-3.7782,-3.7949,-3.7949,-3.7949,-3.7949,-3.7949,-3.7949,-3.7949,-3.8005,-3.8395,-3.8265,-3.8005,-3.8395,-3.8265,-3.7949,-3.7949,-3.7949,-3.7856,-3.7429,-3.7318,-3.7225,-3.6798,-3.6686,-3.6593,-3.6203,-3.7058,-3.7838,-3.7411,-3.7318,-3.7076,-3.6278,-3.5776,-3.5219,-3.4346,-3.4197,-3.4197,-3.4197,-3.4197,-3.4197,-3.4197,-3.4197,-3.4148,-3.4023,-3.3998,-3.3998,-3.3998,-3.3868,-3.3807,-3.3807,-3.3998,-3.4049,-3.3895,-3.3972,-3.4016,-3.4035,-3.4035,-3.3991,-3.3895,-3.3868,-3.3815,-3.3807,-3.3807,-3.3807,0.0,0.0,0.0,0.0,0.0,0.0,0.0,0.0,0.0,0.0,0.0,0.0,0.0,-3.7986,-3.7894,-3.7894,-3.8339,-3.8451,-3.7782,-3.7801,-3.7596,-3.6798,-3.6816,-3.6798,-3.6519,-3.6482,-3.64,-3.6278,-3.6233,-3.6233,-3.6233,-3.6233,-3.6233,-3.6155,-3.6233,-3.5918,-3.5199,-3.5249,-3.4903,-3.4197,-3.4197,-3.4197,-3.4253,-3.5627,-3.6259,-3.6278,-3.6426,-3.6482,-3.65,-3.663,-3.6686,-3.6686,-3.6686,-3.6686,-3.6686,-3.6686,-3.6686,-3.6798,-3.7448,-3.7262,-3.6798,-3.7466,-3.7225,-3.6686,-3.6686,-3.6686,-3.6668,-3.6519,-3.6482,-3.6445,-3.6296,-3.6259,-3.6092,-3.5423,-3.5776,-3.6296,-3.6445,-3.6482,-3.6296,-3.5627,-3.5367,-3.5033,-3.4309,-3.4197,-3.4197,-3.4197,-3.4197,-3.4197,-3.4197,-3.4173,-3.4049,-3.3815,-3.3807,-3.3807,-3.3807,-3.3807,-3.3807,-3.3807,-3.3998,-3.4023,-3.3807,-3.3807,-3.3834,-3.3976,-3.3976,-3.3931,-3.3868,-3.3834,-3.3807,-3.3807,-3.3807,-3.3807,0.0,0.0,0.0,0.0,0.0,0.0,0.0,0.0,0.0,0.0,0.0,0.0,-3.8934,-3.8322,-3.7831,-3.7894,-3.7411,-3.6965,-3.6872,-3.7448,-3.7596,-3.6798,-3.7246,-3.7135,-3.5795,-3.5544,-3.5203,-3.4513,-3.4407,-3.4356,-3.4356,-3.4407,-3.4457,-3.4432,-3.4507,-3.4476,-3.4364,-3.4364,-3.4309,-3.4197,-3.4197,-3.4197,-3.4197,-3.442,-3.4531,-3.4569,-3.533,-3.5646,-3.5702,-3.6408,-3.6686,-3.6686,-3.6686,-3.6686,-3.6686,-3.6686,-3.6686,-3.6705,-3.6816,-3.6779,-3.6705,-3.6816,-3.6779,-3.6686,-3.6686,-3.6686,-3.6538,-3.585,-3.5646,-3.5479,-3.4717,-3.4531,-3.4513,-3.4401,-3.4457,-3.4736,-3.5497,-3.5646,-3.5627,-3.5516,-3.4884,-3.4327,-3.4216,-3.4197,-3.4197,-3.4197,-3.4197,-3.4197,-3.4197,-3.3998,-3.3842,-3.3788,-3.3807,-3.3807,-3.3807,-3.3807,-3.3807,-3.3807,-3.3815,-3.386,-3.3807,-3.3807,-3.3807,-3.3834,-3.3834,-3.3834,-3.3815,-3.3788,-3.3807,-3.3807,-3.3807,-3.3807,0.0,0.0,0.0,0.0,0.0,0.0,0.0,0.0,0.0,0.0,0.0,-3.6777,-3.8645,-3.8701,-3.8489,-3.8498,-3.8256,-3.7894,-3.7429,-3.7671,-3.7596,-3.6798,-3.6976,-3.6727,-3.5558,-3.5395,-3.4999,-3.4104,-3.4023,-3.3998,-3.3998,-3.4074,-3.4074,-3.4049,-3.4148,-3.4173,-3.4148,-3.4173,-3.4197,-3.4197,-3.4197,-3.4197,-3.4197,-3.4197,-3.4197,-3.4216,-3.4606,-3.4773,-3.4791,-3.5144,-3.5293,-3.5293,-3.5293,-3.5293,-3.5293,-3.5293,-3.5293,-3.5367,-3.585,-3.5702,-3.5367,-3.5869,-3.5683,-3.5293,-3.5293,-3.5293,-3.5219,-3.4866,-3.4773,-3.468,-3.429,-3.4197,-3.4197,-3.4197,-3.4197,-3.429,-3.468,-3.4773,-3.4773,-3.4773,-3.4457,-3.4197,-3.4197,-3.4197,-3.4197,-3.4197,-3.4074,-3.3972,-3.3972,-3.3868,-3.3807,-3.3807,-3.3807,-3.3807,-3.3807,-3.3807,-3.3807,-3.3807,-3.3807,-3.3807,-3.3807,-3.3807,-3.3807,-3.3807,-3.3807,-3.3807,-3.3807,-3.3807,-3.3807,-3.3807,-3.3807,-3.3807,0.0,0.0,0.0,0.0,0.0,0.0,0.0,0.0,0.0,0.0,0.0,-3.4705,-3.7155,-3.7839,-3.8099,-3.8331,-3.8591,-3.8526,-3.7959,-3.8052,-3.7885,-3.7087,-3.679,-3.6318,-3.5469,-3.5369,-3.4973,-3.4079,-3.4227,-3.4238,-3.3991,-3.4049,-3.416,-3.4305,-3.421,-3.4235,-3.4407,-3.426,-3.4173,-3.4197,-3.4197,-3.4197,-3.4197,-3.4197,-3.4197,-3.4197,-3.4197,-3.4197,-3.4197,-3.4197,-3.4197,-3.4197,-3.4197,-3.4197,-3.4197,-3.4197,-3.4197,-3.429,-3.494,-3.4736,-3.4309,-3.4959,-3.4717,-3.4197,-3.4197,-3.4197,-3.4197,-3.4197,-3.4197,-3.4197,-3.4197,-3.4197,-3.4197,-3.4197,-3.4197,-3.4197,-3.4197,-3.4197,-3.4197,-3.4197,-3.4197,-3.4197,-3.4197,-3.4197,-3.4197,-3.4197,-3.3972,-3.3807,-3.3807,-3.3807,-3.3807,-3.3807,-3.3807,-3.3807,-3.3807,-3.3807,-3.3807,-3.3807,-3.3807,-3.3807,-3.3807,-3.3807,-3.3807,-3.3807,-3.3807,-3.3807,-3.3807,-3.3807,-3.3807,-3.3807,-3.3807,-3.3807,0.0,0.0,0.0,0.0,0.0,0.0,0.0,0.0,0.0,0.0,-3.3095,-3.3844,-3.4027,-3.4788,-3.568,-3.6518,-3.7248,-3.7775,-3.7785,-3.8451,-3.8655,-3.784,-3.7008,-3.6231,-3.5462,-3.5291,-3.4895,-3.4154,-3.4807,-3.4821,-3.3931,-3.3972,-3.436,-3.511,-3.4397,-3.4404,-3.5235,-3.4481,-3.4148,-3.4197,-3.4197,-3.4197,-3.4197,-3.4197,-3.4197,-3.4197,-3.4197,-3.4197,-3.4197,-3.4197,-3.4197,-3.4197,-3.4197,-3.4197,-3.4197,-3.4197,-3.4197,-3.4197,-3.4253,-3.4234,-3.4197,-3.4253,-3.4234,-3.4197,-3.4197,-3.4197,-3.4197,-3.4197,-3.4197,-3.4197,-3.4197,-3.4197,-3.4197,-3.4197,-3.4197,-3.4197,-3.4197,-3.4197,-3.4197,-3.4197,-3.4197,-3.4197,-3.4197,-3.4197,-3.4197,-3.4197,-3.3972,-3.3807,-3.3807,-3.3807,-3.3807,-3.3807,-3.3807,-3.3807,-3.3807,-3.3807,-3.3807,-3.3807,-3.3807,-3.3807,-3.3807,-3.3807,-3.3807,-3.3807,-3.3807,-3.3807,-3.3807,-3.3807,-3.3807,-3.3807,-3.3807,-3.3807,0.0,0.0,0.0,0.0,0.0,0.0,0.0,0.0,0.0,0.0,-2.9062,-2.9807,-3.0992,-3.2965,-3.4529,-3.485,-3.518,-3.5391,-3.5425,-3.612,-3.6527,-3.6231,-3.637,-3.6177,-3.5338,-3.5237,-3.4639,-3.3232,-3.339,-3.3206,-3.2353,-3.2348,-3.252,-3.2808,-3.2613,-3.2686,-3.3049,-3.3228,-3.3369,-3.3436,-3.3907,-3.4173,-3.4197,-3.4197,-3.4197,-3.4197,-3.4197,-3.4197,-3.4197,-3.4197,-3.4197,-3.4197,-3.4197,-3.4197,-3.4197,-3.4197,-3.4197,-3.4197,-3.4197,-3.4197,-3.4197,-3.4197,-3.4197,-3.4197,-3.4197,-3.4197,-3.4197,-3.4197,-3.4197,-3.4197,-3.4197,-3.4197,-3.4197,-3.4148,-3.4173,-3.4197,-3.4148,-3.4173,-3.4197,-3.4197,-3.4197,-3.4197,-3.4197,-3.4197,-3.4148,-3.3972,-3.3842,-3.3807,-3.3807,-3.3807,-3.3807,-3.3807,-3.3807,-3.3807,-3.3807,-3.3807,-3.3807,-3.3807,-3.3807,-3.3807,-3.3807,-3.3807,-3.3807,-3.3807,-3.3807,-3.3807,-3.3807,-3.3807,-3.3807,-3.3807,-3.3807,-3.3807,0.0,0.0,0.0,0.0,0.0,0.0,0.0,0.0,0.0,0.0,-2.6428,-2.7082,-2.8593,-3.0462,-3.2082,-3.2985,-3.3386,-3.3603,-3.3629,-3.4349,-3.4858,-3.4858,-3.5088,-3.5006,-3.4437,-3.4363,-3.3766,-3.2378,-3.2544,0.0,-3.1489,-3.1501,-3.1531,-3.1531,-3.1898,-3.1945,-3.1755,-3.2252,-3.2511,-3.2576,-3.3072,-3.3332,-3.338,-3.338,-3.338,-3.3398,-3.3677,-3.3956,-3.4197,-3.4197,-3.4197,-3.4197,-3.4197,-3.4197,-3.4197,-3.4197,-3.4197,-3.4197,-3.4197,-3.4197,-3.4197,-3.4197,-3.4197,-3.4197,-3.4173,-3.4173,-3.4197,-3.4173,-3.4173,-3.4197,-3.4197,-3.4173,-3.4148,-3.4074,-3.4124,-3.4148,-3.4099,-3.4148,-3.4197,-3.4197,-3.4197,-3.4197,-3.4197,-3.4197,-3.4124,-3.3842,-3.3807,-3.3807,-3.3807,-3.3807,-3.3807,-3.3807,-3.3807,-3.3807,-3.3807,-3.3807,-3.3807,-3.3807,-3.3807,-3.3807,-3.3807,-3.3807,-3.3807,-3.3807,-3.3807,-3.3807,-3.3807,-3.3807,-3.3807,-3.3807,-3.3807,-3.3807,0.0,0.0,0.0,0.0,0.0,0.0,0.0,0.0,0.0,0.0,-2.5559,-2.6011,-2.6808,-2.7162,-2.8209,-3.0864,-3.1971,-3.2529,-3.2569,-3.3349,-3.3876,-3.3876,-3.3165,-3.2668,-3.2661,-3.2661,-3.2342,-3.1621,-3.2342,-3.241,-3.1489,-3.1476,-3.1523,-3.1542,-3.2293,-3.2312,-3.1542,-3.1631,-3.1654,-3.1654,-3.176,-3.1782,-3.1801,-3.1801,-3.1801,-3.1838,-3.2618,-3.3417,-3.416,-3.4179,-3.4197,-3.4197,-3.4197,-3.4197,-3.4197,-3.4197,-3.4197,-3.4197,-3.4197,-3.4197,-3.4197,-3.4197,-3.4197,-3.4197,-3.4124,-3.4148,-3.4173,-3.4117,-3.4167,-3.4197,-3.4197,-3.4148,-3.4074,-3.4023,-3.4042,-3.4111,-3.4092,-3.4167,-3.4197,-3.4197,-3.4197,-3.4197,-3.4197,-3.4197,-3.4099,-3.3842,-3.3807,-3.3807,-3.3807,-3.3807,-3.3807,-3.3807,-3.3807,-3.3807,-3.3807,-3.3807,-3.3807,-3.3807,-3.3807,-3.3807,-3.3807,-3.3807,-3.3807,-3.3807,-3.3807,-3.3807,-3.3807,-3.3807,-3.3807,-3.3807,-3.3807,-3.3807,-1.0653,0.0,0.0,0.0,0.0,0.0,0.0,0.0,0.0,-2.2877,-2.311,-2.3412,-2.5482,-2.5906,-2.6504,-2.824,-2.9344,-3.0008,-3.0031,-3.0729,-3.1244,-3.1244,-3.1538,-3.1765,-3.1758,-3.1765,-3.1434,0.0,-3.0814,-3.057,-2.9738,-2.9724,-2.9747,-2.9793,-3.0042,-3.0083,-2.9861,-3.0457,-3.0752,-3.0775,-3.1325,-3.1626,-3.1733,-3.1733,-3.1733,-3.1733,-3.2001,-3.2558,-3.3308,-3.3931,-3.4197,-3.4197,-3.4197,-3.4197,-3.4197,-3.4197,-3.4197,-3.4197,-3.4197,-3.4197,-3.4197,-3.4197,-3.4197,-3.4197,-3.4173,-3.4148,-3.4142,-3.4148,-3.4173,-3.4197,-3.4142,-3.4099,-3.4074,-3.4009,-3.406,-3.4042,-3.3913,-3.4049,-3.4197,-3.4197,-3.4197,-3.4148,-3.3947,-3.3895,-3.3895,-3.3807,-3.3807,-3.3807,-3.3807,-3.3807,-3.3807,-3.3807,-3.3807,-3.3807,-3.3807,-3.3807,-3.3807,-3.3807,-3.3807,-3.3807,-3.3807,-3.3807,-3.3807,-3.3807,-3.3807,-3.3807,-3.3807,-3.3807,-3.3807,-3.3807,-3.3807,-3.3807,0.0,0.0,0.0,0.0,0.0,0.0,0.0,-1.8379,0.0,0.0,-2.1393,-2.1744,-2.3885,-2.4366,-2.4959,-2.6464,-2.7344,-2.8114,-2.8902,-2.9402,-2.9714,-2.9714,-3.0118,-3.0393,-3.0393,-3.0393,-3.021,-2.9732,-2.9714,-2.9512,-2.9058,-2.904,-2.9067,-2.9134,-2.9178,-2.9178,-2.9156,-2.9658,-2.9898,-2.9902,-3.0337,-3.06,-3.0691,-3.0668,-3.0668,-3.0709,-3.1088,-3.1514,-3.1997,-3.2813,-3.356,-3.4197,-3.4197,-3.4197,-3.4197,-3.4197,-3.4197,-3.4197,-3.4197,-3.4197,-3.4197,-3.4173,-3.4148,-3.4148,-3.4124,-3.4124,-3.4142,-3.4167,-3.4167,-3.4142,-3.4016,-3.4016,-3.4016,-3.3931,-3.3957,-3.3939,-3.3834,-3.3921,-3.4074,-3.4173,-3.4124,-3.3972,-3.3834,-3.3807,-3.3807,-3.3807,-3.3807,-3.3807,-3.3807,-3.3807,-3.3807,-3.3807,-3.3807,-3.3807,-3.3807,-3.3807,-3.3807,-3.3807,-3.3807,-3.3807,-3.3807,-3.3807,-3.3807,-3.3807,-3.3807,-3.3807,-3.3807,-3.3807,-3.3807,-3.3807,-3.3807,-3.3807,0.0,0.0,0.0,0.0,-1.6072,0.0,-1.9171,-1.8327,-1.7483,0.0,-1.9964,-2.0394,-2.2014,-2.2526,-2.327,-2.5066,-2.5655,-2.6568,-2.8476,-2.8718,-2.8718,-2.8718,-2.8718,-2.8718,-2.8718,-2.881,-2.8888,-2.8888,-2.8938,-2.904,-2.9085,-2.9108,-2.913,-2.9178,-2.9178,-2.9175,-2.9108,-2.9175,-2.9178,-2.9178,-2.9178,-2.9218,-2.928,-2.9218,-2.924,-2.9317,-3.0061,-3.0435,-3.0627,-3.1288,-3.2516,-3.3918,-3.3937,-3.3937,-3.3937,-3.403,-3.4067,-3.4067,-3.416,-3.4197,-3.4173,-3.4124,-3.4099,-3.4074,-3.4023,-3.4099,-3.4173,-3.4117,-3.4092,-3.4042,-3.386,-3.3905,-3.3976,-3.3834,-3.3807,-3.3807,-3.3807,-3.3807,-3.3868,-3.4124,-3.3972,-3.3807,-3.3807,-3.3807,-3.3807,-3.3807,-3.3807,-3.3807,-3.3807,-3.3807,-3.3807,-3.3807,-3.3807,-3.3807,-3.3807,-3.3807,-3.3807,-3.3807,-3.3807,-3.3807,-3.3807,-3.3807,-3.3807,-3.3807,-3.3807,-3.3807,-3.3807,-3.3807,-3.3807,-3.3807,-3.3807,-3.3807,-1.657,-1.7346,-1.8362,-1.7277,0.0,0.0,-1.688,-1.6433,-1.6415,0.0,-1.7191,-1.7432,-1.9568,-2.0016,-2.0622,-2.2464,-2.3458,-2.4739,-2.6768,-2.7071,-2.7071,-2.7071,-2.7071,-2.7071,-2.7071,-2.7658,-2.8026,-2.8026,-2.8631,-2.9017,-2.9017,-2.9017,-2.904,-2.904,-2.9108,-2.9085,-2.9017,-2.9085,-2.9089,-2.904,-2.904,-2.9067,-2.9152,-2.9178,-2.9178,-2.9152,-2.9407,-2.985,-3.0374,-3.0631,-3.1347,-3.2265,-3.2219,-3.2219,-3.234,-3.299,-3.3208,-3.3252,-3.395,-3.4124,-3.4049,-3.4099,-3.4074,-3.4023,-3.4074,-3.4074,-3.4049,-3.4092,-3.406,-3.4002,-3.3834,-3.3905,-3.3976,-3.3834,-3.3807,-3.3807,-3.3807,-3.3807,-3.3834,-3.3868,-3.386,-3.3807,-3.3807,-3.3807,-3.3807,-3.3807,-3.3807,-3.3807,-3.3807,-3.3807,-3.3807,-3.3807,-3.3807,-3.3807,-3.3807,-3.3807,-3.3807,-3.3807,-3.3807,-3.3807,-3.3807,-3.3807,-3.3807,-3.3807,-3.3807,-3.3807,-3.3807,-3.3807,-3.3807,-3.3807,-3.3807,-3.3807,-1.8569,-1.8982,-1.9654,-1.8896,0.0,0.0,0.0,-1.7001,-1.6777,-1.7914,-1.7322,-1.7294,-1.9591,0.0,-1.9597,-2.1408,-2.2446,-2.3298,-2.3959,-2.5523,-2.6612,-2.6612,-2.6612,-2.6612,-2.6612,-2.6961,-2.72,-2.72,-2.7585,-2.7805,-2.7805,-2.7805,-2.7989,-2.8393,-2.8415,-2.8617,-2.8994,-2.904,-2.9062,-2.9062,-2.9017,-2.904,-2.9089,-2.9089,-2.9089,-2.9089,-2.9175,-2.9437,-2.9787,-2.9787,-3.0135,-3.0668,-3.1463,-3.176,-3.1838,-3.2247,-3.2372,-3.2358,-3.2813,-3.2895,-3.2804,-3.2804,-3.3031,-3.3357,-3.3407,-3.3684,-3.3998,-3.4016,-3.3983,-3.3931,-3.3834,-3.3834,-3.386,-3.3807,-3.3807,-3.3807,-3.3807,-3.3807,-3.3807,-3.3807,-3.3807,-3.3807,-3.3807,-3.3807,-3.3807,-3.3807,-3.3807,-3.3807,-3.3807,-3.3807,-3.3807,-3.3807,-3.3807,-3.3807,-3.3807,-3.3807,-3.3807,-3.3807,-3.3807,-3.3807,-3.3807,-3.3807,-3.3807,-3.3807,-3.3807,-3.3018,-3.1421,-3.1421,-3.1421,-3.1458,-3.3054,-3.3807,0.0,0.0,0.0,0.0,0.0,-1.8866,0.0,0.0,0.0,-1.8448,-1.7778,0.0,0.0,0.0,0.0,0.0,0.0,0.0,0.0,-2.3541,0.0,-2.5617,-2.5803,-2.5915,-2.5915,-2.5915,-2.6098,-2.6576,-2.6319,-2.6282,-2.6594,-2.6612,-2.6906,-2.7548,-2.7567,-2.7879,-2.8517,-2.8682,-2.8801,-2.8846,-2.8966,-2.904,-2.9085,-2.904,-2.904,-2.9067,-2.9108,-2.9175,-2.9237,-2.9152,-2.9218,-2.9455,-3.0772,-3.1296,-3.1355,-3.1481,-3.1492,-3.1464,-3.1612,-3.1644,-3.1555,-3.1507,-3.1925,-3.2477,-3.2452,-3.3055,-3.3751,-3.3674,-3.3758,-3.3868,-3.3815,-3.3807,-3.3807,-3.3807,-3.3807,-3.3807,-3.3807,-3.3807,-3.3807,-3.3807,-3.3807,-3.3807,-3.3807,-3.3807,-3.3807,-3.3807,-3.3807,-3.3807,-3.3807,-3.3807,-3.3807,-3.3807,-3.3807,-3.3807,-3.3807,-3.3807,-3.3807,-3.3807,-3.3807,-3.3807,-3.3807,-3.3807,-3.3807,-3.3807,-3.3183,-3.1485,-2.8669,-2.8881,-2.8994,-2.9049,-3.1678,-3.2889,0.0,0.0,0.0,0.0,-2.0808,0.0,0.0,0.0,-1.7725,-1.6536,0.0,0.0,0.0,0.0,0.0,0.0,0.0,0.0,-1.9237,-2.0316,-2.1404,-2.2007,-2.2867,-2.3419,-2.3419,-2.3419,-2.43,-2.6447,-2.5273,-2.5107,-2.6521,-2.6612,-2.6649,-2.6741,-2.6741,-2.6778,-2.6869,-2.7585,-2.7934,-2.7974,-2.8668,-2.9017,-2.9017,-2.9085,-2.9062,-2.9017,-2.9152,-2.9112,-2.904,-2.9152,-2.9156,-2.9149,-2.9355,-2.9474,-2.9654,-3.0313,-3.0526,-3.0572,-3.1339,-3.1531,-3.1434,-3.1483,-3.1562,-3.163,-3.1581,-3.2151,-3.2845,-3.2768,-3.3256,-3.3807,-3.3788,-3.3807,-3.3807,-3.3807,-3.3807,-3.3807,-3.3807,-3.3807,-3.3807,-3.3807,-3.3807,-3.3807,-3.3807,-3.3807,-3.3807,-3.3807,-3.3807,-3.3807,-3.3807,-3.3807,-3.3807,-3.3807,-3.3807,-3.3807,-3.3807,-3.3807,-3.3807,-3.3807,-3.3807,-3.3807,-3.3807,-3.3807,-3.3807,-3.3807,-3.1017,-2.8861,-2.7483,-2.85,-2.8994,-2.8994,-2.936,-2.9567,0.0,0.0,0.0,0.0,0.0,0.0,-1.8724,0.0,-1.8142,0.0,0.0,0.0,0.0,0.0,0.0,0.0,-1.8249,0.0,0.0,0.0,-1.9468,0.0,0.0,0.0,-2.2923,-2.2575,-2.2923,-2.441,-2.3456,-2.3309,-2.4465,-2.4961,-2.5419,-2.5878,-2.5897,-2.6135,-2.6612,-2.6924,-2.7108,-2.7108,-2.7457,-2.786,-2.8301,-2.8323,-2.8599,-2.9017,-2.9062,-2.9067,-2.9062,-2.9085,-2.9112,-2.9134,-2.9067,-2.913,-2.9277,-2.9588,-2.9673,-2.9642,-3.0019,-3.0079,-3.0081,-3.0564,-3.0754,-3.0846,-3.128,-3.1666,-3.1948,-3.1898,-3.2485,-3.322,-3.3678,-3.3807,-3.3807,-3.3807,-3.3807,-3.3807,-3.3807,-3.3807,-3.3807,-3.3807,-3.3807,-3.3807,-3.3807,-3.3807,-3.3807,-3.3807,-3.3807,-3.3807,-3.3807,-3.3807,-3.3807,-3.3807,-3.3807,-3.3807,-3.3807,-3.3807,-3.3807,-3.3807,-3.3075,-3.1866,-3.0101,-3.0012,-3.0012,-3.0012,-2.9341,-2.8422,-2.7282,-2.8448,-2.8994,-2.8994,-2.8994,-2.8994,-2.279,0.0,0.0,0.0,0.0,0.0,0.0,0.0,0.0,0.0,0.0,0.0,0.0,0.0,0.0,0.0,0.0,0.0,0.0,0.0,0.0,0.0,0.0,0.0,0.0,-2.1441,-2.1239,-2.2575,-2.1492,-2.1437,-2.2923,-2.3547,-2.4245,-2.5054,-2.5072,-2.5346,-2.5952,-2.6153,-2.6264,-2.6264,-2.6502,-2.6906,-2.7475,-2.7695,-2.8117,-2.8686,-2.8906,-2.904,-2.9085,-2.904,-2.9067,-2.9152,-2.904,-2.9062,-2.9152,-2.9152,-2.9112,-2.9067,-2.9067,-2.904,-2.9085,-2.9696,-2.9879,-2.9989,-3.0577,-3.0889,-3.1072,-3.1072,-3.1641,-3.2412,-3.2981,-3.3238,-3.3366,-3.3366,-3.3238,-3.3256,-3.3697,-3.3807,-3.3807,-3.3807,-3.3807,-3.3807,-3.3807,-3.3807,-3.3807,-3.3807,-3.3807,-3.3807,-3.3807,-3.3807,-3.3807,-3.3807,-3.3807,-3.3807,-3.3807,-3.3807,-3.3296,-3.2081,-3.1102,-2.9575,-2.7385,-2.7299,-2.7299,-2.7299,-2.8101,-2.8128,-2.7282,-2.8448,-2.8994,-2.8994,-2.8815,-2.8749,0.0,0.0,0.0,-2.0752,0.0,0.0,0.0,0.0,-1.9081,0.0,0.0,0.0,0.0,0.0,0.0,0.0,0.0,0.0,0.0,0.0,0.0,0.0,0.0,0.0,0.0,-1.9359,-1.9026,0.0,-1.9583,-1.962,-2.2832,-2.3015,-2.3419,-2.4208,-2.4245,-2.4245,-2.4281,-2.5054,-2.5439,-2.5458,-2.6227,-2.6612,-2.6667,-2.7438,-2.7805,-2.7879,-2.8736,-2.9062,-2.9017,-2.9085,-2.9062,-2.9017,-2.9017,-2.9017,-2.9017,-2.9017,-2.9017,-2.9017,-2.9017,-2.9017,-2.8994,-2.9012,-2.903,-2.903,-2.9067,-2.9622,-3.0246,-3.0246,-3.0815,-3.1439,-3.1458,-3.1843,-3.2247,-3.2247,-3.1843,-3.1898,-3.3458,-3.3807,-3.3807,-3.3807,-3.3807,-3.3807,-3.3807,-3.3807,-3.3807,-3.3807,-3.3807,-3.3807,-3.3807,-3.3807,-3.3807,-3.3807,-3.3807,-3.3807,-3.3807,-3.3807,-3.1999,-2.7782,-2.7469,-2.7385,-2.7299,-2.7299,-2.7299,-2.7299,-2.7362,-2.7362,-2.7282,-2.8448,-2.8994,-2.8994,-2.8412,-2.8129,0.0,0.0,-2.2658,-2.1453,0.0,0.0,0.0,0.0,0.0,0.0,0.0,0.0,0.0,0.0,0.0,0.0,0.0,0.0,0.0,0.0,0.0,0.0,0.0,0.0,0.0,0.0,0.0,0.0,-1.9811,0.0,-2.2116,-2.3217,-2.3914,-2.419,-2.419,-2.419,-2.419,-2.4465,-2.4612,-2.4612,-2.4887,-2.5291,-2.5805,-2.6101,-2.6502,-2.7053,-2.7882,-2.8231,-2.8246,-2.8801,-2.9017,-2.8994,-2.8994,-2.8994,-2.8994,-2.8994,-2.8994,-2.8994,-2.8994,-2.8994,-2.8994,-2.8994,-2.8994,-2.8994,-2.8994,-2.92,-2.942,-2.942,-2.9989,-3.0613,-3.0613,-3.1127,-3.1659,-3.1659,-3.1256,-3.1017,-3.1549,-3.1953,-3.221,-3.221,-3.221,-3.254,-3.3623,-3.3807,-3.3807,-3.3807,-3.3807,-3.3807,-3.3807,-3.3807,-3.3807,-3.3807,-3.1898,-3.0319,-2.955,-2.9508,-2.8855,-2.7382,-2.7299,-2.7299,-2.7299,-2.7299,-2.7299,-2.7299,-2.7299,-2.7299,-2.7299,-2.7707,-2.7876,-2.7864,-2.7659,-2.7683,-2.2825,-2.285,0.0,-2.1755,-2.1154,0.0,-1.9407,0.0,-1.9365,0.0,0.0,0.0,0.0,0.0,0.0,0.0,0.0,0.0,0.0,-1.4348,0.0,0.0,0.0,0.0,0.0,0.0,-1.7752,-1.9073,-1.8932,0.0,0.0,-2.2776,-2.3602,-2.4171,-2.419,-2.419,-2.419,-2.419,-2.419,-2.419,-2.419,-2.4465,-2.4999,-2.5274,-2.5676,-2.6227,-2.7016,-2.753,-2.7842,-2.8356,-2.8741,-2.8994,-2.8994,-2.8994,-2.8994,-2.8994,-2.8994,-2.8994,-2.8994,-2.8994,-2.8994,-2.8994,-2.8994,-2.8994,-2.8994,-2.8994,-2.8994,-2.8994,-2.9384,-2.9769,-2.9769,-3.0173,-3.0558,-3.0558,-3.0283,-3.0099,-3.0393,-3.0387,-3.0458,-3.0823,-3.0534,-3.0563,-3.1601,-3.1783,-3.2219,-3.3597,-3.3807,-3.3807,-3.3807,-3.2797,-3.1952,-3.1534,-2.9629,-2.8101,-2.7345,-2.7299,-2.7299,-2.7299,-2.7299,-2.7299,-2.7299,-2.7299,-2.7299,-2.7299,-2.7299,-2.7299,-2.7299,-2.7299,-2.7299,-2.7299,-2.7299,-2.7421]}]]